<?xml version="1.0" encoding="UTF-8" standalone="no" ?>
<gpx xmlns="http://www.topografix.com/GPX/1/1" xmlns:xsi="http://www.w3.org/2001/XMLSchema-instance" xsi:schemaLocation="http://www.topografix.com/GPX/1/1 http://www.topografix.com/GPX/1/1/gpx.xsd" version="1.1" creator="VisuGPX - https://www.visugpx.com">
  <metadata>
    <name>Plouarzel - Belgrade</name>
    <desc><![CDATA[Arrivée à Belgrade le 11 juillet. 66 jours pédalés. 7 jours de repos.
]]></desc>
  </metadata>
  <trk>
    <name><![CDATA[Sortie à vélo]]></name>
    <extensions>
      <line xmlns="http://www.topografix.com/GPX/gpx_style/0/2">
        <color>0000FF</color>
        <width>4</width>
      </line>
    </extensions>
    <trkseg>
      <trkpt lat="47.46811" lon="-1.76723">
        <ele>64.806982</ele>
        <time>2023-05-07T10:33:28.642Z</time>
      </trkpt>
      <trkpt lat="47.4681" lon="-1.76744">
        <ele>64.806982</ele>
        <time>2023-05-07T10:33:30.103Z</time>
      </trkpt>
      <trkpt lat="47.46818" lon="-1.76751">
        <ele>64.806982</ele>
        <time>2023-05-07T10:39:47.114Z</time>
      </trkpt>
      <trkpt lat="47.46811" lon="-1.76742">
        <ele>64.806982</ele>
        <time>2023-05-07T10:44:16.110Z</time>
      </trkpt>
      <trkpt lat="47.46801" lon="-1.76749">
        <ele>64.806982</ele>
        <time>2023-05-07T10:46:15.111Z</time>
      </trkpt>
      <trkpt lat="47.46793" lon="-1.76756">
        <ele>64.806982</ele>
        <time>2023-05-07T10:46:32.108Z</time>
      </trkpt>
      <trkpt lat="47.46786" lon="-1.76766">
        <ele>64.806982</ele>
        <time>2023-05-07T10:46:36.106Z</time>
      </trkpt>
      <trkpt lat="47.46779" lon="-1.76778">
        <ele>64.806982</ele>
        <time>2023-05-07T10:46:41.108Z</time>
      </trkpt>
      <trkpt lat="47.4678" lon="-1.76792">
        <ele>64.806982</ele>
        <time>2023-05-07T10:46:46.108Z</time>
      </trkpt>
      <trkpt lat="47.46785" lon="-1.76806">
        <ele>64.813543</ele>
        <time>2023-05-07T10:46:51.106Z</time>
      </trkpt>
      <trkpt lat="47.46788" lon="-1.7682">
        <ele>64.828963</ele>
        <time>2023-05-07T10:46:55.111Z</time>
      </trkpt>
      <trkpt lat="47.46795" lon="-1.76834">
        <ele>64.846377</ele>
        <time>2023-05-07T10:46:59.105Z</time>
      </trkpt>
      <trkpt lat="47.46803" lon="-1.76841">
        <ele>64.861336</ele>
        <time>2023-05-07T10:47:04.113Z</time>
      </trkpt>
      <trkpt lat="47.46808" lon="-1.76829">
        <ele>64.8764</ele>
        <time>2023-05-07T10:47:09.112Z</time>
      </trkpt>
      <trkpt lat="47.46802" lon="-1.76816">
        <ele>64.892809</ele>
        <time>2023-05-07T10:47:14.110Z</time>
      </trkpt>
      <trkpt lat="47.46793" lon="-1.76812">
        <ele>64.906955</ele>
        <time>2023-05-07T10:47:18.110Z</time>
      </trkpt>
      <trkpt lat="47.46784" lon="-1.76815">
        <ele>64.920694</ele>
        <time>2023-05-07T10:47:23.106Z</time>
      </trkpt>
      <trkpt lat="47.46787" lon="-1.7683">
        <ele>64.936606</ele>
        <time>2023-05-07T10:47:28.105Z</time>
      </trkpt>
      <trkpt lat="47.46793" lon="-1.76841">
        <ele>64.951291</ele>
        <time>2023-05-07T10:47:32.112Z</time>
      </trkpt>
      <trkpt lat="47.46798" lon="-1.76853">
        <ele>64.965389</ele>
        <time>2023-05-07T10:47:36.106Z</time>
      </trkpt>
      <trkpt lat="47.46807" lon="-1.76861">
        <ele>64.981704</ele>
        <time>2023-05-07T10:47:41.106Z</time>
      </trkpt>
      <trkpt lat="47.46818" lon="-1.7686">
        <ele>64.998189</ele>
        <time>2023-05-07T10:47:45.106Z</time>
      </trkpt>
      <trkpt lat="47.46829" lon="-1.76855">
        <ele>65.015958</ele>
        <time>2023-05-07T10:47:49.113Z</time>
      </trkpt>
      <trkpt lat="47.46838" lon="-1.76852">
        <ele>65.030261</ele>
        <time>2023-05-07T10:47:52.113Z</time>
      </trkpt>
      <trkpt lat="47.46848" lon="-1.76849">
        <ele>65.046109</ele>
        <time>2023-05-07T10:47:55.108Z</time>
      </trkpt>
      <trkpt lat="47.46858" lon="-1.76846">
        <ele>65.061277</ele>
        <time>2023-05-07T10:47:58.111Z</time>
      </trkpt>
      <trkpt lat="47.46868" lon="-1.76843">
        <ele>65.076749</ele>
        <time>2023-05-07T10:48:01.106Z</time>
      </trkpt>
      <trkpt lat="47.46878" lon="-1.76839">
        <ele>65.129272</ele>
        <time>2023-05-07T10:48:04.111Z</time>
      </trkpt>
      <trkpt lat="47.46888" lon="-1.76835">
        <ele>65.195157</ele>
        <time>2023-05-07T10:48:07.118Z</time>
      </trkpt>
      <trkpt lat="47.46898" lon="-1.76832">
        <ele>65.25986</ele>
        <time>2023-05-07T10:48:10.107Z</time>
      </trkpt>
      <trkpt lat="47.46907" lon="-1.76828">
        <ele>65.320966</ele>
        <time>2023-05-07T10:48:13.112Z</time>
      </trkpt>
      <trkpt lat="47.46917" lon="-1.76823">
        <ele>65.387587</ele>
        <time>2023-05-07T10:48:16.108Z</time>
      </trkpt>
      <trkpt lat="47.46928" lon="-1.76819">
        <ele>65.457766</ele>
        <time>2023-05-07T10:48:19.107Z</time>
      </trkpt>
      <trkpt lat="47.46938" lon="-1.76814">
        <ele>65.527944</ele>
        <time>2023-05-07T10:48:22.111Z</time>
      </trkpt>
      <trkpt lat="47.46948" lon="-1.7681">
        <ele>65.594811</ele>
        <time>2023-05-07T10:48:25.101Z</time>
      </trkpt>
      <trkpt lat="47.46957" lon="-1.76805">
        <ele>65.655924</ele>
        <time>2023-05-07T10:48:28.104Z</time>
      </trkpt>
      <trkpt lat="47.46968" lon="-1.768">
        <ele>65.728803</ele>
        <time>2023-05-07T10:48:32.106Z</time>
      </trkpt>
      <trkpt lat="47.46979" lon="-1.76795">
        <ele>65.804638</ele>
        <time>2023-05-07T10:48:36.113Z</time>
      </trkpt>
      <trkpt lat="47.46989" lon="-1.76788">
        <ele>65.87599</ele>
        <time>2023-05-07T10:48:40.102Z</time>
      </trkpt>
      <trkpt lat="47.47" lon="-1.7678">
        <ele>65.949445</ele>
        <time>2023-05-07T10:48:44.100Z</time>
      </trkpt>
      <trkpt lat="47.47009" lon="-1.76772">
        <ele>66.017064</ele>
        <time>2023-05-07T10:48:48.103Z</time>
      </trkpt>
      <trkpt lat="47.47018" lon="-1.76765">
        <ele>66.08478</ele>
        <time>2023-05-07T10:48:53.102Z</time>
      </trkpt>
      <trkpt lat="47.47027" lon="-1.76756">
        <ele>66.153504</ele>
        <time>2023-05-07T10:48:58.100Z</time>
      </trkpt>
      <trkpt lat="47.47035" lon="-1.76748">
        <ele>66.218658</ele>
        <time>2023-05-07T10:49:02.101Z</time>
      </trkpt>
      <trkpt lat="47.47045" lon="-1.76738">
        <ele>66.218759</ele>
        <time>2023-05-07T10:49:06.098Z</time>
      </trkpt>
      <trkpt lat="47.47046" lon="-1.76723">
        <ele>66.204815</ele>
        <time>2023-05-07T10:49:10.113Z</time>
      </trkpt>
      <trkpt lat="47.47039" lon="-1.76708">
        <ele>66.187506</ele>
        <time>2023-05-07T10:49:14.101Z</time>
      </trkpt>
      <trkpt lat="47.47033" lon="-1.76696">
        <ele>66.173961</ele>
        <time>2023-05-07T10:49:17.100Z</time>
      </trkpt>
      <trkpt lat="47.47028" lon="-1.76684">
        <ele>66.160729</ele>
        <time>2023-05-07T10:49:20.103Z</time>
      </trkpt>
      <trkpt lat="47.47022" lon="-1.76673">
        <ele>66.147726</ele>
        <time>2023-05-07T10:49:23.100Z</time>
      </trkpt>
      <trkpt lat="47.47018" lon="-1.7666">
        <ele>66.134166</ele>
        <time>2023-05-07T10:49:26.103Z</time>
      </trkpt>
      <trkpt lat="47.47014" lon="-1.76647">
        <ele>66.121525</ele>
        <time>2023-05-07T10:49:30.110Z</time>
      </trkpt>
      <trkpt lat="47.47012" lon="-1.76634">
        <ele>66.109006</ele>
        <time>2023-05-07T10:49:36.100Z</time>
      </trkpt>
      <trkpt lat="47.47018" lon="-1.76622">
        <ele>66.095685</ele>
        <time>2023-05-07T10:49:54.113Z</time>
      </trkpt>
      <trkpt lat="47.47014" lon="-1.76607">
        <ele>66.080278</ele>
        <time>2023-05-07T10:50:55.106Z</time>
      </trkpt>
      <trkpt lat="47.47014" lon="-1.76608">
        <ele>66.079887</ele>
        <time>2023-05-07T10:51:13.789Z</time>
      </trkpt>
      <trkpt lat="47.47004" lon="-1.76604">
        <ele>66.066105</ele>
        <time>2023-05-07T11:12:25.108Z</time>
      </trkpt>
      <trkpt lat="47.46997" lon="-1.76589">
        <ele>66.049798</ele>
        <time>2023-05-07T11:12:29.112Z</time>
      </trkpt>
      <trkpt lat="47.46991" lon="-1.76574">
        <ele>66.033632</ele>
        <time>2023-05-07T11:12:33.117Z</time>
      </trkpt>
      <trkpt lat="47.46986" lon="-1.76561">
        <ele>66.019297</ele>
        <time>2023-05-07T11:12:37.107Z</time>
      </trkpt>
      <trkpt lat="47.4698" lon="-1.76548">
        <ele>66.004602</ele>
        <time>2023-05-07T11:12:41.112Z</time>
      </trkpt>
      <trkpt lat="47.46975" lon="-1.76535">
        <ele>65.990554</ele>
        <time>2023-05-07T11:12:45.106Z</time>
      </trkpt>
      <trkpt lat="47.46969" lon="-1.76522">
        <ele>65.940211</ele>
        <time>2023-05-07T11:12:49.108Z</time>
      </trkpt>
      <trkpt lat="47.46962" lon="-1.76508">
        <ele>65.854917</ele>
        <time>2023-05-07T11:12:53.112Z</time>
      </trkpt>
      <trkpt lat="47.46957" lon="-1.76496">
        <ele>65.782297</ele>
        <time>2023-05-07T11:12:56.114Z</time>
      </trkpt>
      <trkpt lat="47.46952" lon="-1.76482">
        <ele>65.70762</ele>
        <time>2023-05-07T11:12:59.106Z</time>
      </trkpt>
      <trkpt lat="47.46946" lon="-1.7647">
        <ele>65.635416</ele>
        <time>2023-05-07T11:13:02.116Z</time>
      </trkpt>
      <trkpt lat="47.46941" lon="-1.76458">
        <ele>65.565884</ele>
        <time>2023-05-07T11:13:05.102Z</time>
      </trkpt>
      <trkpt lat="47.46934" lon="-1.76444">
        <ele>65.480632</ele>
        <time>2023-05-07T11:13:09.102Z</time>
      </trkpt>
      <trkpt lat="47.46929" lon="-1.76432">
        <ele>65.410863</ele>
        <time>2023-05-07T11:13:13.111Z</time>
      </trkpt>
      <trkpt lat="47.46924" lon="-1.76421">
        <ele>65.344743</ele>
        <time>2023-05-07T11:13:17.114Z</time>
      </trkpt>
      <trkpt lat="47.4692" lon="-1.76408">
        <ele>65.275085</ele>
        <time>2023-05-07T11:13:21.113Z</time>
      </trkpt>
      <trkpt lat="47.46914" lon="-1.76396">
        <ele>65.202888</ele>
        <time>2023-05-07T11:13:25.106Z</time>
      </trkpt>
      <trkpt lat="47.46905" lon="-1.76389">
        <ele>65.128785</ele>
        <time>2023-05-07T11:13:30.109Z</time>
      </trkpt>
      <trkpt lat="47.46899" lon="-1.76376">
        <ele>65.054011</ele>
        <time>2023-05-07T11:13:36.119Z</time>
      </trkpt>
      <trkpt lat="47.46893" lon="-1.76364">
        <ele>64.978534</ele>
        <time>2023-05-07T11:13:42.113Z</time>
      </trkpt>
      <trkpt lat="47.46883" lon="-1.76361">
        <ele>64.907224</ele>
        <time>2023-05-07T11:13:48.106Z</time>
      </trkpt>
      <trkpt lat="47.46874" lon="-1.76358">
        <ele>64.840136</ele>
        <time>2023-05-07T11:13:54.100Z</time>
      </trkpt>
      <trkpt lat="47.46868" lon="-1.76343">
        <ele>64.75745</ele>
        <time>2023-05-07T11:15:53.117Z</time>
      </trkpt>
      <trkpt lat="47.46863" lon="-1.76331">
        <ele>64.689309</ele>
        <time>2023-05-07T11:15:57.121Z</time>
      </trkpt>
      <trkpt lat="47.46857" lon="-1.7632">
        <ele>64.712268</ele>
        <time>2023-05-07T11:16:01.123Z</time>
      </trkpt>
      <trkpt lat="47.4685" lon="-1.76306">
        <ele>64.750073</ele>
        <time>2023-05-07T11:16:05.104Z</time>
      </trkpt>
      <trkpt lat="47.46844" lon="-1.76295">
        <ele>64.780437</ele>
        <time>2023-05-07T11:16:08.114Z</time>
      </trkpt>
      <trkpt lat="47.46839" lon="-1.76283">
        <ele>64.81336</ele>
        <time>2023-05-07T11:16:11.120Z</time>
      </trkpt>
      <trkpt lat="47.46833" lon="-1.7627">
        <ele>64.84961</ele>
        <time>2023-05-07T11:16:14.111Z</time>
      </trkpt>
      <trkpt lat="47.46827" lon="-1.76256">
        <ele>64.884576</ele>
        <time>2023-05-07T11:16:17.114Z</time>
      </trkpt>
      <trkpt lat="47.46821" lon="-1.76243">
        <ele>64.921017</ele>
        <time>2023-05-07T11:16:20.102Z</time>
      </trkpt>
      <trkpt lat="47.46814" lon="-1.76228">
        <ele>64.959863</ele>
        <time>2023-05-07T11:16:23.113Z</time>
      </trkpt>
      <trkpt lat="47.46807" lon="-1.76213">
        <ele>65.001305</ele>
        <time>2023-05-07T11:16:26.120Z</time>
      </trkpt>
      <trkpt lat="47.468" lon="-1.76197">
        <ele>65.043658</ele>
        <time>2023-05-07T11:16:29.101Z</time>
      </trkpt>
      <trkpt lat="47.46793" lon="-1.76182">
        <ele>65.083433</ele>
        <time>2023-05-07T11:16:32.113Z</time>
      </trkpt>
      <trkpt lat="47.46787" lon="-1.76167">
        <ele>65.123762</ele>
        <time>2023-05-07T11:16:35.101Z</time>
      </trkpt>
      <trkpt lat="47.4678" lon="-1.76152">
        <ele>65.1652</ele>
        <time>2023-05-07T11:16:38.114Z</time>
      </trkpt>
      <trkpt lat="47.46773" lon="-1.76136">
        <ele>65.206817</ele>
        <time>2023-05-07T11:16:41.116Z</time>
      </trkpt>
      <trkpt lat="47.46767" lon="-1.76121">
        <ele>65.247334</ele>
        <time>2023-05-07T11:16:44.107Z</time>
      </trkpt>
      <trkpt lat="47.4676" lon="-1.76106">
        <ele>65.296109</ele>
        <time>2023-05-07T11:16:47.113Z</time>
      </trkpt>
      <trkpt lat="47.46753" lon="-1.7609">
        <ele>65.36858</ele>
        <time>2023-05-07T11:16:50.113Z</time>
      </trkpt>
      <trkpt lat="47.46746" lon="-1.76075">
        <ele>65.441051</ele>
        <time>2023-05-07T11:16:53.115Z</time>
      </trkpt>
      <trkpt lat="47.4674" lon="-1.76061">
        <ele>65.510225</ele>
        <time>2023-05-07T11:16:56.115Z</time>
      </trkpt>
      <trkpt lat="47.46733" lon="-1.76047">
        <ele>65.577438</ele>
        <time>2023-05-07T11:16:59.103Z</time>
      </trkpt>
      <trkpt lat="47.46727" lon="-1.76033">
        <ele>65.643987</ele>
        <time>2023-05-07T11:17:02.114Z</time>
      </trkpt>
      <trkpt lat="47.4672" lon="-1.76018">
        <ele>65.717114</ele>
        <time>2023-05-07T11:17:05.111Z</time>
      </trkpt>
      <trkpt lat="47.46712" lon="-1.76002">
        <ele>65.794881</ele>
        <time>2023-05-07T11:17:08.115Z</time>
      </trkpt>
      <trkpt lat="47.46705" lon="-1.75987">
        <ele>65.867704</ele>
        <time>2023-05-07T11:17:11.114Z</time>
      </trkpt>
      <trkpt lat="47.46698" lon="-1.75972">
        <ele>65.942153</ele>
        <time>2023-05-07T11:17:14.115Z</time>
      </trkpt>
      <trkpt lat="47.4669" lon="-1.75956">
        <ele>66.017915</ele>
        <time>2023-05-07T11:17:17.116Z</time>
      </trkpt>
      <trkpt lat="47.46683" lon="-1.75941">
        <ele>66.09076</ele>
        <time>2023-05-07T11:17:20.117Z</time>
      </trkpt>
      <trkpt lat="47.46676" lon="-1.75926">
        <ele>66.163576</ele>
        <time>2023-05-07T11:17:23.112Z</time>
      </trkpt>
      <trkpt lat="47.4667" lon="-1.75912">
        <ele>66.229137</ele>
        <time>2023-05-07T11:17:26.104Z</time>
      </trkpt>
      <trkpt lat="47.46664" lon="-1.759">
        <ele>66.289124</ele>
        <time>2023-05-07T11:17:29.107Z</time>
      </trkpt>
      <trkpt lat="47.46656" lon="-1.75887">
        <ele>66.334589</ele>
        <time>2023-05-07T11:17:32.117Z</time>
      </trkpt>
      <trkpt lat="47.46649" lon="-1.75874">
        <ele>66.336358</ele>
        <time>2023-05-07T11:17:35.103Z</time>
      </trkpt>
      <trkpt lat="47.46641" lon="-1.75859">
        <ele>66.338274</ele>
        <time>2023-05-07T11:17:38.118Z</time>
      </trkpt>
      <trkpt lat="47.46633" lon="-1.75845">
        <ele>66.340177</ele>
        <time>2023-05-07T11:17:41.108Z</time>
      </trkpt>
      <trkpt lat="47.46626" lon="-1.75832">
        <ele>66.341915</ele>
        <time>2023-05-07T11:17:44.114Z</time>
      </trkpt>
      <trkpt lat="47.46618" lon="-1.7582">
        <ele>66.343643</ele>
        <time>2023-05-07T11:17:47.115Z</time>
      </trkpt>
      <trkpt lat="47.4661" lon="-1.75808">
        <ele>66.345472</ele>
        <time>2023-05-07T11:17:50.116Z</time>
      </trkpt>
      <trkpt lat="47.46603" lon="-1.75799">
        <ele>66.346881</ele>
        <time>2023-05-07T11:17:52.116Z</time>
      </trkpt>
      <trkpt lat="47.46596" lon="-1.75789">
        <ele>66.348386</ele>
        <time>2023-05-07T11:17:55.113Z</time>
      </trkpt>
      <trkpt lat="47.46588" lon="-1.75778">
        <ele>66.350008</ele>
        <time>2023-05-07T11:17:58.122Z</time>
      </trkpt>
      <trkpt lat="47.4658" lon="-1.75768">
        <ele>66.351671</ele>
        <time>2023-05-07T11:18:01.107Z</time>
      </trkpt>
      <trkpt lat="47.46572" lon="-1.75757">
        <ele>66.353357</ele>
        <time>2023-05-07T11:18:04.115Z</time>
      </trkpt>
      <trkpt lat="47.46563" lon="-1.75747">
        <ele>66.355006</ele>
        <time>2023-05-07T11:18:07.115Z</time>
      </trkpt>
      <trkpt lat="47.46556" lon="-1.75736">
        <ele>66.356678</ele>
        <time>2023-05-07T11:18:10.113Z</time>
      </trkpt>
      <trkpt lat="47.46548" lon="-1.75728">
        <ele>66.358172</ele>
        <time>2023-05-07T11:18:13.112Z</time>
      </trkpt>
      <trkpt lat="47.46541" lon="-1.75718">
        <ele>66.359671</ele>
        <time>2023-05-07T11:18:16.105Z</time>
      </trkpt>
      <trkpt lat="47.46533" lon="-1.75707">
        <ele>66.361362</ele>
        <time>2023-05-07T11:18:19.106Z</time>
      </trkpt>
      <trkpt lat="47.46523" lon="-1.75696">
        <ele>66.327962</ele>
        <time>2023-05-07T11:18:22.111Z</time>
      </trkpt>
      <trkpt lat="47.46513" lon="-1.75687">
        <ele>66.289065</ele>
        <time>2023-05-07T11:18:25.114Z</time>
      </trkpt>
      <trkpt lat="47.46504" lon="-1.75676">
        <ele>66.250593</ele>
        <time>2023-05-07T11:18:28.108Z</time>
      </trkpt>
      <trkpt lat="47.46497" lon="-1.75668">
        <ele>66.220922</ele>
        <time>2023-05-07T11:18:30.115Z</time>
      </trkpt>
      <trkpt lat="47.4649" lon="-1.75659">
        <ele>66.190958</ele>
        <time>2023-05-07T11:18:32.108Z</time>
      </trkpt>
      <trkpt lat="47.4648" lon="-1.75648">
        <ele>66.151799</ele>
        <time>2023-05-07T11:18:35.103Z</time>
      </trkpt>
      <trkpt lat="47.4647" lon="-1.75636">
        <ele>66.108594</ele>
        <time>2023-05-07T11:18:38.100Z</time>
      </trkpt>
      <trkpt lat="47.46461" lon="-1.75623">
        <ele>66.068342</ele>
        <time>2023-05-07T11:18:41.102Z</time>
      </trkpt>
      <trkpt lat="47.4645" lon="-1.75611">
        <ele>66.024447</ele>
        <time>2023-05-07T11:18:44.098Z</time>
      </trkpt>
      <trkpt lat="47.46441" lon="-1.75599">
        <ele>65.984685</ele>
        <time>2023-05-07T11:18:47.104Z</time>
      </trkpt>
      <trkpt lat="47.4643" lon="-1.75585">
        <ele>65.936518</ele>
        <time>2023-05-07T11:18:50.097Z</time>
      </trkpt>
      <trkpt lat="47.46423" lon="-1.75576">
        <ele>65.904954</ele>
        <time>2023-05-07T11:18:52.113Z</time>
      </trkpt>
      <trkpt lat="47.46416" lon="-1.75566">
        <ele>65.875103</ele>
        <time>2023-05-07T11:18:54.100Z</time>
      </trkpt>
      <trkpt lat="47.46405" lon="-1.75555">
        <ele>65.832301</ele>
        <time>2023-05-07T11:18:57.107Z</time>
      </trkpt>
      <trkpt lat="47.46396" lon="-1.75544">
        <ele>65.793113</ele>
        <time>2023-05-07T11:19:00.107Z</time>
      </trkpt>
      <trkpt lat="47.46387" lon="-1.75533">
        <ele>65.821057</ele>
        <time>2023-05-07T11:19:03.115Z</time>
      </trkpt>
      <trkpt lat="47.46375" lon="-1.75519">
        <ele>65.944785</ele>
        <time>2023-05-07T11:19:06.103Z</time>
      </trkpt>
      <trkpt lat="47.46368" lon="-1.7551">
        <ele>66.022773</ele>
        <time>2023-05-07T11:19:08.113Z</time>
      </trkpt>
      <trkpt lat="47.4636" lon="-1.75501">
        <ele>66.103644</ele>
        <time>2023-05-07T11:19:10.113Z</time>
      </trkpt>
      <trkpt lat="47.46352" lon="-1.75493">
        <ele>66.178643</ele>
        <time>2023-05-07T11:19:12.118Z</time>
      </trkpt>
      <trkpt lat="47.46344" lon="-1.75484">
        <ele>66.266028</ele>
        <time>2023-05-07T11:19:14.116Z</time>
      </trkpt>
      <trkpt lat="47.46336" lon="-1.75475">
        <ele>66.342226</ele>
        <time>2023-05-07T11:19:16.102Z</time>
      </trkpt>
      <trkpt lat="47.46329" lon="-1.75466">
        <ele>66.418332</ele>
        <time>2023-05-07T11:19:18.104Z</time>
      </trkpt>
      <trkpt lat="47.46322" lon="-1.75457">
        <ele>66.490898</ele>
        <time>2023-05-07T11:19:20.111Z</time>
      </trkpt>
      <trkpt lat="47.46313" lon="-1.75446">
        <ele>66.588799</ele>
        <time>2023-05-07T11:19:23.103Z</time>
      </trkpt>
      <trkpt lat="47.46304" lon="-1.75434">
        <ele>66.682832</ele>
        <time>2023-05-07T11:19:26.097Z</time>
      </trkpt>
      <trkpt lat="47.46296" lon="-1.75422">
        <ele>66.782755</ele>
        <time>2023-05-07T11:19:29.098Z</time>
      </trkpt>
      <trkpt lat="47.46287" lon="-1.75411">
        <ele>66.874115</ele>
        <time>2023-05-07T11:19:32.115Z</time>
      </trkpt>
      <trkpt lat="47.46278" lon="-1.75399">
        <ele>66.974575</ele>
        <time>2023-05-07T11:19:35.100Z</time>
      </trkpt>
      <trkpt lat="47.46271" lon="-1.75389">
        <ele>67.049321</ele>
        <time>2023-05-07T11:19:37.105Z</time>
      </trkpt>
      <trkpt lat="47.46261" lon="-1.75377">
        <ele>67.156134</ele>
        <time>2023-05-07T11:19:40.110Z</time>
      </trkpt>
      <trkpt lat="47.46252" lon="-1.75363">
        <ele>67.27425</ele>
        <time>2023-05-07T11:19:43.100Z</time>
      </trkpt>
      <trkpt lat="47.46246" lon="-1.75352">
        <ele>67.382755</ele>
        <time>2023-05-07T11:19:45.108Z</time>
      </trkpt>
      <trkpt lat="47.46237" lon="-1.75337">
        <ele>67.545063</ele>
        <time>2023-05-07T11:19:48.114Z</time>
      </trkpt>
      <trkpt lat="47.4623" lon="-1.75325">
        <ele>67.675231</ele>
        <time>2023-05-07T11:19:50.112Z</time>
      </trkpt>
      <trkpt lat="47.46225" lon="-1.75308">
        <ele>67.82484</ele>
        <time>2023-05-07T11:19:53.111Z</time>
      </trkpt>
      <trkpt lat="47.46219" lon="-1.75291">
        <ele>67.977047</ele>
        <time>2023-05-07T11:19:56.106Z</time>
      </trkpt>
      <trkpt lat="47.46214" lon="-1.75273">
        <ele>68.126179</ele>
        <time>2023-05-07T11:19:59.107Z</time>
      </trkpt>
      <trkpt lat="47.46209" lon="-1.75257">
        <ele>68.266814</ele>
        <time>2023-05-07T11:20:02.105Z</time>
      </trkpt>
      <trkpt lat="47.46205" lon="-1.75241">
        <ele>68.402042</ele>
        <time>2023-05-07T11:20:05.101Z</time>
      </trkpt>
      <trkpt lat="47.462" lon="-1.75229">
        <ele>68.52092</ele>
        <time>2023-05-07T11:20:08.095Z</time>
      </trkpt>
      <trkpt lat="47.46191" lon="-1.75226">
        <ele>68.631271</ele>
        <time>2023-05-07T11:20:11.098Z</time>
      </trkpt>
      <trkpt lat="47.46181" lon="-1.75231">
        <ele>68.74843</ele>
        <time>2023-05-07T11:20:14.096Z</time>
      </trkpt>
      <trkpt lat="47.46172" lon="-1.7522">
        <ele>68.88689</ele>
        <time>2023-05-07T11:20:18.123Z</time>
      </trkpt>
      <trkpt lat="47.46167" lon="-1.75206">
        <ele>69.008938</ele>
        <time>2023-05-07T11:20:21.105Z</time>
      </trkpt>
      <trkpt lat="47.46162" lon="-1.75193">
        <ele>69.129181</ele>
        <time>2023-05-07T11:20:24.108Z</time>
      </trkpt>
      <trkpt lat="47.46157" lon="-1.75178">
        <ele>69.26384</ele>
        <time>2023-05-07T11:20:27.112Z</time>
      </trkpt>
      <trkpt lat="47.46151" lon="-1.75163">
        <ele>69.287823</ele>
        <time>2023-05-07T11:20:30.111Z</time>
      </trkpt>
      <trkpt lat="47.46146" lon="-1.75147">
        <ele>69.114209</ele>
        <time>2023-05-07T11:20:33.116Z</time>
      </trkpt>
      <trkpt lat="47.46141" lon="-1.75133">
        <ele>68.949765</ele>
        <time>2023-05-07T11:20:36.104Z</time>
      </trkpt>
      <trkpt lat="47.46136" lon="-1.75121">
        <ele>68.807666</ele>
        <time>2023-05-07T11:20:39.107Z</time>
      </trkpt>
      <trkpt lat="47.46131" lon="-1.75108">
        <ele>68.659696</ele>
        <time>2023-05-07T11:20:42.107Z</time>
      </trkpt>
      <trkpt lat="47.46127" lon="-1.75096">
        <ele>68.5224</ele>
        <time>2023-05-07T11:20:45.117Z</time>
      </trkpt>
      <trkpt lat="47.46121" lon="-1.75084">
        <ele>68.376656</ele>
        <time>2023-05-07T11:20:48.122Z</time>
      </trkpt>
      <trkpt lat="47.46116" lon="-1.75071">
        <ele>68.217966</ele>
        <time>2023-05-07T11:20:51.101Z</time>
      </trkpt>
      <trkpt lat="47.46112" lon="-1.75057">
        <ele>68.064656</ele>
        <time>2023-05-07T11:20:54.103Z</time>
      </trkpt>
      <trkpt lat="47.46106" lon="-1.7504">
        <ele>67.874545</ele>
        <time>2023-05-07T11:20:58.110Z</time>
      </trkpt>
      <trkpt lat="47.461" lon="-1.75025">
        <ele>67.696611</ele>
        <time>2023-05-07T11:21:01.107Z</time>
      </trkpt>
      <trkpt lat="47.46093" lon="-1.75009">
        <ele>67.502801</ele>
        <time>2023-05-07T11:21:04.115Z</time>
      </trkpt>
      <trkpt lat="47.46087" lon="-1.74993">
        <ele>67.323859</ele>
        <time>2023-05-07T11:21:07.115Z</time>
      </trkpt>
      <trkpt lat="47.46081" lon="-1.74976">
        <ele>67.131255</ele>
        <time>2023-05-07T11:21:10.115Z</time>
      </trkpt>
      <trkpt lat="47.46077" lon="-1.74965">
        <ele>66.994297</ele>
        <time>2023-05-07T11:21:12.105Z</time>
      </trkpt>
      <trkpt lat="47.4607" lon="-1.74947">
        <ele>66.79316</ele>
        <time>2023-05-07T11:21:15.114Z</time>
      </trkpt>
      <trkpt lat="47.46064" lon="-1.7493">
        <ele>66.69371</ele>
        <time>2023-05-07T11:21:18.112Z</time>
      </trkpt>
      <trkpt lat="47.46059" lon="-1.74913">
        <ele>66.777052</ele>
        <time>2023-05-07T11:21:21.098Z</time>
      </trkpt>
      <trkpt lat="47.46054" lon="-1.74896">
        <ele>66.861113</ele>
        <time>2023-05-07T11:21:24.100Z</time>
      </trkpt>
      <trkpt lat="47.46048" lon="-1.7488">
        <ele>66.94189</ele>
        <time>2023-05-07T11:21:27.120Z</time>
      </trkpt>
      <trkpt lat="47.46042" lon="-1.74864">
        <ele>67.024656</ele>
        <time>2023-05-07T11:21:30.105Z</time>
      </trkpt>
      <trkpt lat="47.46037" lon="-1.74848">
        <ele>67.104186</ele>
        <time>2023-05-07T11:21:33.108Z</time>
      </trkpt>
      <trkpt lat="47.46031" lon="-1.74831">
        <ele>67.190061</ele>
        <time>2023-05-07T11:21:36.099Z</time>
      </trkpt>
      <trkpt lat="47.46025" lon="-1.74815">
        <ele>67.273856</ele>
        <time>2023-05-07T11:21:39.121Z</time>
      </trkpt>
      <trkpt lat="47.46021" lon="-1.74803">
        <ele>67.334668</ele>
        <time>2023-05-07T11:21:41.099Z</time>
      </trkpt>
      <trkpt lat="47.46016" lon="-1.7479">
        <ele>67.401868</ele>
        <time>2023-05-07T11:21:43.108Z</time>
      </trkpt>
      <trkpt lat="47.4601" lon="-1.74772">
        <ele>67.493382</ele>
        <time>2023-05-07T11:21:46.106Z</time>
      </trkpt>
      <trkpt lat="47.46006" lon="-1.74759">
        <ele>67.556705</ele>
        <time>2023-05-07T11:21:48.110Z</time>
      </trkpt>
      <trkpt lat="47.46002" lon="-1.74748">
        <ele>67.616606</ele>
        <time>2023-05-07T11:21:50.106Z</time>
      </trkpt>
      <trkpt lat="47.45996" lon="-1.74731">
        <ele>67.6999</ele>
        <time>2023-05-07T11:21:53.112Z</time>
      </trkpt>
      <trkpt lat="47.45991" lon="-1.74714">
        <ele>67.785981</ele>
        <time>2023-05-07T11:21:56.105Z</time>
      </trkpt>
      <trkpt lat="47.45986" lon="-1.74702">
        <ele>67.847385</ele>
        <time>2023-05-07T11:21:58.105Z</time>
      </trkpt>
      <trkpt lat="47.45981" lon="-1.7469">
        <ele>67.805714</ele>
        <time>2023-05-07T11:22:00.108Z</time>
      </trkpt>
      <trkpt lat="47.45976" lon="-1.74678">
        <ele>67.725773</ele>
        <time>2023-05-07T11:22:02.117Z</time>
      </trkpt>
      <trkpt lat="47.4597" lon="-1.7466">
        <ele>67.607741</ele>
        <time>2023-05-07T11:22:05.115Z</time>
      </trkpt>
      <trkpt lat="47.45966" lon="-1.74647">
        <ele>67.527346</ele>
        <time>2023-05-07T11:22:07.106Z</time>
      </trkpt>
      <trkpt lat="47.45961" lon="-1.74635">
        <ele>67.446438</ele>
        <time>2023-05-07T11:22:09.106Z</time>
      </trkpt>
      <trkpt lat="47.45957" lon="-1.74622">
        <ele>67.366802</ele>
        <time>2023-05-07T11:22:11.099Z</time>
      </trkpt>
      <trkpt lat="47.45952" lon="-1.74611">
        <ele>67.285731</ele>
        <time>2023-05-07T11:22:13.103Z</time>
      </trkpt>
      <trkpt lat="47.45947" lon="-1.74598">
        <ele>67.207893</ele>
        <time>2023-05-07T11:22:15.106Z</time>
      </trkpt>
      <trkpt lat="47.45942" lon="-1.74586">
        <ele>67.123294</ele>
        <time>2023-05-07T11:22:17.106Z</time>
      </trkpt>
      <trkpt lat="47.45937" lon="-1.74571">
        <ele>67.024404</ele>
        <time>2023-05-07T11:22:20.118Z</time>
      </trkpt>
      <trkpt lat="47.4593" lon="-1.74552">
        <ele>66.906495</ele>
        <time>2023-05-07T11:22:23.104Z</time>
      </trkpt>
      <trkpt lat="47.45926" lon="-1.7454">
        <ele>66.825722</ele>
        <time>2023-05-07T11:22:25.106Z</time>
      </trkpt>
      <trkpt lat="47.45922" lon="-1.74528">
        <ele>66.749009</ele>
        <time>2023-05-07T11:22:27.112Z</time>
      </trkpt>
      <trkpt lat="47.45915" lon="-1.74512">
        <ele>66.639436</ele>
        <time>2023-05-07T11:22:30.110Z</time>
      </trkpt>
      <trkpt lat="47.4591" lon="-1.74495">
        <ele>66.535254</ele>
        <time>2023-05-07T11:22:33.117Z</time>
      </trkpt>
      <trkpt lat="47.45904" lon="-1.74479">
        <ele>66.429042</ele>
        <time>2023-05-07T11:22:36.102Z</time>
      </trkpt>
      <trkpt lat="47.45897" lon="-1.74463">
        <ele>66.321568</ele>
        <time>2023-05-07T11:22:39.103Z</time>
      </trkpt>
      <trkpt lat="47.45891" lon="-1.7445">
        <ele>66.237516</ele>
        <time>2023-05-07T11:22:41.101Z</time>
      </trkpt>
      <trkpt lat="47.45886" lon="-1.74437">
        <ele>66.158335</ele>
        <time>2023-05-07T11:22:43.105Z</time>
      </trkpt>
      <trkpt lat="47.45882" lon="-1.74425">
        <ele>66.084192</ele>
        <time>2023-05-07T11:22:45.104Z</time>
      </trkpt>
      <trkpt lat="47.45877" lon="-1.74408">
        <ele>65.987754</ele>
        <time>2023-05-07T11:22:48.112Z</time>
      </trkpt>
      <trkpt lat="47.45873" lon="-1.74393">
        <ele>65.898046</ele>
        <time>2023-05-07T11:22:51.111Z</time>
      </trkpt>
      <trkpt lat="47.45867" lon="-1.74378">
        <ele>65.80719</ele>
        <time>2023-05-07T11:22:54.105Z</time>
      </trkpt>
      <trkpt lat="47.45863" lon="-1.74362">
        <ele>65.711417</ele>
        <time>2023-05-07T11:22:57.101Z</time>
      </trkpt>
      <trkpt lat="47.45857" lon="-1.74346">
        <ele>65.611905</ele>
        <time>2023-05-07T11:23:00.114Z</time>
      </trkpt>
      <trkpt lat="47.45852" lon="-1.74328">
        <ele>65.509991</ele>
        <time>2023-05-07T11:23:03.107Z</time>
      </trkpt>
      <trkpt lat="47.45848" lon="-1.74311">
        <ele>65.410043</ele>
        <time>2023-05-07T11:23:06.103Z</time>
      </trkpt>
      <trkpt lat="47.45845" lon="-1.74292">
        <ele>65.307312</ele>
        <time>2023-05-07T11:23:09.104Z</time>
      </trkpt>
      <trkpt lat="47.45843" lon="-1.74276">
        <ele>65.22163</ele>
        <time>2023-05-07T11:23:12.121Z</time>
      </trkpt>
      <trkpt lat="47.45843" lon="-1.74261">
        <ele>65.139028</ele>
        <time>2023-05-07T11:23:15.114Z</time>
      </trkpt>
      <trkpt lat="47.45843" lon="-1.74245">
        <ele>65.053219</ele>
        <time>2023-05-07T11:23:18.113Z</time>
      </trkpt>
      <trkpt lat="47.45844" lon="-1.74229">
        <ele>64.967177</ele>
        <time>2023-05-07T11:23:21.116Z</time>
      </trkpt>
      <trkpt lat="47.45844" lon="-1.7421">
        <ele>64.944945</ele>
        <time>2023-05-07T11:23:24.102Z</time>
      </trkpt>
      <trkpt lat="47.45844" lon="-1.74192">
        <ele>65.032244</ele>
        <time>2023-05-07T11:23:27.095Z</time>
      </trkpt>
      <trkpt lat="47.45843" lon="-1.74174">
        <ele>65.115156</ele>
        <time>2023-05-07T11:23:30.113Z</time>
      </trkpt>
      <trkpt lat="47.45844" lon="-1.74159">
        <ele>65.186573</ele>
        <time>2023-05-07T11:23:32.096Z</time>
      </trkpt>
      <trkpt lat="47.45842" lon="-1.74145">
        <ele>65.256478</ele>
        <time>2023-05-07T11:23:34.103Z</time>
      </trkpt>
      <trkpt lat="47.45842" lon="-1.74126">
        <ele>65.349433</ele>
        <time>2023-05-07T11:23:37.107Z</time>
      </trkpt>
      <trkpt lat="47.45842" lon="-1.7411">
        <ele>65.424665</ele>
        <time>2023-05-07T11:23:40.112Z</time>
      </trkpt>
      <trkpt lat="47.45842" lon="-1.74093">
        <ele>65.507624</ele>
        <time>2023-05-07T11:23:43.101Z</time>
      </trkpt>
      <trkpt lat="47.45841" lon="-1.74077">
        <ele>65.584398</ele>
        <time>2023-05-07T11:23:46.101Z</time>
      </trkpt>
      <trkpt lat="47.45842" lon="-1.7406">
        <ele>65.662982</ele>
        <time>2023-05-07T11:23:49.097Z</time>
      </trkpt>
      <trkpt lat="47.45842" lon="-1.74042">
        <ele>65.751182</ele>
        <time>2023-05-07T11:23:52.107Z</time>
      </trkpt>
      <trkpt lat="47.45845" lon="-1.74024">
        <ele>65.840766</ele>
        <time>2023-05-07T11:23:55.106Z</time>
      </trkpt>
      <trkpt lat="47.45849" lon="-1.74005">
        <ele>65.934575</ele>
        <time>2023-05-07T11:23:58.114Z</time>
      </trkpt>
      <trkpt lat="47.45852" lon="-1.73988">
        <ele>66.019225</ele>
        <time>2023-05-07T11:24:01.109Z</time>
      </trkpt>
      <trkpt lat="47.45856" lon="-1.73969">
        <ele>66.113571</ele>
        <time>2023-05-07T11:24:04.098Z</time>
      </trkpt>
      <trkpt lat="47.45858" lon="-1.73956">
        <ele>66.178981</ele>
        <time>2023-05-07T11:24:06.096Z</time>
      </trkpt>
      <trkpt lat="47.45863" lon="-1.73939">
        <ele>66.300962</ele>
        <time>2023-05-07T11:24:09.113Z</time>
      </trkpt>
      <trkpt lat="47.45867" lon="-1.73922">
        <ele>66.426353</ele>
        <time>2023-05-07T11:24:12.097Z</time>
      </trkpt>
      <trkpt lat="47.45872" lon="-1.73905">
        <ele>66.553939</ele>
        <time>2023-05-07T11:24:15.104Z</time>
      </trkpt>
      <trkpt lat="47.45877" lon="-1.73887">
        <ele>66.684159</ele>
        <time>2023-05-07T11:24:18.105Z</time>
      </trkpt>
      <trkpt lat="47.45882" lon="-1.7387">
        <ele>66.816032</ele>
        <time>2023-05-07T11:24:21.097Z</time>
      </trkpt>
      <trkpt lat="47.45887" lon="-1.73858">
        <ele>66.90903</ele>
        <time>2023-05-07T11:24:23.103Z</time>
      </trkpt>
      <trkpt lat="47.45893" lon="-1.73844">
        <ele>67.017985</ele>
        <time>2023-05-07T11:24:26.098Z</time>
      </trkpt>
      <trkpt lat="47.459" lon="-1.73828">
        <ele>67.14762</ele>
        <time>2023-05-07T11:24:29.100Z</time>
      </trkpt>
      <trkpt lat="47.45907" lon="-1.73813">
        <ele>67.274434</ele>
        <time>2023-05-07T11:24:32.094Z</time>
      </trkpt>
      <trkpt lat="47.45914" lon="-1.73797">
        <ele>67.402937</ele>
        <time>2023-05-07T11:24:35.098Z</time>
      </trkpt>
      <trkpt lat="47.4592" lon="-1.73781">
        <ele>67.531542</ele>
        <time>2023-05-07T11:24:38.102Z</time>
      </trkpt>
      <trkpt lat="47.45927" lon="-1.73766">
        <ele>67.65444</ele>
        <time>2023-05-07T11:24:41.100Z</time>
      </trkpt>
      <trkpt lat="47.45933" lon="-1.7375">
        <ele>67.778177</ele>
        <time>2023-05-07T11:24:44.103Z</time>
      </trkpt>
      <trkpt lat="47.4594" lon="-1.73735">
        <ele>67.901596</ele>
        <time>2023-05-07T11:24:47.096Z</time>
      </trkpt>
      <trkpt lat="47.45947" lon="-1.73719">
        <ele>67.979573</ele>
        <time>2023-05-07T11:24:50.102Z</time>
      </trkpt>
      <trkpt lat="47.45955" lon="-1.73703">
        <ele>67.905603</ele>
        <time>2023-05-07T11:24:53.108Z</time>
      </trkpt>
      <trkpt lat="47.45963" lon="-1.73687">
        <ele>67.832612</ele>
        <time>2023-05-07T11:24:56.097Z</time>
      </trkpt>
      <trkpt lat="47.4597" lon="-1.73672">
        <ele>67.76174</ele>
        <time>2023-05-07T11:24:59.103Z</time>
      </trkpt>
      <trkpt lat="47.45979" lon="-1.73657">
        <ele>67.690468</ele>
        <time>2023-05-07T11:25:02.097Z</time>
      </trkpt>
      <trkpt lat="47.45989" lon="-1.73644">
        <ele>67.620707</ele>
        <time>2023-05-07T11:25:05.112Z</time>
      </trkpt>
      <trkpt lat="47.45997" lon="-1.73635">
        <ele>67.565259</ele>
        <time>2023-05-07T11:25:08.102Z</time>
      </trkpt>
      <trkpt lat="47.46006" lon="-1.73628">
        <ele>67.50658</ele>
        <time>2023-05-07T11:25:11.097Z</time>
      </trkpt>
      <trkpt lat="47.46016" lon="-1.73622">
        <ele>67.451155</ele>
        <time>2023-05-07T11:25:14.101Z</time>
      </trkpt>
      <trkpt lat="47.46025" lon="-1.73617">
        <ele>67.394518</ele>
        <time>2023-05-07T11:25:17.097Z</time>
      </trkpt>
      <trkpt lat="47.46035" lon="-1.73612">
        <ele>67.339032</ele>
        <time>2023-05-07T11:25:20.104Z</time>
      </trkpt>
      <trkpt lat="47.46045" lon="-1.73606">
        <ele>67.279631</ele>
        <time>2023-05-07T11:25:23.095Z</time>
      </trkpt>
      <trkpt lat="47.46054" lon="-1.73597">
        <ele>67.219949</ele>
        <time>2023-05-07T11:25:26.114Z</time>
      </trkpt>
      <trkpt lat="47.46063" lon="-1.73588">
        <ele>67.160096</ele>
        <time>2023-05-07T11:25:29.106Z</time>
      </trkpt>
      <trkpt lat="47.46073" lon="-1.73579">
        <ele>67.098688</ele>
        <time>2023-05-07T11:25:32.103Z</time>
      </trkpt>
      <trkpt lat="47.46082" lon="-1.73567">
        <ele>67.033685</ele>
        <time>2023-05-07T11:25:35.101Z</time>
      </trkpt>
      <trkpt lat="47.46089" lon="-1.73555">
        <ele>67.023403</ele>
        <time>2023-05-07T11:25:38.115Z</time>
      </trkpt>
      <trkpt lat="47.46097" lon="-1.73543">
        <ele>67.031512</ele>
        <time>2023-05-07T11:25:41.096Z</time>
      </trkpt>
      <trkpt lat="47.46106" lon="-1.7353">
        <ele>67.040834</ele>
        <time>2023-05-07T11:25:44.104Z</time>
      </trkpt>
      <trkpt lat="47.46116" lon="-1.73516">
        <ele>67.050394</ele>
        <time>2023-05-07T11:25:47.105Z</time>
      </trkpt>
      <trkpt lat="47.46125" lon="-1.73502">
        <ele>67.059563</ele>
        <time>2023-05-07T11:25:50.114Z</time>
      </trkpt>
      <trkpt lat="47.46131" lon="-1.73488">
        <ele>67.067885</ele>
        <time>2023-05-07T11:25:53.102Z</time>
      </trkpt>
      <trkpt lat="47.46136" lon="-1.73474">
        <ele>67.075316</ele>
        <time>2023-05-07T11:25:56.100Z</time>
      </trkpt>
      <trkpt lat="47.46141" lon="-1.73457">
        <ele>67.084194</ele>
        <time>2023-05-07T11:25:59.103Z</time>
      </trkpt>
      <trkpt lat="47.46146" lon="-1.73442">
        <ele>67.092617</ele>
        <time>2023-05-07T11:26:02.110Z</time>
      </trkpt>
      <trkpt lat="47.46151" lon="-1.73423">
        <ele>67.101973</ele>
        <time>2023-05-07T11:26:05.109Z</time>
      </trkpt>
      <trkpt lat="47.46154" lon="-1.73405">
        <ele>67.111042</ele>
        <time>2023-05-07T11:26:08.116Z</time>
      </trkpt>
      <trkpt lat="47.46158" lon="-1.73388">
        <ele>67.119802</ele>
        <time>2023-05-07T11:26:11.113Z</time>
      </trkpt>
      <trkpt lat="47.46161" lon="-1.73372">
        <ele>67.127986</ele>
        <time>2023-05-07T11:26:14.116Z</time>
      </trkpt>
      <trkpt lat="47.46164" lon="-1.73356">
        <ele>67.135831</ele>
        <time>2023-05-07T11:26:17.100Z</time>
      </trkpt>
      <trkpt lat="47.46168" lon="-1.7334">
        <ele>67.144252</ele>
        <time>2023-05-07T11:26:20.111Z</time>
      </trkpt>
      <trkpt lat="47.46171" lon="-1.73323">
        <ele>67.158958</ele>
        <time>2023-05-07T11:26:23.119Z</time>
      </trkpt>
      <trkpt lat="47.46175" lon="-1.73306">
        <ele>67.177116</ele>
        <time>2023-05-07T11:26:26.104Z</time>
      </trkpt>
      <trkpt lat="47.4618" lon="-1.73288">
        <ele>67.195746</ele>
        <time>2023-05-07T11:26:29.098Z</time>
      </trkpt>
      <trkpt lat="47.46184" lon="-1.73271">
        <ele>67.214035</ele>
        <time>2023-05-07T11:26:32.106Z</time>
      </trkpt>
      <trkpt lat="47.46188" lon="-1.73252">
        <ele>67.233073</ele>
        <time>2023-05-07T11:26:35.106Z</time>
      </trkpt>
      <trkpt lat="47.46193" lon="-1.73236">
        <ele>67.250773</ele>
        <time>2023-05-07T11:26:38.110Z</time>
      </trkpt>
      <trkpt lat="47.46197" lon="-1.73218">
        <ele>67.268786</ele>
        <time>2023-05-07T11:26:41.106Z</time>
      </trkpt>
      <trkpt lat="47.46201" lon="-1.732">
        <ele>67.287819</ele>
        <time>2023-05-07T11:26:44.113Z</time>
      </trkpt>
      <trkpt lat="47.46205" lon="-1.73182">
        <ele>67.306581</ele>
        <time>2023-05-07T11:26:47.103Z</time>
      </trkpt>
      <trkpt lat="47.4621" lon="-1.73165">
        <ele>67.324639</ele>
        <time>2023-05-07T11:26:50.111Z</time>
      </trkpt>
      <trkpt lat="47.46215" lon="-1.73148">
        <ele>67.342952</ele>
        <time>2023-05-07T11:26:53.114Z</time>
      </trkpt>
      <trkpt lat="47.4622" lon="-1.73133">
        <ele>67.359513</ele>
        <time>2023-05-07T11:26:56.115Z</time>
      </trkpt>
      <trkpt lat="47.46226" lon="-1.7312">
        <ele>67.375066</ele>
        <time>2023-05-07T11:26:59.114Z</time>
      </trkpt>
      <trkpt lat="47.46232" lon="-1.73106">
        <ele>67.391264</ele>
        <time>2023-05-07T11:27:02.100Z</time>
      </trkpt>
      <trkpt lat="47.46239" lon="-1.73092">
        <ele>67.402937</ele>
        <time>2023-05-07T11:27:05.114Z</time>
      </trkpt>
      <trkpt lat="47.46245" lon="-1.73077">
        <ele>67.273141</ele>
        <time>2023-05-07T11:27:08.111Z</time>
      </trkpt>
      <trkpt lat="47.46252" lon="-1.73062">
        <ele>67.137</ele>
        <time>2023-05-07T11:27:11.117Z</time>
      </trkpt>
      <trkpt lat="47.46259" lon="-1.73045">
        <ele>66.994115</ele>
        <time>2023-05-07T11:27:14.116Z</time>
      </trkpt>
      <trkpt lat="47.46266" lon="-1.73029">
        <ele>66.850611</ele>
        <time>2023-05-07T11:27:17.096Z</time>
      </trkpt>
      <trkpt lat="47.46272" lon="-1.73013">
        <ele>66.715663</ele>
        <time>2023-05-07T11:27:20.102Z</time>
      </trkpt>
      <trkpt lat="47.46278" lon="-1.72998">
        <ele>66.592503</ele>
        <time>2023-05-07T11:27:23.113Z</time>
      </trkpt>
      <trkpt lat="47.46284" lon="-1.72983">
        <ele>66.465338</ele>
        <time>2023-05-07T11:27:26.121Z</time>
      </trkpt>
      <trkpt lat="47.4629" lon="-1.72968">
        <ele>66.335436</ele>
        <time>2023-05-07T11:27:29.112Z</time>
      </trkpt>
      <trkpt lat="47.46295" lon="-1.72953">
        <ele>66.210728</ele>
        <time>2023-05-07T11:27:32.106Z</time>
      </trkpt>
      <trkpt lat="47.46302" lon="-1.72939">
        <ele>66.080694</ele>
        <time>2023-05-07T11:27:35.107Z</time>
      </trkpt>
      <trkpt lat="47.46308" lon="-1.72924">
        <ele>65.954161</ele>
        <time>2023-05-07T11:27:38.104Z</time>
      </trkpt>
      <trkpt lat="47.46314" lon="-1.72908">
        <ele>65.818435</ele>
        <time>2023-05-07T11:27:41.115Z</time>
      </trkpt>
      <trkpt lat="47.46322" lon="-1.72894">
        <ele>65.683818</ele>
        <time>2023-05-07T11:27:44.107Z</time>
      </trkpt>
      <trkpt lat="47.46328" lon="-1.72879">
        <ele>65.556576</ele>
        <time>2023-05-07T11:27:47.111Z</time>
      </trkpt>
      <trkpt lat="47.46334" lon="-1.72864">
        <ele>65.460047</ele>
        <time>2023-05-07T11:27:50.112Z</time>
      </trkpt>
      <trkpt lat="47.4634" lon="-1.7285">
        <ele>65.557642</ele>
        <time>2023-05-07T11:27:53.107Z</time>
      </trkpt>
      <trkpt lat="47.46346" lon="-1.72835">
        <ele>65.662227</ele>
        <time>2023-05-07T11:27:56.107Z</time>
      </trkpt>
      <trkpt lat="47.46352" lon="-1.7282">
        <ele>65.764294</ele>
        <time>2023-05-07T11:27:59.113Z</time>
      </trkpt>
      <trkpt lat="47.46358" lon="-1.72805">
        <ele>65.866566</ele>
        <time>2023-05-07T11:28:02.097Z</time>
      </trkpt>
      <trkpt lat="47.46365" lon="-1.7279">
        <ele>65.970499</ele>
        <time>2023-05-07T11:28:05.103Z</time>
      </trkpt>
      <trkpt lat="47.46372" lon="-1.72777">
        <ele>66.067856</ele>
        <time>2023-05-07T11:28:08.109Z</time>
      </trkpt>
      <trkpt lat="47.46379" lon="-1.72765">
        <ele>66.161058</ele>
        <time>2023-05-07T11:28:11.108Z</time>
      </trkpt>
      <trkpt lat="47.46386" lon="-1.72752">
        <ele>66.260081</ele>
        <time>2023-05-07T11:28:14.104Z</time>
      </trkpt>
      <trkpt lat="47.46393" lon="-1.72741">
        <ele>66.349026</ele>
        <time>2023-05-07T11:28:17.105Z</time>
      </trkpt>
      <trkpt lat="47.46401" lon="-1.72729">
        <ele>66.445067</ele>
        <time>2023-05-07T11:28:20.104Z</time>
      </trkpt>
      <trkpt lat="47.46407" lon="-1.72716">
        <ele>66.542774</ele>
        <time>2023-05-07T11:28:23.098Z</time>
      </trkpt>
      <trkpt lat="47.46415" lon="-1.72703">
        <ele>66.640846</ele>
        <time>2023-05-07T11:28:26.096Z</time>
      </trkpt>
      <trkpt lat="47.46422" lon="-1.7269">
        <ele>66.740097</ele>
        <time>2023-05-07T11:28:29.113Z</time>
      </trkpt>
      <trkpt lat="47.4643" lon="-1.72677">
        <ele>66.84113</ele>
        <time>2023-05-07T11:28:32.095Z</time>
      </trkpt>
      <trkpt lat="47.46438" lon="-1.72665">
        <ele>66.939881</ele>
        <time>2023-05-07T11:28:35.101Z</time>
      </trkpt>
      <trkpt lat="47.46447" lon="-1.72652">
        <ele>66.961045</ele>
        <time>2023-05-07T11:28:38.103Z</time>
      </trkpt>
      <trkpt lat="47.46455" lon="-1.7264">
        <ele>66.868675</ele>
        <time>2023-05-07T11:28:41.097Z</time>
      </trkpt>
      <trkpt lat="47.46462" lon="-1.72631">
        <ele>66.791499</ele>
        <time>2023-05-07T11:28:44.096Z</time>
      </trkpt>
      <trkpt lat="47.4647" lon="-1.72622">
        <ele>66.708262</ele>
        <time>2023-05-07T11:28:47.097Z</time>
      </trkpt>
      <trkpt lat="47.46478" lon="-1.72614">
        <ele>66.626674</ele>
        <time>2023-05-07T11:28:50.103Z</time>
      </trkpt>
      <trkpt lat="47.46488" lon="-1.72608">
        <ele>66.542373</ele>
        <time>2023-05-07T11:28:53.118Z</time>
      </trkpt>
      <trkpt lat="47.46497" lon="-1.72601">
        <ele>66.452563</ele>
        <time>2023-05-07T11:28:56.112Z</time>
      </trkpt>
      <trkpt lat="47.46508" lon="-1.72592">
        <ele>66.350621</ele>
        <time>2023-05-07T11:28:59.102Z</time>
      </trkpt>
      <trkpt lat="47.4652" lon="-1.72586">
        <ele>66.247672</ele>
        <time>2023-05-07T11:29:02.096Z</time>
      </trkpt>
      <trkpt lat="47.46531" lon="-1.72581">
        <ele>66.146245</ele>
        <time>2023-05-07T11:29:05.101Z</time>
      </trkpt>
      <trkpt lat="47.46543" lon="-1.72576">
        <ele>66.042074</ele>
        <time>2023-05-07T11:29:08.114Z</time>
      </trkpt>
      <trkpt lat="47.46553" lon="-1.72572">
        <ele>65.95783</ele>
        <time>2023-05-07T11:29:11.102Z</time>
      </trkpt>
      <trkpt lat="47.46564" lon="-1.72569">
        <ele>65.868905</ele>
        <time>2023-05-07T11:29:14.094Z</time>
      </trkpt>
      <trkpt lat="47.46576" lon="-1.72565">
        <ele>65.764995</ele>
        <time>2023-05-07T11:29:17.103Z</time>
      </trkpt>
      <trkpt lat="47.46588" lon="-1.72561">
        <ele>65.657884</ele>
        <time>2023-05-07T11:29:20.113Z</time>
      </trkpt>
      <trkpt lat="47.466" lon="-1.72557">
        <ele>65.557102</ele>
        <time>2023-05-07T11:29:23.098Z</time>
      </trkpt>
      <trkpt lat="47.46612" lon="-1.72553">
        <ele>65.472161</ele>
        <time>2023-05-07T11:29:26.113Z</time>
      </trkpt>
      <trkpt lat="47.46624" lon="-1.72548">
        <ele>65.40325</ele>
        <time>2023-05-07T11:29:29.106Z</time>
      </trkpt>
      <trkpt lat="47.46636" lon="-1.72543">
        <ele>65.336271</ele>
        <time>2023-05-07T11:29:32.112Z</time>
      </trkpt>
      <trkpt lat="47.46647" lon="-1.72537">
        <ele>65.269966</ele>
        <time>2023-05-07T11:29:35.106Z</time>
      </trkpt>
      <trkpt lat="47.46659" lon="-1.7253">
        <ele>65.201908</ele>
        <time>2023-05-07T11:29:38.109Z</time>
      </trkpt>
      <trkpt lat="47.4667" lon="-1.72524">
        <ele>65.133144</ele>
        <time>2023-05-07T11:29:41.112Z</time>
      </trkpt>
      <trkpt lat="47.46681" lon="-1.72515">
        <ele>65.064663</ele>
        <time>2023-05-07T11:29:44.126Z</time>
      </trkpt>
      <trkpt lat="47.46692" lon="-1.72508">
        <ele>64.999957</ele>
        <time>2023-05-07T11:29:47.115Z</time>
      </trkpt>
      <trkpt lat="47.46702" lon="-1.72501">
        <ele>64.936813</ele>
        <time>2023-05-07T11:29:50.101Z</time>
      </trkpt>
      <trkpt lat="47.46713" lon="-1.72494">
        <ele>64.872498</ele>
        <time>2023-05-07T11:29:53.101Z</time>
      </trkpt>
      <trkpt lat="47.46724" lon="-1.72487">
        <ele>64.805607</ele>
        <time>2023-05-07T11:29:56.097Z</time>
      </trkpt>
      <trkpt lat="47.46735" lon="-1.72478">
        <ele>64.73252</ele>
        <time>2023-05-07T11:29:59.101Z</time>
      </trkpt>
      <trkpt lat="47.46747" lon="-1.7247">
        <ele>64.662581</ele>
        <time>2023-05-07T11:30:02.106Z</time>
      </trkpt>
      <trkpt lat="47.46757" lon="-1.72463">
        <ele>64.599769</ele>
        <time>2023-05-07T11:30:05.098Z</time>
      </trkpt>
      <trkpt lat="47.46768" lon="-1.72457">
        <ele>64.534848</ele>
        <time>2023-05-07T11:30:08.101Z</time>
      </trkpt>
      <trkpt lat="47.4678" lon="-1.7245">
        <ele>64.64732</ele>
        <time>2023-05-07T11:30:11.104Z</time>
      </trkpt>
      <trkpt lat="47.46791" lon="-1.72442">
        <ele>64.841145</ele>
        <time>2023-05-07T11:30:14.118Z</time>
      </trkpt>
      <trkpt lat="47.46801" lon="-1.72434">
        <ele>65.02438</ele>
        <time>2023-05-07T11:30:17.121Z</time>
      </trkpt>
      <trkpt lat="47.46812" lon="-1.72426">
        <ele>65.212606</ele>
        <time>2023-05-07T11:30:20.106Z</time>
      </trkpt>
      <trkpt lat="47.46823" lon="-1.72416">
        <ele>65.414062</ele>
        <time>2023-05-07T11:30:23.107Z</time>
      </trkpt>
      <trkpt lat="47.46835" lon="-1.72408">
        <ele>65.616724</ele>
        <time>2023-05-07T11:30:26.108Z</time>
      </trkpt>
      <trkpt lat="47.46846" lon="-1.72401">
        <ele>65.804301</ele>
        <time>2023-05-07T11:30:29.111Z</time>
      </trkpt>
      <trkpt lat="47.46856" lon="-1.72394">
        <ele>65.979893</ele>
        <time>2023-05-07T11:30:32.102Z</time>
      </trkpt>
      <trkpt lat="47.46866" lon="-1.72384">
        <ele>66.156566</ele>
        <time>2023-05-07T11:30:35.103Z</time>
      </trkpt>
      <trkpt lat="47.46874" lon="-1.72375">
        <ele>66.318183</ele>
        <time>2023-05-07T11:30:38.097Z</time>
      </trkpt>
      <trkpt lat="47.46883" lon="-1.72363">
        <ele>66.502978</ele>
        <time>2023-05-07T11:30:41.106Z</time>
      </trkpt>
      <trkpt lat="47.46891" lon="-1.72351">
        <ele>66.687157</ele>
        <time>2023-05-07T11:30:44.098Z</time>
      </trkpt>
      <trkpt lat="47.469" lon="-1.72338">
        <ele>66.879149</ele>
        <time>2023-05-07T11:30:47.111Z</time>
      </trkpt>
      <trkpt lat="47.46908" lon="-1.72326">
        <ele>67.054051</ele>
        <time>2023-05-07T11:30:50.100Z</time>
      </trkpt>
      <trkpt lat="47.46915" lon="-1.72315">
        <ele>67.220189</ele>
        <time>2023-05-07T11:30:53.104Z</time>
      </trkpt>
      <trkpt lat="47.46922" lon="-1.72303">
        <ele>67.341563</ele>
        <time>2023-05-07T11:30:56.105Z</time>
      </trkpt>
      <trkpt lat="47.46929" lon="-1.7229">
        <ele>67.401689</ele>
        <time>2023-05-07T11:30:59.103Z</time>
      </trkpt>
      <trkpt lat="47.46935" lon="-1.72276">
        <ele>67.466647</ele>
        <time>2023-05-07T11:31:02.108Z</time>
      </trkpt>
      <trkpt lat="47.46942" lon="-1.72263">
        <ele>67.529406</ele>
        <time>2023-05-07T11:31:05.101Z</time>
      </trkpt>
      <trkpt lat="47.46948" lon="-1.72248">
        <ele>67.59689</ele>
        <time>2023-05-07T11:31:08.093Z</time>
      </trkpt>
      <trkpt lat="47.46955" lon="-1.72233">
        <ele>67.665612</ele>
        <time>2023-05-07T11:31:11.103Z</time>
      </trkpt>
      <trkpt lat="47.46962" lon="-1.72216">
        <ele>67.737291</ele>
        <time>2023-05-07T11:31:14.102Z</time>
      </trkpt>
      <trkpt lat="47.46968" lon="-1.72201">
        <ele>67.804856</ele>
        <time>2023-05-07T11:31:17.104Z</time>
      </trkpt>
      <trkpt lat="47.46974" lon="-1.72187">
        <ele>67.868883</ele>
        <time>2023-05-07T11:31:20.107Z</time>
      </trkpt>
      <trkpt lat="47.4698" lon="-1.72173">
        <ele>67.931969</ele>
        <time>2023-05-07T11:31:23.097Z</time>
      </trkpt>
      <trkpt lat="47.46986" lon="-1.72156">
        <ele>68.002809</ele>
        <time>2023-05-07T11:31:26.113Z</time>
      </trkpt>
      <trkpt lat="47.46991" lon="-1.72144">
        <ele>68.054849</ele>
        <time>2023-05-07T11:31:28.099Z</time>
      </trkpt>
      <trkpt lat="47.46995" lon="-1.72131">
        <ele>68.111024</ele>
        <time>2023-05-07T11:31:30.098Z</time>
      </trkpt>
      <trkpt lat="47.46999" lon="-1.72116">
        <ele>68.172868</ele>
        <time>2023-05-07T11:31:32.111Z</time>
      </trkpt>
      <trkpt lat="47.47003" lon="-1.72102">
        <ele>68.228003</ele>
        <time>2023-05-07T11:31:34.115Z</time>
      </trkpt>
      <trkpt lat="47.47008" lon="-1.72091">
        <ele>68.281685</ele>
        <time>2023-05-07T11:31:37.107Z</time>
      </trkpt>
      <trkpt lat="47.47013" lon="-1.72078">
        <ele>68.336575</ele>
        <time>2023-05-07T11:31:41.102Z</time>
      </trkpt>
      <trkpt lat="47.47018" lon="-1.72067">
        <ele>68.391271</ele>
        <time>2023-05-07T11:31:44.115Z</time>
      </trkpt>
      <trkpt lat="47.47025" lon="-1.7205">
        <ele>68.470513</ele>
        <time>2023-05-07T11:31:47.108Z</time>
      </trkpt>
      <trkpt lat="47.4703" lon="-1.72038">
        <ele>68.527506</ele>
        <time>2023-05-07T11:31:49.112Z</time>
      </trkpt>
      <trkpt lat="47.47035" lon="-1.72026">
        <ele>68.583713</ele>
        <time>2023-05-07T11:31:51.104Z</time>
      </trkpt>
      <trkpt lat="47.47039" lon="-1.72013">
        <ele>68.639911</ele>
        <time>2023-05-07T11:31:53.095Z</time>
      </trkpt>
      <trkpt lat="47.47041" lon="-1.72">
        <ele>68.695604</ele>
        <time>2023-05-07T11:31:56.094Z</time>
      </trkpt>
      <trkpt lat="47.47045" lon="-1.71977">
        <ele>68.791829</ele>
        <time>2023-05-07T11:32:48.107Z</time>
      </trkpt>
      <trkpt lat="47.47047" lon="-1.71962">
        <ele>68.850213</ele>
        <time>2023-05-07T11:32:52.111Z</time>
      </trkpt>
      <trkpt lat="47.47049" lon="-1.71945">
        <ele>68.919955</ele>
        <time>2023-05-07T11:32:56.108Z</time>
      </trkpt>
      <trkpt lat="47.4705" lon="-1.71932">
        <ele>68.97595</ele>
        <time>2023-05-07T11:32:59.112Z</time>
      </trkpt>
      <trkpt lat="47.47051" lon="-1.71916">
        <ele>69.037324</ele>
        <time>2023-05-07T11:33:02.107Z</time>
      </trkpt>
      <trkpt lat="47.47052" lon="-1.719">
        <ele>69.103048</ele>
        <time>2023-05-07T11:33:05.112Z</time>
      </trkpt>
      <trkpt lat="47.47053" lon="-1.71882">
        <ele>69.176481</ele>
        <time>2023-05-07T11:33:08.101Z</time>
      </trkpt>
      <trkpt lat="47.47054" lon="-1.71862">
        <ele>69.255831</ele>
        <time>2023-05-07T11:33:11.113Z</time>
      </trkpt>
      <trkpt lat="47.47054" lon="-1.71843">
        <ele>69.333804</ele>
        <time>2023-05-07T11:33:14.092Z</time>
      </trkpt>
      <trkpt lat="47.47054" lon="-1.71824">
        <ele>69.345435</ele>
        <time>2023-05-07T11:33:17.113Z</time>
      </trkpt>
      <trkpt lat="47.47054" lon="-1.71804">
        <ele>69.141196</ele>
        <time>2023-05-07T11:33:20.116Z</time>
      </trkpt>
      <trkpt lat="47.47054" lon="-1.71784">
        <ele>68.94109</ele>
        <time>2023-05-07T11:33:23.104Z</time>
      </trkpt>
      <trkpt lat="47.47054" lon="-1.71766">
        <ele>68.756298</ele>
        <time>2023-05-07T11:33:26.111Z</time>
      </trkpt>
      <trkpt lat="47.47053" lon="-1.71749">
        <ele>68.57735</ele>
        <time>2023-05-07T11:33:29.100Z</time>
      </trkpt>
      <trkpt lat="47.47052" lon="-1.71732">
        <ele>68.406853</ele>
        <time>2023-05-07T11:33:32.111Z</time>
      </trkpt>
      <trkpt lat="47.47052" lon="-1.71715">
        <ele>68.226977</ele>
        <time>2023-05-07T11:33:35.114Z</time>
      </trkpt>
      <trkpt lat="47.47051" lon="-1.71697">
        <ele>68.043004</ele>
        <time>2023-05-07T11:33:38.108Z</time>
      </trkpt>
      <trkpt lat="47.4705" lon="-1.71679">
        <ele>67.857063</ele>
        <time>2023-05-07T11:33:41.110Z</time>
      </trkpt>
      <trkpt lat="47.4705" lon="-1.71661">
        <ele>67.672314</ele>
        <time>2023-05-07T11:33:44.117Z</time>
      </trkpt>
      <trkpt lat="47.47049" lon="-1.71643">
        <ele>67.488247</ele>
        <time>2023-05-07T11:33:47.124Z</time>
      </trkpt>
      <trkpt lat="47.47048" lon="-1.71626">
        <ele>67.319288</ele>
        <time>2023-05-07T11:33:50.106Z</time>
      </trkpt>
      <trkpt lat="47.47048" lon="-1.7161">
        <ele>67.152011</ele>
        <time>2023-05-07T11:33:53.111Z</time>
      </trkpt>
      <trkpt lat="47.47049" lon="-1.71592">
        <ele>66.971111</ele>
        <time>2023-05-07T11:33:56.116Z</time>
      </trkpt>
      <trkpt lat="47.4705" lon="-1.71576">
        <ele>66.805573</ele>
        <time>2023-05-07T11:33:59.103Z</time>
      </trkpt>
      <trkpt lat="47.4705" lon="-1.71561">
        <ele>66.668065</ele>
        <time>2023-05-07T11:34:02.110Z</time>
      </trkpt>
      <trkpt lat="47.4705" lon="-1.71547">
        <ele>66.720257</ele>
        <time>2023-05-07T11:34:05.108Z</time>
      </trkpt>
      <trkpt lat="47.4705" lon="-1.71529">
        <ele>66.785482</ele>
        <time>2023-05-07T11:34:09.106Z</time>
      </trkpt>
      <trkpt lat="47.47049" lon="-1.71515">
        <ele>66.838852</ele>
        <time>2023-05-07T11:34:12.111Z</time>
      </trkpt>
      <trkpt lat="47.47049" lon="-1.71499">
        <ele>66.897006</ele>
        <time>2023-05-07T11:34:15.103Z</time>
      </trkpt>
      <trkpt lat="47.47049" lon="-1.71483">
        <ele>66.958544</ele>
        <time>2023-05-07T11:34:18.110Z</time>
      </trkpt>
      <trkpt lat="47.47049" lon="-1.71466">
        <ele>67.021927</ele>
        <time>2023-05-07T11:34:21.108Z</time>
      </trkpt>
      <trkpt lat="47.47049" lon="-1.71448">
        <ele>67.089761</ele>
        <time>2023-05-07T11:34:24.105Z</time>
      </trkpt>
      <trkpt lat="47.47048" lon="-1.7143">
        <ele>67.155741</ele>
        <time>2023-05-07T11:34:27.108Z</time>
      </trkpt>
      <trkpt lat="47.47049" lon="-1.71413">
        <ele>67.220603</ele>
        <time>2023-05-07T11:34:30.094Z</time>
      </trkpt>
      <trkpt lat="47.47048" lon="-1.71395">
        <ele>67.287328</ele>
        <time>2023-05-07T11:34:33.110Z</time>
      </trkpt>
      <trkpt lat="47.47048" lon="-1.71377">
        <ele>67.355165</ele>
        <time>2023-05-07T11:34:36.108Z</time>
      </trkpt>
      <trkpt lat="47.47048" lon="-1.71358">
        <ele>67.424897</ele>
        <time>2023-05-07T11:34:39.098Z</time>
      </trkpt>
      <trkpt lat="47.47048" lon="-1.71339">
        <ele>67.496832</ele>
        <time>2023-05-07T11:34:42.107Z</time>
      </trkpt>
      <trkpt lat="47.47048" lon="-1.7132">
        <ele>67.567294</ele>
        <time>2023-05-07T11:34:45.111Z</time>
      </trkpt>
      <trkpt lat="47.47048" lon="-1.71301">
        <ele>67.635501</ele>
        <time>2023-05-07T11:34:48.112Z</time>
      </trkpt>
      <trkpt lat="47.47047" lon="-1.71284">
        <ele>67.643269</ele>
        <time>2023-05-07T11:34:51.112Z</time>
      </trkpt>
      <trkpt lat="47.47047" lon="-1.71266">
        <ele>67.627289</ele>
        <time>2023-05-07T11:34:54.105Z</time>
      </trkpt>
      <trkpt lat="47.47048" lon="-1.71246">
        <ele>67.610516</ele>
        <time>2023-05-07T11:34:57.116Z</time>
      </trkpt>
      <trkpt lat="47.47048" lon="-1.71227">
        <ele>67.594101</ele>
        <time>2023-05-07T11:35:00.103Z</time>
      </trkpt>
      <trkpt lat="47.47048" lon="-1.71209">
        <ele>67.577775</ele>
        <time>2023-05-07T11:35:03.114Z</time>
      </trkpt>
      <trkpt lat="47.47048" lon="-1.7119">
        <ele>67.562056</ele>
        <time>2023-05-07T11:35:06.108Z</time>
      </trkpt>
      <trkpt lat="47.47048" lon="-1.71174">
        <ele>67.547464</ele>
        <time>2023-05-07T11:35:09.103Z</time>
      </trkpt>
      <trkpt lat="47.47048" lon="-1.71157">
        <ele>67.532873</ele>
        <time>2023-05-07T11:35:12.111Z</time>
      </trkpt>
      <trkpt lat="47.47049" lon="-1.71139">
        <ele>67.516978</ele>
        <time>2023-05-07T11:35:15.106Z</time>
      </trkpt>
      <trkpt lat="47.47049" lon="-1.7112">
        <ele>67.500731</ele>
        <time>2023-05-07T11:35:18.111Z</time>
      </trkpt>
      <trkpt lat="47.47049" lon="-1.71102">
        <ele>67.485097</ele>
        <time>2023-05-07T11:35:21.139Z</time>
      </trkpt>
      <trkpt lat="47.47049" lon="-1.71084">
        <ele>67.469986</ele>
        <time>2023-05-07T11:35:24.104Z</time>
      </trkpt>
      <trkpt lat="47.47049" lon="-1.71066">
        <ele>67.453655</ele>
        <time>2023-05-07T11:35:27.121Z</time>
      </trkpt>
      <trkpt lat="47.47049" lon="-1.71047">
        <ele>67.437242</ele>
        <time>2023-05-07T11:35:30.107Z</time>
      </trkpt>
      <trkpt lat="47.47048" lon="-1.71028">
        <ele>67.42476</ele>
        <time>2023-05-07T11:35:33.114Z</time>
      </trkpt>
      <trkpt lat="47.47047" lon="-1.7101">
        <ele>67.439071</ele>
        <time>2023-05-07T11:35:36.107Z</time>
      </trkpt>
      <trkpt lat="47.47047" lon="-1.70993">
        <ele>67.45273</ele>
        <time>2023-05-07T11:35:39.106Z</time>
      </trkpt>
      <trkpt lat="47.47046" lon="-1.70978">
        <ele>67.465444</ele>
        <time>2023-05-07T11:35:42.106Z</time>
      </trkpt>
      <trkpt lat="47.47046" lon="-1.70961">
        <ele>67.478373</ele>
        <time>2023-05-07T11:35:45.115Z</time>
      </trkpt>
      <trkpt lat="47.47046" lon="-1.70944">
        <ele>67.492108</ele>
        <time>2023-05-07T11:35:48.110Z</time>
      </trkpt>
      <trkpt lat="47.47046" lon="-1.70927">
        <ele>67.506401</ele>
        <time>2023-05-07T11:35:51.110Z</time>
      </trkpt>
      <trkpt lat="47.47046" lon="-1.7091">
        <ele>67.5199</ele>
        <time>2023-05-07T11:35:54.105Z</time>
      </trkpt>
      <trkpt lat="47.47047" lon="-1.70893">
        <ele>67.533149</ele>
        <time>2023-05-07T11:35:57.116Z</time>
      </trkpt>
      <trkpt lat="47.47046" lon="-1.70877">
        <ele>67.546319</ele>
        <time>2023-05-07T11:36:00.100Z</time>
      </trkpt>
      <trkpt lat="47.47047" lon="-1.7086">
        <ele>67.560215</ele>
        <time>2023-05-07T11:36:03.112Z</time>
      </trkpt>
      <trkpt lat="47.47046" lon="-1.70842">
        <ele>67.574285</ele>
        <time>2023-05-07T11:36:06.111Z</time>
      </trkpt>
      <trkpt lat="47.47046" lon="-1.70825">
        <ele>67.588097</ele>
        <time>2023-05-07T11:36:09.102Z</time>
      </trkpt>
      <trkpt lat="47.47046" lon="-1.70808">
        <ele>67.601268</ele>
        <time>2023-05-07T11:36:12.114Z</time>
      </trkpt>
      <trkpt lat="47.47045" lon="-1.70792">
        <ele>67.614143</ele>
        <time>2023-05-07T11:36:15.108Z</time>
      </trkpt>
      <trkpt lat="47.47045" lon="-1.70777">
        <ele>67.626589</ele>
        <time>2023-05-07T11:36:18.112Z</time>
      </trkpt>
      <trkpt lat="47.47046" lon="-1.70761">
        <ele>67.622569</ele>
        <time>2023-05-07T11:36:21.113Z</time>
      </trkpt>
      <trkpt lat="47.47045" lon="-1.70746">
        <ele>67.55182</ele>
        <time>2023-05-07T11:36:24.104Z</time>
      </trkpt>
      <trkpt lat="47.47046" lon="-1.7073">
        <ele>67.480159</ele>
        <time>2023-05-07T11:36:27.116Z</time>
      </trkpt>
      <trkpt lat="47.47046" lon="-1.70714">
        <ele>67.408044</ele>
        <time>2023-05-07T11:36:30.112Z</time>
      </trkpt>
      <trkpt lat="47.47046" lon="-1.70698">
        <ele>67.333191</ele>
        <time>2023-05-07T11:36:33.113Z</time>
      </trkpt>
      <trkpt lat="47.47046" lon="-1.70681">
        <ele>67.255597</ele>
        <time>2023-05-07T11:36:36.112Z</time>
      </trkpt>
      <trkpt lat="47.47045" lon="-1.70663">
        <ele>67.172353</ele>
        <time>2023-05-07T11:36:39.104Z</time>
      </trkpt>
      <trkpt lat="47.47044" lon="-1.70646">
        <ele>67.094861</ele>
        <time>2023-05-07T11:36:42.109Z</time>
      </trkpt>
      <trkpt lat="47.47042" lon="-1.70627">
        <ele>67.009576</ele>
        <time>2023-05-07T11:36:45.110Z</time>
      </trkpt>
      <trkpt lat="47.4704" lon="-1.70611">
        <ele>66.932231</ele>
        <time>2023-05-07T11:36:48.111Z</time>
      </trkpt>
      <trkpt lat="47.47038" lon="-1.70595">
        <ele>66.859311</ele>
        <time>2023-05-07T11:36:51.108Z</time>
      </trkpt>
      <trkpt lat="47.47037" lon="-1.7058">
        <ele>66.790227</ele>
        <time>2023-05-07T11:36:54.103Z</time>
      </trkpt>
      <trkpt lat="47.47034" lon="-1.70565">
        <ele>66.721647</ele>
        <time>2023-05-07T11:36:57.112Z</time>
      </trkpt>
      <trkpt lat="47.47032" lon="-1.7055">
        <ele>66.648772</ele>
        <time>2023-05-07T11:37:00.114Z</time>
      </trkpt>
      <trkpt lat="47.47029" lon="-1.7053">
        <ele>66.558815</ele>
        <time>2023-05-07T11:37:03.115Z</time>
      </trkpt>
      <trkpt lat="47.47027" lon="-1.70512">
        <ele>66.471985</ele>
        <time>2023-05-07T11:37:06.105Z</time>
      </trkpt>
      <trkpt lat="47.47024" lon="-1.70496">
        <ele>66.416422</ele>
        <time>2023-05-07T11:37:09.103Z</time>
      </trkpt>
      <trkpt lat="47.47021" lon="-1.70479">
        <ele>66.399015</ele>
        <time>2023-05-07T11:37:12.108Z</time>
      </trkpt>
      <trkpt lat="47.47018" lon="-1.70461">
        <ele>66.38122</ele>
        <time>2023-05-07T11:37:15.111Z</time>
      </trkpt>
      <trkpt lat="47.47014" lon="-1.70444">
        <ele>66.362766</ele>
        <time>2023-05-07T11:37:18.109Z</time>
      </trkpt>
      <trkpt lat="47.4701" lon="-1.70427">
        <ele>66.344652</ele>
        <time>2023-05-07T11:37:21.111Z</time>
      </trkpt>
      <trkpt lat="47.47006" lon="-1.7041">
        <ele>66.326665</ele>
        <time>2023-05-07T11:37:24.105Z</time>
      </trkpt>
      <trkpt lat="47.47001" lon="-1.70393">
        <ele>66.308438</ele>
        <time>2023-05-07T11:37:27.110Z</time>
      </trkpt>
      <trkpt lat="47.46997" lon="-1.70377">
        <ele>66.291874</ele>
        <time>2023-05-07T11:37:30.111Z</time>
      </trkpt>
      <trkpt lat="47.46993" lon="-1.70361">
        <ele>66.274467</ele>
        <time>2023-05-07T11:37:33.108Z</time>
      </trkpt>
      <trkpt lat="47.46989" lon="-1.70345">
        <ele>66.256906</ele>
        <time>2023-05-07T11:37:36.107Z</time>
      </trkpt>
      <trkpt lat="47.46984" lon="-1.70328">
        <ele>66.238519</ele>
        <time>2023-05-07T11:37:39.102Z</time>
      </trkpt>
      <trkpt lat="47.46979" lon="-1.70311">
        <ele>66.220494</ele>
        <time>2023-05-07T11:37:42.105Z</time>
      </trkpt>
      <trkpt lat="47.46975" lon="-1.70294">
        <ele>66.202342</ele>
        <time>2023-05-07T11:37:45.112Z</time>
      </trkpt>
      <trkpt lat="47.4697" lon="-1.70278">
        <ele>66.184289</ele>
        <time>2023-05-07T11:37:48.107Z</time>
      </trkpt>
      <trkpt lat="47.46964" lon="-1.70262">
        <ele>66.165829</ele>
        <time>2023-05-07T11:37:51.113Z</time>
      </trkpt>
      <trkpt lat="47.46958" lon="-1.70246">
        <ele>66.221581</ele>
        <time>2023-05-07T11:37:54.112Z</time>
      </trkpt>
      <trkpt lat="47.46954" lon="-1.70231">
        <ele>66.350904</ele>
        <time>2023-05-07T11:37:57.107Z</time>
      </trkpt>
      <trkpt lat="47.46951" lon="-1.70217">
        <ele>66.472759</ele>
        <time>2023-05-07T11:38:00.108Z</time>
      </trkpt>
      <trkpt lat="47.46949" lon="-1.70202">
        <ele>66.595687</ele>
        <time>2023-05-07T11:38:03.110Z</time>
      </trkpt>
      <trkpt lat="47.46947" lon="-1.70186">
        <ele>66.721904</ele>
        <time>2023-05-07T11:38:06.114Z</time>
      </trkpt>
      <trkpt lat="47.46947" lon="-1.7017">
        <ele>66.851679</ele>
        <time>2023-05-07T11:38:09.100Z</time>
      </trkpt>
      <trkpt lat="47.46947" lon="-1.70154">
        <ele>66.985147</ele>
        <time>2023-05-07T11:38:12.111Z</time>
      </trkpt>
      <trkpt lat="47.46948" lon="-1.70137">
        <ele>67.116157</ele>
        <time>2023-05-07T11:38:15.108Z</time>
      </trkpt>
      <trkpt lat="47.4695" lon="-1.70122">
        <ele>67.245297</ele>
        <time>2023-05-07T11:38:18.108Z</time>
      </trkpt>
      <trkpt lat="47.46952" lon="-1.70106">
        <ele>67.369782</ele>
        <time>2023-05-07T11:38:21.109Z</time>
      </trkpt>
      <trkpt lat="47.46955" lon="-1.70091">
        <ele>67.502811</ele>
        <time>2023-05-07T11:38:24.099Z</time>
      </trkpt>
      <trkpt lat="47.46959" lon="-1.70074">
        <ele>67.641426</ele>
        <time>2023-05-07T11:38:27.107Z</time>
      </trkpt>
      <trkpt lat="47.46963" lon="-1.70058">
        <ele>67.775483</ele>
        <time>2023-05-07T11:38:30.111Z</time>
      </trkpt>
      <trkpt lat="47.46967" lon="-1.70044">
        <ele>67.904518</ele>
        <time>2023-05-07T11:38:33.105Z</time>
      </trkpt>
      <trkpt lat="47.46971" lon="-1.70029">
        <ele>68.028927</ele>
        <time>2023-05-07T11:38:36.094Z</time>
      </trkpt>
      <trkpt lat="47.46975" lon="-1.70013">
        <ele>68.167041</ele>
        <time>2023-05-07T11:38:39.112Z</time>
      </trkpt>
      <trkpt lat="47.4698" lon="-1.69998">
        <ele>68.310784</ele>
        <time>2023-05-07T11:38:42.110Z</time>
      </trkpt>
      <trkpt lat="47.46984" lon="-1.69981">
        <ele>68.548835</ele>
        <time>2023-05-07T11:38:45.110Z</time>
      </trkpt>
      <trkpt lat="47.46989" lon="-1.69966">
        <ele>68.781426</ele>
        <time>2023-05-07T11:38:48.124Z</time>
      </trkpt>
      <trkpt lat="47.46993" lon="-1.69949">
        <ele>69.016012</ele>
        <time>2023-05-07T11:38:51.112Z</time>
      </trkpt>
      <trkpt lat="47.46997" lon="-1.69934">
        <ele>69.241591</ele>
        <time>2023-05-07T11:38:54.111Z</time>
      </trkpt>
      <trkpt lat="47.47002" lon="-1.69918">
        <ele>69.472508</ele>
        <time>2023-05-07T11:38:57.108Z</time>
      </trkpt>
      <trkpt lat="47.47006" lon="-1.69902">
        <ele>69.714318</ele>
        <time>2023-05-07T11:39:00.112Z</time>
      </trkpt>
      <trkpt lat="47.47011" lon="-1.69885">
        <ele>69.957763</ele>
        <time>2023-05-07T11:39:03.109Z</time>
      </trkpt>
      <trkpt lat="47.47015" lon="-1.69868">
        <ele>70.201763</ele>
        <time>2023-05-07T11:39:06.109Z</time>
      </trkpt>
      <trkpt lat="47.47017" lon="-1.6985">
        <ele>70.445769</ele>
        <time>2023-05-07T11:39:09.108Z</time>
      </trkpt>
      <trkpt lat="47.4702" lon="-1.69834">
        <ele>70.67627</ele>
        <time>2023-05-07T11:39:12.105Z</time>
      </trkpt>
      <trkpt lat="47.47023" lon="-1.69819">
        <ele>70.88614</ele>
        <time>2023-05-07T11:39:15.102Z</time>
      </trkpt>
      <trkpt lat="47.47026" lon="-1.69805">
        <ele>71.083533</ele>
        <time>2023-05-07T11:39:18.110Z</time>
      </trkpt>
      <trkpt lat="47.47028" lon="-1.69789">
        <ele>71.304693</ele>
        <time>2023-05-07T11:39:21.147Z</time>
      </trkpt>
      <trkpt lat="47.47031" lon="-1.69772">
        <ele>71.529809</ele>
        <time>2023-05-07T11:39:24.107Z</time>
      </trkpt>
      <trkpt lat="47.47033" lon="-1.69758">
        <ele>71.732631</ele>
        <time>2023-05-07T11:39:27.107Z</time>
      </trkpt>
      <trkpt lat="47.47036" lon="-1.69741">
        <ele>71.781226</ele>
        <time>2023-05-07T11:39:31.108Z</time>
      </trkpt>
      <trkpt lat="47.47038" lon="-1.69727">
        <ele>71.501014</ele>
        <time>2023-05-07T11:39:34.109Z</time>
      </trkpt>
      <trkpt lat="47.47041" lon="-1.69712">
        <ele>71.197927</ele>
        <time>2023-05-07T11:39:37.115Z</time>
      </trkpt>
      <trkpt lat="47.47043" lon="-1.69697">
        <ele>70.892811</ele>
        <time>2023-05-07T11:39:40.098Z</time>
      </trkpt>
      <trkpt lat="47.47046" lon="-1.69682">
        <ele>70.586215</ele>
        <time>2023-05-07T11:39:43.117Z</time>
      </trkpt>
      <trkpt lat="47.47049" lon="-1.69667">
        <ele>70.284893</ele>
        <time>2023-05-07T11:39:46.112Z</time>
      </trkpt>
      <trkpt lat="47.47051" lon="-1.69654">
        <ele>70.024383</ele>
        <time>2023-05-07T11:39:49.107Z</time>
      </trkpt>
      <trkpt lat="47.47055" lon="-1.69637">
        <ele>69.675637</ele>
        <time>2023-05-07T11:39:53.102Z</time>
      </trkpt>
      <trkpt lat="47.47057" lon="-1.69621">
        <ele>69.352235</ele>
        <time>2023-05-07T11:39:57.108Z</time>
      </trkpt>
      <trkpt lat="47.47056" lon="-1.69604">
        <ele>69.029136</ele>
        <time>2023-05-07T11:40:01.107Z</time>
      </trkpt>
      <trkpt lat="47.47055" lon="-1.69586">
        <ele>68.677191</ele>
        <time>2023-05-07T11:40:05.097Z</time>
      </trkpt>
      <trkpt lat="47.47054" lon="-1.69571">
        <ele>68.37007</ele>
        <time>2023-05-07T11:40:08.108Z</time>
      </trkpt>
      <trkpt lat="47.47053" lon="-1.69555">
        <ele>68.065408</ele>
        <time>2023-05-07T11:40:11.118Z</time>
      </trkpt>
      <trkpt lat="47.47052" lon="-1.6954">
        <ele>67.767699</ele>
        <time>2023-05-07T11:40:14.109Z</time>
      </trkpt>
      <trkpt lat="47.4705" lon="-1.69524">
        <ele>67.441703</ele>
        <time>2023-05-07T11:40:17.109Z</time>
      </trkpt>
      <trkpt lat="47.47049" lon="-1.69509">
        <ele>67.150601</ele>
        <time>2023-05-07T11:40:20.103Z</time>
      </trkpt>
      <trkpt lat="47.47047" lon="-1.69495">
        <ele>66.869609</ele>
        <time>2023-05-07T11:40:23.107Z</time>
      </trkpt>
      <trkpt lat="47.47046" lon="-1.6948">
        <ele>66.694314</ele>
        <time>2023-05-07T11:40:26.117Z</time>
      </trkpt>
      <trkpt lat="47.47046" lon="-1.69465">
        <ele>66.72911</ele>
        <time>2023-05-07T11:40:29.108Z</time>
      </trkpt>
      <trkpt lat="47.47047" lon="-1.69449">
        <ele>66.763272</ele>
        <time>2023-05-07T11:40:32.108Z</time>
      </trkpt>
      <trkpt lat="47.47047" lon="-1.69436">
        <ele>66.794029</ele>
        <time>2023-05-07T11:40:35.105Z</time>
      </trkpt>
      <trkpt lat="47.47046" lon="-1.69421">
        <ele>66.826662</ele>
        <time>2023-05-07T11:40:38.104Z</time>
      </trkpt>
      <trkpt lat="47.47046" lon="-1.69406">
        <ele>66.861931</ele>
        <time>2023-05-07T11:40:41.121Z</time>
      </trkpt>
      <trkpt lat="47.47045" lon="-1.69388">
        <ele>66.902163</ele>
        <time>2023-05-07T11:40:44.111Z</time>
      </trkpt>
      <trkpt lat="47.47045" lon="-1.69373">
        <ele>66.935164</ele>
        <time>2023-05-07T11:40:47.108Z</time>
      </trkpt>
      <trkpt lat="47.47045" lon="-1.69359">
        <ele>66.965486</ele>
        <time>2023-05-07T11:40:50.107Z</time>
      </trkpt>
      <trkpt lat="47.47045" lon="-1.69346">
        <ele>66.996061</ele>
        <time>2023-05-07T11:40:53.106Z</time>
      </trkpt>
      <trkpt lat="47.47042" lon="-1.6933">
        <ele>67.03351</ele>
        <time>2023-05-07T11:40:57.109Z</time>
      </trkpt>
      <trkpt lat="47.47042" lon="-1.69312">
        <ele>67.072605</ele>
        <time>2023-05-07T11:41:01.111Z</time>
      </trkpt>
      <trkpt lat="47.47042" lon="-1.69298">
        <ele>67.104933</ele>
        <time>2023-05-07T11:41:04.111Z</time>
      </trkpt>
      <trkpt lat="47.47042" lon="-1.69283">
        <ele>67.137709</ele>
        <time>2023-05-07T11:41:07.110Z</time>
      </trkpt>
      <trkpt lat="47.47042" lon="-1.69269">
        <ele>67.169817</ele>
        <time>2023-05-07T11:41:10.100Z</time>
      </trkpt>
      <trkpt lat="47.47042" lon="-1.69254">
        <ele>67.20349</ele>
        <time>2023-05-07T11:41:13.114Z</time>
      </trkpt>
      <trkpt lat="47.47041" lon="-1.6924">
        <ele>67.234757</ele>
        <time>2023-05-07T11:41:16.112Z</time>
      </trkpt>
      <trkpt lat="47.4704" lon="-1.69225">
        <ele>67.26739</ele>
        <time>2023-05-07T11:41:19.109Z</time>
      </trkpt>
      <trkpt lat="47.4704" lon="-1.69212">
        <ele>67.276622</ele>
        <time>2023-05-07T11:41:22.111Z</time>
      </trkpt>
      <trkpt lat="47.4704" lon="-1.69194">
        <ele>67.268877</ele>
        <time>2023-05-07T11:41:26.102Z</time>
      </trkpt>
      <trkpt lat="47.4704" lon="-1.6918">
        <ele>67.26279</ele>
        <time>2023-05-07T11:41:29.108Z</time>
      </trkpt>
      <trkpt lat="47.4704" lon="-1.69163">
        <ele>67.255088</ele>
        <time>2023-05-07T11:41:33.107Z</time>
      </trkpt>
      <trkpt lat="47.4704" lon="-1.69147">
        <ele>67.248173</ele>
        <time>2023-05-07T11:41:37.107Z</time>
      </trkpt>
      <trkpt lat="47.47039" lon="-1.69133">
        <ele>67.241919</ele>
        <time>2023-05-07T11:41:41.104Z</time>
      </trkpt>
      <trkpt lat="47.47038" lon="-1.69119">
        <ele>67.235902</ele>
        <time>2023-05-07T11:41:44.108Z</time>
      </trkpt>
      <trkpt lat="47.47037" lon="-1.69103">
        <ele>67.228763</ele>
        <time>2023-05-07T11:41:47.110Z</time>
      </trkpt>
      <trkpt lat="47.47037" lon="-1.69083">
        <ele>67.220385</ele>
        <time>2023-05-07T11:41:50.101Z</time>
      </trkpt>
      <trkpt lat="47.47036" lon="-1.69069">
        <ele>67.214259</ele>
        <time>2023-05-07T11:41:52.115Z</time>
      </trkpt>
      <trkpt lat="47.47037" lon="-1.6905">
        <ele>67.205767</ele>
        <time>2023-05-07T11:41:55.101Z</time>
      </trkpt>
      <trkpt lat="47.47037" lon="-1.69031">
        <ele>67.197538</ele>
        <time>2023-05-07T11:41:58.110Z</time>
      </trkpt>
      <trkpt lat="47.47036" lon="-1.69013">
        <ele>67.189705</ele>
        <time>2023-05-07T11:42:01.112Z</time>
      </trkpt>
      <trkpt lat="47.47036" lon="-1.68997">
        <ele>67.182729</ele>
        <time>2023-05-07T11:42:04.113Z</time>
      </trkpt>
      <trkpt lat="47.47035" lon="-1.68984">
        <ele>67.176668</ele>
        <time>2023-05-07T11:42:07.112Z</time>
      </trkpt>
      <trkpt lat="47.47035" lon="-1.68966">
        <ele>67.168923</ele>
        <time>2023-05-07T11:42:10.097Z</time>
      </trkpt>
      <trkpt lat="47.47035" lon="-1.68948">
        <ele>67.151345</ele>
        <time>2023-05-07T11:42:13.111Z</time>
      </trkpt>
      <trkpt lat="47.47034" lon="-1.68934">
        <ele>67.122392</ele>
        <time>2023-05-07T11:42:16.107Z</time>
      </trkpt>
      <trkpt lat="47.47035" lon="-1.68918">
        <ele>67.091161</ele>
        <time>2023-05-07T11:42:21.116Z</time>
      </trkpt>
      <trkpt lat="47.47034" lon="-1.68905">
        <ele>67.063509</ele>
        <time>2023-05-07T11:42:32.104Z</time>
      </trkpt>
      <trkpt lat="47.47032" lon="-1.6889">
        <ele>67.033129</ele>
        <time>2023-05-07T11:42:49.106Z</time>
      </trkpt>
      <trkpt lat="47.47031" lon="-1.68877">
        <ele>67.005276</ele>
        <time>2023-05-07T11:42:59.104Z</time>
      </trkpt>
      <trkpt lat="47.47032" lon="-1.68863">
        <ele>66.97792</ele>
        <time>2023-05-07T11:43:16.107Z</time>
      </trkpt>
      <trkpt lat="47.47037" lon="-1.68847">
        <ele>66.941237</ele>
        <time>2023-05-07T11:46:35.094Z</time>
      </trkpt>
      <trkpt lat="47.47034" lon="-1.68833">
        <ele>66.912043</ele>
        <time>2023-05-07T11:47:02.103Z</time>
      </trkpt>
      <trkpt lat="47.47034" lon="-1.68819">
        <ele>66.883368</ele>
        <time>2023-05-07T11:47:06.104Z</time>
      </trkpt>
      <trkpt lat="47.47034" lon="-1.68803">
        <ele>66.850187</ele>
        <time>2023-05-07T11:47:10.096Z</time>
      </trkpt>
      <trkpt lat="47.47031" lon="-1.68779">
        <ele>66.799607</ele>
        <time>2023-05-07T11:47:33.091Z</time>
      </trkpt>
      <trkpt lat="47.47031" lon="-1.68762">
        <ele>66.766235</ele>
        <time>2023-05-07T11:47:37.107Z</time>
      </trkpt>
      <trkpt lat="47.47031" lon="-1.68748">
        <ele>66.736735</ele>
        <time>2023-05-07T11:47:40.100Z</time>
      </trkpt>
      <trkpt lat="47.47031" lon="-1.68732">
        <ele>66.705202</ele>
        <time>2023-05-07T11:47:43.103Z</time>
      </trkpt>
      <trkpt lat="47.47031" lon="-1.68716">
        <ele>66.672664</ele>
        <time>2023-05-07T11:47:46.111Z</time>
      </trkpt>
      <trkpt lat="47.4703" lon="-1.68702">
        <ele>66.64447</ele>
        <time>2023-05-07T11:47:49.100Z</time>
      </trkpt>
      <trkpt lat="47.4703" lon="-1.68685">
        <ele>66.59656</ele>
        <time>2023-05-07T11:47:52.100Z</time>
      </trkpt>
      <trkpt lat="47.4703" lon="-1.68668">
        <ele>66.526133</ele>
        <time>2023-05-07T11:47:55.094Z</time>
      </trkpt>
      <trkpt lat="47.47029" lon="-1.68651">
        <ele>66.452948</ele>
        <time>2023-05-07T11:47:58.101Z</time>
      </trkpt>
      <trkpt lat="47.47027" lon="-1.68638">
        <ele>66.396426</ele>
        <time>2023-05-07T11:48:00.094Z</time>
      </trkpt>
      <trkpt lat="47.47027" lon="-1.68619">
        <ele>66.320158</ele>
        <time>2023-05-07T11:48:03.101Z</time>
      </trkpt>
      <trkpt lat="47.47027" lon="-1.68601">
        <ele>66.243056</ele>
        <time>2023-05-07T11:48:06.106Z</time>
      </trkpt>
      <trkpt lat="47.47026" lon="-1.68587">
        <ele>66.186393</ele>
        <time>2023-05-07T11:48:08.105Z</time>
      </trkpt>
      <trkpt lat="47.47026" lon="-1.68569">
        <ele>66.110549</ele>
        <time>2023-05-07T11:48:11.104Z</time>
      </trkpt>
      <trkpt lat="47.47026" lon="-1.68552">
        <ele>66.040057</ele>
        <time>2023-05-07T11:48:14.118Z</time>
      </trkpt>
      <trkpt lat="47.47027" lon="-1.68536">
        <ele>65.970858</ele>
        <time>2023-05-07T11:48:17.101Z</time>
      </trkpt>
      <trkpt lat="47.47026" lon="-1.6852">
        <ele>65.904255</ele>
        <time>2023-05-07T11:48:20.098Z</time>
      </trkpt>
      <trkpt lat="47.47024" lon="-1.68503">
        <ele>65.832759</ele>
        <time>2023-05-07T11:48:23.109Z</time>
      </trkpt>
      <trkpt lat="47.47021" lon="-1.68485">
        <ele>65.757009</ele>
        <time>2023-05-07T11:48:26.112Z</time>
      </trkpt>
      <trkpt lat="47.47018" lon="-1.68467">
        <ele>65.6792</ele>
        <time>2023-05-07T11:48:29.106Z</time>
      </trkpt>
      <trkpt lat="47.47014" lon="-1.68448">
        <ele>65.595528</ele>
        <time>2023-05-07T11:48:32.108Z</time>
      </trkpt>
      <trkpt lat="47.4701" lon="-1.68429">
        <ele>65.514794</ele>
        <time>2023-05-07T11:48:35.094Z</time>
      </trkpt>
      <trkpt lat="47.47007" lon="-1.68417">
        <ele>65.565373</ele>
        <time>2023-05-07T11:48:37.108Z</time>
      </trkpt>
      <trkpt lat="47.47" lon="-1.68401">
        <ele>65.638289</ele>
        <time>2023-05-07T11:48:40.102Z</time>
      </trkpt>
      <trkpt lat="47.46996" lon="-1.68389">
        <ele>65.690958</ele>
        <time>2023-05-07T11:48:42.109Z</time>
      </trkpt>
      <trkpt lat="47.46989" lon="-1.68373">
        <ele>65.762978</ele>
        <time>2023-05-07T11:48:45.098Z</time>
      </trkpt>
      <trkpt lat="47.46981" lon="-1.68356">
        <ele>65.84001</ele>
        <time>2023-05-07T11:48:48.114Z</time>
      </trkpt>
      <trkpt lat="47.46976" lon="-1.68344">
        <ele>65.895313</ele>
        <time>2023-05-07T11:48:50.101Z</time>
      </trkpt>
      <trkpt lat="47.4697" lon="-1.68333">
        <ele>65.948653</ele>
        <time>2023-05-07T11:48:52.110Z</time>
      </trkpt>
      <trkpt lat="47.46962" lon="-1.68319">
        <ele>66.021295</ele>
        <time>2023-05-07T11:48:55.097Z</time>
      </trkpt>
      <trkpt lat="47.46952" lon="-1.68306">
        <ele>66.096212</ele>
        <time>2023-05-07T11:48:58.104Z</time>
      </trkpt>
      <trkpt lat="47.46943" lon="-1.68293">
        <ele>66.170249</ele>
        <time>2023-05-07T11:49:01.114Z</time>
      </trkpt>
      <trkpt lat="47.46932" lon="-1.68281">
        <ele>66.244839</ele>
        <time>2023-05-07T11:49:04.111Z</time>
      </trkpt>
      <trkpt lat="47.46922" lon="-1.68269">
        <ele>66.320355</ele>
        <time>2023-05-07T11:49:07.102Z</time>
      </trkpt>
      <trkpt lat="47.46912" lon="-1.68258">
        <ele>66.391723</ele>
        <time>2023-05-07T11:49:10.101Z</time>
      </trkpt>
      <trkpt lat="47.46902" lon="-1.68246">
        <ele>66.463841</ele>
        <time>2023-05-07T11:49:13.108Z</time>
      </trkpt>
      <trkpt lat="47.46892" lon="-1.68234">
        <ele>66.536404</ele>
        <time>2023-05-07T11:49:16.107Z</time>
      </trkpt>
      <trkpt lat="47.46882" lon="-1.68223">
        <ele>66.482534</ele>
        <time>2023-05-07T11:49:19.108Z</time>
      </trkpt>
      <trkpt lat="47.46872" lon="-1.68211">
        <ele>66.423488</ele>
        <time>2023-05-07T11:49:22.105Z</time>
      </trkpt>
      <trkpt lat="47.46862" lon="-1.68202">
        <ele>66.368684</ele>
        <time>2023-05-07T11:49:25.101Z</time>
      </trkpt>
      <trkpt lat="47.46854" lon="-1.68193">
        <ele>66.320202</ele>
        <time>2023-05-07T11:49:28.104Z</time>
      </trkpt>
      <trkpt lat="47.46846" lon="-1.68185">
        <ele>66.274148</ele>
        <time>2023-05-07T11:49:31.112Z</time>
      </trkpt>
      <trkpt lat="47.46836" lon="-1.68176">
        <ele>66.223307</ele>
        <time>2023-05-07T11:49:34.105Z</time>
      </trkpt>
      <trkpt lat="47.46827" lon="-1.68166">
        <ele>66.168794</ele>
        <time>2023-05-07T11:49:37.110Z</time>
      </trkpt>
      <trkpt lat="47.46818" lon="-1.68155">
        <ele>66.112887</ele>
        <time>2023-05-07T11:49:40.100Z</time>
      </trkpt>
      <trkpt lat="47.46808" lon="-1.68145">
        <ele>66.056662</ele>
        <time>2023-05-07T11:49:43.105Z</time>
      </trkpt>
      <trkpt lat="47.46798" lon="-1.68134">
        <ele>65.998737</ele>
        <time>2023-05-07T11:49:46.108Z</time>
      </trkpt>
      <trkpt lat="47.46788" lon="-1.68123">
        <ele>65.939321</ele>
        <time>2023-05-07T11:49:49.102Z</time>
      </trkpt>
      <trkpt lat="47.46778" lon="-1.68111">
        <ele>65.878757</ele>
        <time>2023-05-07T11:49:52.107Z</time>
      </trkpt>
      <trkpt lat="47.46767" lon="-1.681">
        <ele>65.819341</ele>
        <time>2023-05-07T11:49:55.105Z</time>
      </trkpt>
      <trkpt lat="47.46758" lon="-1.68089">
        <ele>65.761797</ele>
        <time>2023-05-07T11:49:58.107Z</time>
      </trkpt>
      <trkpt lat="47.46748" lon="-1.68078">
        <ele>65.703667</ele>
        <time>2023-05-07T11:50:01.099Z</time>
      </trkpt>
      <trkpt lat="47.46738" lon="-1.68066">
        <ele>65.732227</ele>
        <time>2023-05-07T11:50:04.107Z</time>
      </trkpt>
      <trkpt lat="47.46728" lon="-1.68053">
        <ele>65.772878</ele>
        <time>2023-05-07T11:50:07.108Z</time>
      </trkpt>
      <trkpt lat="47.46718" lon="-1.68041">
        <ele>65.813264</ele>
        <time>2023-05-07T11:50:10.105Z</time>
      </trkpt>
      <trkpt lat="47.46707" lon="-1.6803">
        <ele>65.854126</ele>
        <time>2023-05-07T11:50:13.115Z</time>
      </trkpt>
      <trkpt lat="47.46696" lon="-1.68019">
        <ele>65.894886</ele>
        <time>2023-05-07T11:50:16.101Z</time>
      </trkpt>
      <trkpt lat="47.46687" lon="-1.6801">
        <ele>65.930471</ele>
        <time>2023-05-07T11:50:19.106Z</time>
      </trkpt>
      <trkpt lat="47.46679" lon="-1.68001">
        <ele>65.960607</ele>
        <time>2023-05-07T11:50:22.106Z</time>
      </trkpt>
      <trkpt lat="47.46669" lon="-1.67992">
        <ele>65.997419</ele>
        <time>2023-05-07T11:50:26.104Z</time>
      </trkpt>
      <trkpt lat="47.46661" lon="-1.67985">
        <ele>66.027527</ele>
        <time>2023-05-07T11:50:29.107Z</time>
      </trkpt>
      <trkpt lat="47.46652" lon="-1.67979">
        <ele>66.05866</ele>
        <time>2023-05-07T11:50:32.100Z</time>
      </trkpt>
      <trkpt lat="47.46642" lon="-1.67975">
        <ele>66.089811</ele>
        <time>2023-05-07T11:50:36.107Z</time>
      </trkpt>
      <trkpt lat="47.46631" lon="-1.67972">
        <ele>66.124416</ele>
        <time>2023-05-07T11:50:41.097Z</time>
      </trkpt>
      <trkpt lat="47.46619" lon="-1.67969">
        <ele>66.161243</ele>
        <time>2023-05-07T11:50:45.108Z</time>
      </trkpt>
      <trkpt lat="47.4661" lon="-1.67967">
        <ele>66.190541</ele>
        <time>2023-05-07T11:50:48.101Z</time>
      </trkpt>
      <trkpt lat="47.46601" lon="-1.67966">
        <ele>66.219873</ele>
        <time>2023-05-07T11:50:51.097Z</time>
      </trkpt>
      <trkpt lat="47.46591" lon="-1.67968">
        <ele>66.250858</ele>
        <time>2023-05-07T11:50:55.106Z</time>
      </trkpt>
      <trkpt lat="47.46582" lon="-1.67963">
        <ele>66.209677</ele>
        <time>2023-05-07T11:51:00.108Z</time>
      </trkpt>
      <trkpt lat="47.46572" lon="-1.67958">
        <ele>66.138521</ele>
        <time>2023-05-07T11:51:04.105Z</time>
      </trkpt>
      <trkpt lat="47.46562" lon="-1.67956">
        <ele>66.068345</ele>
        <time>2023-05-07T11:51:07.110Z</time>
      </trkpt>
      <trkpt lat="47.46551" lon="-1.67952">
        <ele>65.994056</ele>
        <time>2023-05-07T11:51:10.108Z</time>
      </trkpt>
      <trkpt lat="47.46542" lon="-1.6795">
        <ele>65.931255</ele>
        <time>2023-05-07T11:51:13.107Z</time>
      </trkpt>
      <trkpt lat="47.46532" lon="-1.67951">
        <ele>65.867851</ele>
        <time>2023-05-07T11:51:16.098Z</time>
      </trkpt>
      <trkpt lat="47.46521" lon="-1.67953">
        <ele>65.794454</ele>
        <time>2023-05-07T11:51:20.106Z</time>
      </trkpt>
      <trkpt lat="47.46512" lon="-1.67954">
        <ele>65.734306</ele>
        <time>2023-05-07T11:51:23.103Z</time>
      </trkpt>
      <trkpt lat="47.46502" lon="-1.67957">
        <ele>65.665444</ele>
        <time>2023-05-07T11:51:26.097Z</time>
      </trkpt>
      <trkpt lat="47.46491" lon="-1.6796">
        <ele>65.592254</ele>
        <time>2023-05-07T11:51:29.106Z</time>
      </trkpt>
      <trkpt lat="47.4648" lon="-1.67962">
        <ele>65.516879</ele>
        <time>2023-05-07T11:51:32.110Z</time>
      </trkpt>
      <trkpt lat="47.46468" lon="-1.67966">
        <ele>65.436723</ele>
        <time>2023-05-07T11:51:35.102Z</time>
      </trkpt>
      <trkpt lat="47.46457" lon="-1.67969">
        <ele>65.360007</ele>
        <time>2023-05-07T11:51:38.104Z</time>
      </trkpt>
      <trkpt lat="47.46445" lon="-1.67973">
        <ele>65.280225</ele>
        <time>2023-05-07T11:51:41.102Z</time>
      </trkpt>
      <trkpt lat="47.46433" lon="-1.67976">
        <ele>65.201058</ele>
        <time>2023-05-07T11:51:44.106Z</time>
      </trkpt>
      <trkpt lat="47.46422" lon="-1.67979">
        <ele>65.122949</ele>
        <time>2023-05-07T11:51:47.111Z</time>
      </trkpt>
      <trkpt lat="47.46412" lon="-1.67982">
        <ele>65.053411</ele>
        <time>2023-05-07T11:51:50.099Z</time>
      </trkpt>
      <trkpt lat="47.46401" lon="-1.67985">
        <ele>64.994741</ele>
        <time>2023-05-07T11:51:53.110Z</time>
      </trkpt>
      <trkpt lat="47.4639" lon="-1.67988">
        <ele>64.93221</ele>
        <time>2023-05-07T11:51:56.088Z</time>
      </trkpt>
      <trkpt lat="47.46378" lon="-1.67991">
        <ele>64.86603</ele>
        <time>2023-05-07T11:51:59.107Z</time>
      </trkpt>
      <trkpt lat="47.46366" lon="-1.67993">
        <ele>64.799045</ele>
        <time>2023-05-07T11:52:02.108Z</time>
      </trkpt>
      <trkpt lat="47.46354" lon="-1.67995">
        <ele>64.734616</ele>
        <time>2023-05-07T11:52:05.105Z</time>
      </trkpt>
      <trkpt lat="47.46342" lon="-1.67999">
        <ele>64.667283</ele>
        <time>2023-05-07T11:52:08.107Z</time>
      </trkpt>
      <trkpt lat="47.4633" lon="-1.68002">
        <ele>64.598399</ele>
        <time>2023-05-07T11:52:11.105Z</time>
      </trkpt>
      <trkpt lat="47.46318" lon="-1.68003">
        <ele>64.533903</ele>
        <time>2023-05-07T11:52:14.106Z</time>
      </trkpt>
      <trkpt lat="47.46307" lon="-1.68003">
        <ele>64.471687</ele>
        <time>2023-05-07T11:52:17.110Z</time>
      </trkpt>
      <trkpt lat="47.46296" lon="-1.68003">
        <ele>64.413329</ele>
        <time>2023-05-07T11:52:20.105Z</time>
      </trkpt>
      <trkpt lat="47.46286" lon="-1.68001">
        <ele>64.357826</ele>
        <time>2023-05-07T11:52:23.108Z</time>
      </trkpt>
      <trkpt lat="47.46277" lon="-1.67999">
        <ele>64.303041</ele>
        <time>2023-05-07T11:52:26.094Z</time>
      </trkpt>
      <trkpt lat="47.46266" lon="-1.67998">
        <ele>64.243837</ele>
        <time>2023-05-07T11:52:29.104Z</time>
      </trkpt>
      <trkpt lat="47.46255" lon="-1.67995">
        <ele>64.183741</ele>
        <time>2023-05-07T11:52:32.112Z</time>
      </trkpt>
      <trkpt lat="47.46245" lon="-1.6799">
        <ele>64.123984</ele>
        <time>2023-05-07T11:52:35.112Z</time>
      </trkpt>
      <trkpt lat="47.46234" lon="-1.67985">
        <ele>64.075963</ele>
        <time>2023-05-07T11:52:38.099Z</time>
      </trkpt>
      <trkpt lat="47.46223" lon="-1.67977">
        <ele>64.130211</ele>
        <time>2023-05-07T11:52:41.101Z</time>
      </trkpt>
      <trkpt lat="47.46213" lon="-1.6797">
        <ele>64.182726</ele>
        <time>2023-05-07T11:52:44.101Z</time>
      </trkpt>
      <trkpt lat="47.46204" lon="-1.67963">
        <ele>64.22755</ele>
        <time>2023-05-07T11:52:47.093Z</time>
      </trkpt>
      <trkpt lat="47.46193" lon="-1.67956">
        <ele>64.281655</ele>
        <time>2023-05-07T11:52:51.097Z</time>
      </trkpt>
      <trkpt lat="47.46185" lon="-1.67949">
        <ele>64.323774</ele>
        <time>2023-05-07T11:52:54.103Z</time>
      </trkpt>
      <trkpt lat="47.46177" lon="-1.67942">
        <ele>64.369999</ele>
        <time>2023-05-07T11:52:57.103Z</time>
      </trkpt>
      <trkpt lat="47.46167" lon="-1.67933">
        <ele>64.421186</ele>
        <time>2023-05-07T11:53:00.107Z</time>
      </trkpt>
      <trkpt lat="47.46156" lon="-1.67925">
        <ele>64.475441</ele>
        <time>2023-05-07T11:53:03.095Z</time>
      </trkpt>
      <trkpt lat="47.46146" lon="-1.67917">
        <ele>64.53094</ele>
        <time>2023-05-07T11:53:06.095Z</time>
      </trkpt>
      <trkpt lat="47.46135" lon="-1.67909">
        <ele>64.584774</ele>
        <time>2023-05-07T11:53:09.111Z</time>
      </trkpt>
      <trkpt lat="47.46125" lon="-1.67901">
        <ele>64.640164</ele>
        <time>2023-05-07T11:53:12.108Z</time>
      </trkpt>
      <trkpt lat="47.46114" lon="-1.67891">
        <ele>64.69666</ele>
        <time>2023-05-07T11:53:15.105Z</time>
      </trkpt>
      <trkpt lat="47.46103" lon="-1.67881">
        <ele>64.757702</ele>
        <time>2023-05-07T11:53:18.105Z</time>
      </trkpt>
      <trkpt lat="47.46091" lon="-1.67871">
        <ele>64.818425</ele>
        <time>2023-05-07T11:53:21.099Z</time>
      </trkpt>
      <trkpt lat="47.4608" lon="-1.67862">
        <ele>64.876271</ele>
        <time>2023-05-07T11:53:24.106Z</time>
      </trkpt>
      <trkpt lat="47.4607" lon="-1.67852">
        <ele>64.920454</ele>
        <time>2023-05-07T11:53:27.106Z</time>
      </trkpt>
      <trkpt lat="47.46059" lon="-1.67843">
        <ele>64.959608</ele>
        <time>2023-05-07T11:53:30.102Z</time>
      </trkpt>
      <trkpt lat="47.46049" lon="-1.67833">
        <ele>64.997274</ele>
        <time>2023-05-07T11:53:33.107Z</time>
      </trkpt>
      <trkpt lat="47.46038" lon="-1.67824">
        <ele>65.037026</ele>
        <time>2023-05-07T11:53:36.098Z</time>
      </trkpt>
      <trkpt lat="47.46027" lon="-1.67814">
        <ele>65.077745</ele>
        <time>2023-05-07T11:53:39.102Z</time>
      </trkpt>
      <trkpt lat="47.46015" lon="-1.67805">
        <ele>65.118388</ele>
        <time>2023-05-07T11:53:42.104Z</time>
      </trkpt>
      <trkpt lat="47.46004" lon="-1.67797">
        <ele>65.159486</ele>
        <time>2023-05-07T11:53:45.124Z</time>
      </trkpt>
      <trkpt lat="47.45993" lon="-1.67787">
        <ele>65.198801</ele>
        <time>2023-05-07T11:53:48.106Z</time>
      </trkpt>
      <trkpt lat="47.45983" lon="-1.67777">
        <ele>65.237778</ele>
        <time>2023-05-07T11:53:51.098Z</time>
      </trkpt>
      <trkpt lat="47.45973" lon="-1.67766">
        <ele>65.275366</ele>
        <time>2023-05-07T11:53:54.102Z</time>
      </trkpt>
      <trkpt lat="47.45965" lon="-1.67755">
        <ele>65.310285</ele>
        <time>2023-05-07T11:53:57.112Z</time>
      </trkpt>
      <trkpt lat="47.45956" lon="-1.67743">
        <ele>65.347837</ele>
        <time>2023-05-07T11:54:00.101Z</time>
      </trkpt>
      <trkpt lat="47.45948" lon="-1.67729">
        <ele>65.386355</ele>
        <time>2023-05-07T11:54:03.104Z</time>
      </trkpt>
      <trkpt lat="47.45939" lon="-1.67715">
        <ele>65.426538</ele>
        <time>2023-05-07T11:54:06.098Z</time>
      </trkpt>
      <trkpt lat="47.45931" lon="-1.67701">
        <ele>65.440484</ele>
        <time>2023-05-07T11:54:09.111Z</time>
      </trkpt>
      <trkpt lat="47.45924" lon="-1.67687">
        <ele>65.358309</ele>
        <time>2023-05-07T11:54:12.106Z</time>
      </trkpt>
      <trkpt lat="47.45917" lon="-1.67672">
        <ele>65.276895</ele>
        <time>2023-05-07T11:54:15.105Z</time>
      </trkpt>
      <trkpt lat="47.45912" lon="-1.67657">
        <ele>65.198476</ele>
        <time>2023-05-07T11:54:18.101Z</time>
      </trkpt>
      <trkpt lat="47.45908" lon="-1.6764">
        <ele>65.118465</ele>
        <time>2023-05-07T11:54:21.086Z</time>
      </trkpt>
      <trkpt lat="47.45903" lon="-1.67624">
        <ele>65.036632</ele>
        <time>2023-05-07T11:54:24.107Z</time>
      </trkpt>
      <trkpt lat="47.45898" lon="-1.67606">
        <ele>64.949885</ele>
        <time>2023-05-07T11:54:27.104Z</time>
      </trkpt>
      <trkpt lat="47.45894" lon="-1.67589">
        <ele>64.868438</ele>
        <time>2023-05-07T11:54:30.104Z</time>
      </trkpt>
      <trkpt lat="47.4589" lon="-1.67577">
        <ele>64.807464</ele>
        <time>2023-05-07T11:54:32.103Z</time>
      </trkpt>
      <trkpt lat="47.45885" lon="-1.6756">
        <ele>64.721561</ele>
        <time>2023-05-07T11:54:35.098Z</time>
      </trkpt>
      <trkpt lat="47.45881" lon="-1.67542">
        <ele>64.63558</ele>
        <time>2023-05-07T11:54:38.106Z</time>
      </trkpt>
      <trkpt lat="47.45877" lon="-1.6753">
        <ele>64.57513</ele>
        <time>2023-05-07T11:54:40.104Z</time>
      </trkpt>
      <trkpt lat="47.45872" lon="-1.67512">
        <ele>64.488688</ele>
        <time>2023-05-07T11:54:43.102Z</time>
      </trkpt>
      <trkpt lat="47.45868" lon="-1.67494">
        <ele>64.402043</ele>
        <time>2023-05-07T11:54:46.095Z</time>
      </trkpt>
      <trkpt lat="47.45864" lon="-1.67476">
        <ele>64.316212</ele>
        <time>2023-05-07T11:54:49.107Z</time>
      </trkpt>
      <trkpt lat="47.45859" lon="-1.67459">
        <ele>64.24562</ele>
        <time>2023-05-07T11:54:52.108Z</time>
      </trkpt>
      <trkpt lat="47.45855" lon="-1.67443">
        <ele>64.23696</ele>
        <time>2023-05-07T11:54:55.105Z</time>
      </trkpt>
      <trkpt lat="47.45851" lon="-1.67427">
        <ele>64.228437</ele>
        <time>2023-05-07T11:54:58.104Z</time>
      </trkpt>
      <trkpt lat="47.45848" lon="-1.6741">
        <ele>64.219754</ele>
        <time>2023-05-07T11:55:01.099Z</time>
      </trkpt>
      <trkpt lat="47.45843" lon="-1.67392">
        <ele>64.210219</ele>
        <time>2023-05-07T11:55:04.107Z</time>
      </trkpt>
      <trkpt lat="47.45838" lon="-1.67376">
        <ele>64.201151</ele>
        <time>2023-05-07T11:55:07.105Z</time>
      </trkpt>
      <trkpt lat="47.45833" lon="-1.67359">
        <ele>64.192037</ele>
        <time>2023-05-07T11:55:10.113Z</time>
      </trkpt>
      <trkpt lat="47.45829" lon="-1.67344">
        <ele>64.183937</ele>
        <time>2023-05-07T11:55:13.104Z</time>
      </trkpt>
      <trkpt lat="47.45825" lon="-1.67328">
        <ele>64.175631</ele>
        <time>2023-05-07T11:55:16.108Z</time>
      </trkpt>
      <trkpt lat="47.4582" lon="-1.67312">
        <ele>64.166911</ele>
        <time>2023-05-07T11:55:19.105Z</time>
      </trkpt>
      <trkpt lat="47.45816" lon="-1.67297">
        <ele>64.158508</ele>
        <time>2023-05-07T11:55:22.101Z</time>
      </trkpt>
      <trkpt lat="47.45812" lon="-1.6728">
        <ele>64.149847</ele>
        <time>2023-05-07T11:55:25.111Z</time>
      </trkpt>
      <trkpt lat="47.45807" lon="-1.67263">
        <ele>64.140347</ele>
        <time>2023-05-07T11:55:28.103Z</time>
      </trkpt>
      <trkpt lat="47.45802" lon="-1.67245">
        <ele>64.130819</ele>
        <time>2023-05-07T11:55:31.106Z</time>
      </trkpt>
      <trkpt lat="47.45797" lon="-1.67228">
        <ele>64.1216</ele>
        <time>2023-05-07T11:55:34.100Z</time>
      </trkpt>
      <trkpt lat="47.45793" lon="-1.67211">
        <ele>64.121168</ele>
        <time>2023-05-07T11:55:37.113Z</time>
      </trkpt>
      <trkpt lat="47.45789" lon="-1.67194">
        <ele>64.147853</ele>
        <time>2023-05-07T11:55:40.098Z</time>
      </trkpt>
      <trkpt lat="47.45784" lon="-1.67177">
        <ele>64.175191</ele>
        <time>2023-05-07T11:55:43.100Z</time>
      </trkpt>
      <trkpt lat="47.45778" lon="-1.67159">
        <ele>64.203636</ele>
        <time>2023-05-07T11:55:46.103Z</time>
      </trkpt>
      <trkpt lat="47.45773" lon="-1.67142">
        <ele>64.23209</ele>
        <time>2023-05-07T11:55:49.105Z</time>
      </trkpt>
      <trkpt lat="47.45768" lon="-1.6713">
        <ele>64.251833</ele>
        <time>2023-05-07T11:55:51.096Z</time>
      </trkpt>
      <trkpt lat="47.45762" lon="-1.67115">
        <ele>64.277644</ele>
        <time>2023-05-07T11:55:54.103Z</time>
      </trkpt>
      <trkpt lat="47.45756" lon="-1.67101">
        <ele>64.303082</ele>
        <time>2023-05-07T11:55:57.097Z</time>
      </trkpt>
      <trkpt lat="47.45749" lon="-1.67086">
        <ele>64.329615</ele>
        <time>2023-05-07T11:56:00.102Z</time>
      </trkpt>
      <trkpt lat="47.45741" lon="-1.67071">
        <ele>64.357052</ele>
        <time>2023-05-07T11:56:03.103Z</time>
      </trkpt>
      <trkpt lat="47.45733" lon="-1.67056">
        <ele>64.385063</ele>
        <time>2023-05-07T11:56:06.105Z</time>
      </trkpt>
      <trkpt lat="47.45726" lon="-1.67041">
        <ele>64.411485</ele>
        <time>2023-05-07T11:56:09.102Z</time>
      </trkpt>
      <trkpt lat="47.45718" lon="-1.67027">
        <ele>64.439006</ele>
        <time>2023-05-07T11:56:12.097Z</time>
      </trkpt>
      <trkpt lat="47.45711" lon="-1.67013">
        <ele>64.463636</ele>
        <time>2023-05-07T11:56:15.105Z</time>
      </trkpt>
      <trkpt lat="47.45703" lon="-1.67">
        <ele>64.489867</ele>
        <time>2023-05-07T11:56:18.107Z</time>
      </trkpt>
      <trkpt lat="47.45695" lon="-1.66987">
        <ele>64.567973</ele>
        <time>2023-05-07T11:56:21.106Z</time>
      </trkpt>
      <trkpt lat="47.45686" lon="-1.66973">
        <ele>64.710842</ele>
        <time>2023-05-07T11:56:24.103Z</time>
      </trkpt>
      <trkpt lat="47.45678" lon="-1.66959">
        <ele>64.860499</ele>
        <time>2023-05-07T11:56:27.101Z</time>
      </trkpt>
      <trkpt lat="47.45669" lon="-1.66946">
        <ele>65.007889</ele>
        <time>2023-05-07T11:56:30.102Z</time>
      </trkpt>
      <trkpt lat="47.4566" lon="-1.66933">
        <ele>65.163411</ele>
        <time>2023-05-07T11:56:33.105Z</time>
      </trkpt>
      <trkpt lat="47.45652" lon="-1.66918">
        <ele>65.314025</ele>
        <time>2023-05-07T11:56:36.105Z</time>
      </trkpt>
      <trkpt lat="47.45644" lon="-1.66903">
        <ele>65.467036</ele>
        <time>2023-05-07T11:56:39.087Z</time>
      </trkpt>
      <trkpt lat="47.45638" lon="-1.66893">
        <ele>65.573607</ele>
        <time>2023-05-07T11:56:41.101Z</time>
      </trkpt>
      <trkpt lat="47.45632" lon="-1.66882">
        <ele>65.682489</ele>
        <time>2023-05-07T11:56:43.097Z</time>
      </trkpt>
      <trkpt lat="47.45623" lon="-1.66868">
        <ele>65.836449</ele>
        <time>2023-05-07T11:56:46.101Z</time>
      </trkpt>
      <trkpt lat="47.45615" lon="-1.66855">
        <ele>65.981107</ele>
        <time>2023-05-07T11:56:49.102Z</time>
      </trkpt>
      <trkpt lat="47.45607" lon="-1.66842">
        <ele>66.121514</ele>
        <time>2023-05-07T11:56:52.094Z</time>
      </trkpt>
      <trkpt lat="47.45599" lon="-1.6683">
        <ele>66.256285</ele>
        <time>2023-05-07T11:56:55.085Z</time>
      </trkpt>
      <trkpt lat="47.45591" lon="-1.66816">
        <ele>66.39681</ele>
        <time>2023-05-07T11:56:58.101Z</time>
      </trkpt>
      <trkpt lat="47.45583" lon="-1.66803">
        <ele>66.538365</ele>
        <time>2023-05-07T11:57:01.101Z</time>
      </trkpt>
      <trkpt lat="47.45575" lon="-1.66791">
        <ele>66.676803</ele>
        <time>2023-05-07T11:57:04.102Z</time>
      </trkpt>
      <trkpt lat="47.45566" lon="-1.66778">
        <ele>66.815126</ele>
        <time>2023-05-07T11:57:07.095Z</time>
      </trkpt>
      <trkpt lat="47.45559" lon="-1.66766">
        <ele>66.945447</ele>
        <time>2023-05-07T11:57:10.106Z</time>
      </trkpt>
      <trkpt lat="47.45551" lon="-1.66753">
        <ele>67.075416</ele>
        <time>2023-05-07T11:57:13.103Z</time>
      </trkpt>
      <trkpt lat="47.45542" lon="-1.66741">
        <ele>67.209409</ele>
        <time>2023-05-07T11:57:16.103Z</time>
      </trkpt>
      <trkpt lat="47.45535" lon="-1.6673">
        <ele>67.327469</ele>
        <time>2023-05-07T11:57:19.103Z</time>
      </trkpt>
      <trkpt lat="47.45529" lon="-1.66719">
        <ele>67.44284</ele>
        <time>2023-05-07T11:57:23.103Z</time>
      </trkpt>
      <trkpt lat="47.45521" lon="-1.6671">
        <ele>67.55698</ele>
        <time>2023-05-07T11:57:27.098Z</time>
      </trkpt>
      <trkpt lat="47.45515" lon="-1.66697">
        <ele>67.676482</ele>
        <time>2023-05-07T11:57:32.096Z</time>
      </trkpt>
      <trkpt lat="47.45511" lon="-1.66684">
        <ele>67.79471</ele>
        <time>2023-05-07T11:57:36.105Z</time>
      </trkpt>
      <trkpt lat="47.45101" lon="-1.65933">
        <ele>78.298337</ele>
        <time>2023-05-07T12:01:51.094Z</time>
      </trkpt>
      <trkpt lat="47.45102" lon="-1.65936">
        <ele>78.296829</ele>
        <time>2023-05-07T12:04:05.397Z</time>
      </trkpt>
      <trkpt lat="47.4429" lon="-1.56039">
        <ele>68.315138</ele>
        <time>2023-05-07T13:04:22.525Z</time>
      </trkpt>
      <trkpt lat="47.44273" lon="-1.56026">
        <ele>67.59775</ele>
        <time>2023-05-07T13:16:25.514Z</time>
      </trkpt>
      <trkpt lat="47.44283" lon="-1.56021">
        <ele>67.185313</ele>
        <time>2023-05-07T13:19:28.525Z</time>
      </trkpt>
      <trkpt lat="47.44275" lon="-1.56027">
        <ele>66.851833</ele>
        <time>2023-05-07T13:19:47.520Z</time>
      </trkpt>
      <trkpt lat="47.44265" lon="-1.56016">
        <ele>66.409288</ele>
        <time>2023-05-07T13:19:53.524Z</time>
      </trkpt>
      <trkpt lat="47.44254" lon="-1.56008">
        <ele>66.191326</ele>
        <time>2023-05-07T13:19:56.515Z</time>
      </trkpt>
      <trkpt lat="47.44246" lon="-1.56002">
        <ele>66.134211</ele>
        <time>2023-05-07T13:19:58.533Z</time>
      </trkpt>
      <trkpt lat="47.44236" lon="-1.55991">
        <ele>66.053427</ele>
        <time>2023-05-07T13:20:01.529Z</time>
      </trkpt>
      <trkpt lat="47.44227" lon="-1.55982">
        <ele>65.984814</ele>
        <time>2023-05-07T13:20:04.525Z</time>
      </trkpt>
      <trkpt lat="47.44218" lon="-1.55974">
        <ele>65.920123</ele>
        <time>2023-05-07T13:20:07.526Z</time>
      </trkpt>
      <trkpt lat="47.4421" lon="-1.55967">
        <ele>65.861565</ele>
        <time>2023-05-07T13:20:10.524Z</time>
      </trkpt>
      <trkpt lat="47.44202" lon="-1.55959">
        <ele>65.800968</ele>
        <time>2023-05-07T13:20:13.521Z</time>
      </trkpt>
      <trkpt lat="47.44195" lon="-1.55946">
        <ele>65.729411</ele>
        <time>2023-05-07T13:20:17.525Z</time>
      </trkpt>
      <trkpt lat="47.44188" lon="-1.55937">
        <ele>65.669826</ele>
        <time>2023-05-07T13:20:22.528Z</time>
      </trkpt>
      <trkpt lat="47.44181" lon="-1.55926">
        <ele>65.606206</ele>
        <time>2023-05-07T13:20:37.523Z</time>
      </trkpt>
      <trkpt lat="47.44174" lon="-1.55913">
        <ele>65.533254</ele>
        <time>2023-05-07T13:20:42.534Z</time>
      </trkpt>
      <trkpt lat="47.44166" lon="-1.559">
        <ele>65.461054</ele>
        <time>2023-05-07T13:20:46.527Z</time>
      </trkpt>
      <trkpt lat="47.44159" lon="-1.55889">
        <ele>65.395318</ele>
        <time>2023-05-07T13:20:49.521Z</time>
      </trkpt>
      <trkpt lat="47.44153" lon="-1.55876">
        <ele>65.327496</ele>
        <time>2023-05-07T13:20:52.524Z</time>
      </trkpt>
      <trkpt lat="47.44147" lon="-1.55861">
        <ele>65.252631</ele>
        <time>2023-05-07T13:20:55.531Z</time>
      </trkpt>
      <trkpt lat="47.4414" lon="-1.55846">
        <ele>65.175982</ele>
        <time>2023-05-07T13:20:58.521Z</time>
      </trkpt>
      <trkpt lat="47.44133" lon="-1.55831">
        <ele>65.097766</ele>
        <time>2023-05-07T13:21:01.529Z</time>
      </trkpt>
      <trkpt lat="47.44126" lon="-1.55816">
        <ele>65.022536</ele>
        <time>2023-05-07T13:21:04.520Z</time>
      </trkpt>
      <trkpt lat="47.44119" lon="-1.558">
        <ele>64.943189</ele>
        <time>2023-05-07T13:21:07.523Z</time>
      </trkpt>
      <trkpt lat="47.44112" lon="-1.55784">
        <ele>64.864528</ele>
        <time>2023-05-07T13:21:10.525Z</time>
      </trkpt>
      <trkpt lat="47.44105" lon="-1.55769">
        <ele>64.787926</ele>
        <time>2023-05-07T13:21:13.525Z</time>
      </trkpt>
      <trkpt lat="47.44099" lon="-1.55752">
        <ele>64.709986</ele>
        <time>2023-05-07T13:21:16.525Z</time>
      </trkpt>
      <trkpt lat="47.44093" lon="-1.55735">
        <ele>64.629603</ele>
        <time>2023-05-07T13:21:19.521Z</time>
      </trkpt>
      <trkpt lat="47.44088" lon="-1.5572">
        <ele>64.559512</ele>
        <time>2023-05-07T13:21:22.524Z</time>
      </trkpt>
      <trkpt lat="47.44082" lon="-1.55703">
        <ele>64.480185</ele>
        <time>2023-05-07T13:21:25.524Z</time>
      </trkpt>
      <trkpt lat="47.44079" lon="-1.55686">
        <ele>64.407884</ele>
        <time>2023-05-07T13:21:28.524Z</time>
      </trkpt>
      <trkpt lat="47.44078" lon="-1.55672">
        <ele>64.349155</ele>
        <time>2023-05-07T13:21:30.526Z</time>
      </trkpt>
      <trkpt lat="47.44078" lon="-1.55652">
        <ele>64.267316</ele>
        <time>2023-05-07T13:21:33.523Z</time>
      </trkpt>
      <trkpt lat="47.44078" lon="-1.55639">
        <ele>64.211476</ele>
        <time>2023-05-07T13:21:35.525Z</time>
      </trkpt>
      <trkpt lat="47.44078" lon="-1.55619">
        <ele>64.128945</ele>
        <time>2023-05-07T13:21:38.524Z</time>
      </trkpt>
      <trkpt lat="47.44076" lon="-1.55601">
        <ele>64.05176</ele>
        <time>2023-05-07T13:21:41.523Z</time>
      </trkpt>
      <trkpt lat="47.44073" lon="-1.55581">
        <ele>64.013585</ele>
        <time>2023-05-07T13:21:44.518Z</time>
      </trkpt>
      <trkpt lat="47.44068" lon="-1.55563">
        <ele>64.047978</ele>
        <time>2023-05-07T13:21:47.517Z</time>
      </trkpt>
      <trkpt lat="47.44062" lon="-1.55548">
        <ele>64.078979</ele>
        <time>2023-05-07T13:21:50.531Z</time>
      </trkpt>
      <trkpt lat="47.44055" lon="-1.55534">
        <ele>64.109135</ele>
        <time>2023-05-07T13:21:53.518Z</time>
      </trkpt>
      <trkpt lat="47.44046" lon="-1.55522">
        <ele>64.140418</ele>
        <time>2023-05-07T13:21:56.527Z</time>
      </trkpt>
      <trkpt lat="47.44038" lon="-1.5551">
        <ele>64.170965</ele>
        <time>2023-05-07T13:21:59.522Z</time>
      </trkpt>
      <trkpt lat="47.44028" lon="-1.55498">
        <ele>64.202435</ele>
        <time>2023-05-07T13:22:02.525Z</time>
      </trkpt>
      <trkpt lat="47.44019" lon="-1.55486">
        <ele>64.234588</ele>
        <time>2023-05-07T13:22:05.528Z</time>
      </trkpt>
      <trkpt lat="47.44009" lon="-1.55475">
        <ele>64.266194</ele>
        <time>2023-05-07T13:22:08.522Z</time>
      </trkpt>
      <trkpt lat="47.44" lon="-1.55464">
        <ele>64.297392</ele>
        <time>2023-05-07T13:22:11.521Z</time>
      </trkpt>
      <trkpt lat="47.4399" lon="-1.55452">
        <ele>64.330928</ele>
        <time>2023-05-07T13:22:14.525Z</time>
      </trkpt>
      <trkpt lat="47.43981" lon="-1.55439">
        <ele>64.363523</ele>
        <time>2023-05-07T13:22:17.543Z</time>
      </trkpt>
      <trkpt lat="47.43972" lon="-1.55426">
        <ele>64.396091</ele>
        <time>2023-05-07T13:22:20.525Z</time>
      </trkpt>
      <trkpt lat="47.43963" lon="-1.55414">
        <ele>64.427431</ele>
        <time>2023-05-07T13:22:23.526Z</time>
      </trkpt>
      <trkpt lat="47.43955" lon="-1.55399">
        <ele>64.460389</ele>
        <time>2023-05-07T13:22:26.525Z</time>
      </trkpt>
      <trkpt lat="47.43948" lon="-1.55385">
        <ele>64.502897</ele>
        <time>2023-05-07T13:22:29.519Z</time>
      </trkpt>
      <trkpt lat="47.43943" lon="-1.5537">
        <ele>64.54695</ele>
        <time>2023-05-07T13:22:32.526Z</time>
      </trkpt>
      <trkpt lat="47.43939" lon="-1.55354">
        <ele>64.589726</ele>
        <time>2023-05-07T13:22:35.522Z</time>
      </trkpt>
      <trkpt lat="47.43935" lon="-1.55338">
        <ele>64.634754</ele>
        <time>2023-05-07T13:22:38.526Z</time>
      </trkpt>
      <trkpt lat="47.43933" lon="-1.5532">
        <ele>64.679814</ele>
        <time>2023-05-07T13:22:41.521Z</time>
      </trkpt>
      <trkpt lat="47.43932" lon="-1.55303">
        <ele>64.725127</ele>
        <time>2023-05-07T13:22:44.518Z</time>
      </trkpt>
      <trkpt lat="47.43933" lon="-1.55285">
        <ele>64.770593</ele>
        <time>2023-05-07T13:22:47.525Z</time>
      </trkpt>
      <trkpt lat="47.43934" lon="-1.55267">
        <ele>64.817256</ele>
        <time>2023-05-07T13:22:50.526Z</time>
      </trkpt>
      <trkpt lat="47.43937" lon="-1.55249">
        <ele>64.865867</ele>
        <time>2023-05-07T13:22:53.518Z</time>
      </trkpt>
      <trkpt lat="47.43939" lon="-1.55231">
        <ele>64.913554</ele>
        <time>2023-05-07T13:22:56.524Z</time>
      </trkpt>
      <trkpt lat="47.43942" lon="-1.55213">
        <ele>64.96183</ele>
        <time>2023-05-07T13:22:59.521Z</time>
      </trkpt>
      <trkpt lat="47.43945" lon="-1.55195">
        <ele>65.008928</ele>
        <time>2023-05-07T13:23:02.522Z</time>
      </trkpt>
      <trkpt lat="47.43948" lon="-1.55179">
        <ele>65.052344</ele>
        <time>2023-05-07T13:23:05.520Z</time>
      </trkpt>
      <trkpt lat="47.43952" lon="-1.55162">
        <ele>65.097237</ele>
        <time>2023-05-07T13:23:08.525Z</time>
      </trkpt>
      <trkpt lat="47.43955" lon="-1.55145">
        <ele>65.143598</ele>
        <time>2023-05-07T13:23:11.523Z</time>
      </trkpt>
      <trkpt lat="47.43958" lon="-1.55128">
        <ele>65.047269</ele>
        <time>2023-05-07T13:23:14.512Z</time>
      </trkpt>
      <trkpt lat="47.43961" lon="-1.55113">
        <ele>64.928275</ele>
        <time>2023-05-07T13:23:17.518Z</time>
      </trkpt>
      <trkpt lat="47.43964" lon="-1.551">
        <ele>64.824654</ele>
        <time>2023-05-07T13:23:20.516Z</time>
      </trkpt>
      <trkpt lat="47.43966" lon="-1.55083">
        <ele>64.692849</ele>
        <time>2023-05-07T13:23:24.522Z</time>
      </trkpt>
      <trkpt lat="47.43968" lon="-1.5507">
        <ele>64.584731</ele>
        <time>2023-05-07T13:23:27.525Z</time>
      </trkpt>
      <trkpt lat="47.43971" lon="-1.55055">
        <ele>64.468013</ele>
        <time>2023-05-07T13:23:30.521Z</time>
      </trkpt>
      <trkpt lat="47.43974" lon="-1.5504">
        <ele>64.344572</ele>
        <time>2023-05-07T13:23:33.522Z</time>
      </trkpt>
      <trkpt lat="47.43979" lon="-1.55024">
        <ele>64.210908</ele>
        <time>2023-05-07T13:23:36.521Z</time>
      </trkpt>
      <trkpt lat="47.43982" lon="-1.55007">
        <ele>64.074546</ele>
        <time>2023-05-07T13:23:39.517Z</time>
      </trkpt>
      <trkpt lat="47.43984" lon="-1.5499">
        <ele>63.940878</ele>
        <time>2023-05-07T13:23:42.520Z</time>
      </trkpt>
      <trkpt lat="47.43987" lon="-1.54974">
        <ele>63.81299</ele>
        <time>2023-05-07T13:23:45.528Z</time>
      </trkpt>
      <trkpt lat="47.4399" lon="-1.54957">
        <ele>63.682874</ele>
        <time>2023-05-07T13:23:48.527Z</time>
      </trkpt>
      <trkpt lat="47.43994" lon="-1.5494">
        <ele>63.540592</ele>
        <time>2023-05-07T13:23:51.525Z</time>
      </trkpt>
      <trkpt lat="47.43997" lon="-1.54925">
        <ele>63.421645</ele>
        <time>2023-05-07T13:23:53.523Z</time>
      </trkpt>
      <trkpt lat="47.44" lon="-1.5491">
        <ele>63.296135</ele>
        <time>2023-05-07T13:23:55.521Z</time>
      </trkpt>
      <trkpt lat="47.44002" lon="-1.54894">
        <ele>63.175947</ele>
        <time>2023-05-07T13:23:57.532Z</time>
      </trkpt>
      <trkpt lat="47.44004" lon="-1.5488">
        <ele>63.101105</ele>
        <time>2023-05-07T13:23:59.521Z</time>
      </trkpt>
      <trkpt lat="47.44006" lon="-1.54866">
        <ele>63.090533</ele>
        <time>2023-05-07T13:24:01.543Z</time>
      </trkpt>
      <trkpt lat="47.4401" lon="-1.54847">
        <ele>63.075741</ele>
        <time>2023-05-07T13:24:04.522Z</time>
      </trkpt>
      <trkpt lat="47.44014" lon="-1.5483">
        <ele>63.062733</ele>
        <time>2023-05-07T13:24:07.519Z</time>
      </trkpt>
      <trkpt lat="47.44017" lon="-1.54814">
        <ele>63.049785</ele>
        <time>2023-05-07T13:24:10.530Z</time>
      </trkpt>
      <trkpt lat="47.44021" lon="-1.54796">
        <ele>63.035976</ele>
        <time>2023-05-07T13:24:13.526Z</time>
      </trkpt>
      <trkpt lat="47.44025" lon="-1.54778">
        <ele>63.021884</ele>
        <time>2023-05-07T13:24:16.520Z</time>
      </trkpt>
      <trkpt lat="47.44029" lon="-1.5476">
        <ele>63.007825</ele>
        <time>2023-05-07T13:24:19.517Z</time>
      </trkpt>
      <trkpt lat="47.44033" lon="-1.54742">
        <ele>62.994122</ele>
        <time>2023-05-07T13:24:22.518Z</time>
      </trkpt>
      <trkpt lat="47.44037" lon="-1.54724">
        <ele>62.979947</ele>
        <time>2023-05-07T13:24:25.532Z</time>
      </trkpt>
      <trkpt lat="47.44041" lon="-1.54708">
        <ele>62.966805</ele>
        <time>2023-05-07T13:24:28.524Z</time>
      </trkpt>
      <trkpt lat="47.44045" lon="-1.54692">
        <ele>62.95429</ele>
        <time>2023-05-07T13:24:31.519Z</time>
      </trkpt>
      <trkpt lat="47.4405" lon="-1.54677">
        <ele>62.941787</ele>
        <time>2023-05-07T13:24:34.518Z</time>
      </trkpt>
      <trkpt lat="47.44052" lon="-1.54659">
        <ele>62.928333</ele>
        <time>2023-05-07T13:24:37.538Z</time>
      </trkpt>
      <trkpt lat="47.44057" lon="-1.54641">
        <ele>62.914283</ele>
        <time>2023-05-07T13:24:40.521Z</time>
      </trkpt>
      <trkpt lat="47.4406" lon="-1.54624">
        <ele>62.931486</ele>
        <time>2023-05-07T13:24:43.519Z</time>
      </trkpt>
      <trkpt lat="47.44064" lon="-1.54606">
        <ele>62.981257</ele>
        <time>2023-05-07T13:24:46.526Z</time>
      </trkpt>
      <trkpt lat="47.44068" lon="-1.54594">
        <ele>63.01623</ele>
        <time>2023-05-07T13:24:48.522Z</time>
      </trkpt>
      <trkpt lat="47.44068" lon="-1.54575">
        <ele>63.065432</ele>
        <time>2023-05-07T13:24:51.518Z</time>
      </trkpt>
      <trkpt lat="47.44069" lon="-1.54557">
        <ele>63.111295</ele>
        <time>2023-05-07T13:24:54.517Z</time>
      </trkpt>
      <trkpt lat="47.4407" lon="-1.54539">
        <ele>63.158196</ele>
        <time>2023-05-07T13:24:57.532Z</time>
      </trkpt>
      <trkpt lat="47.44071" lon="-1.54521">
        <ele>63.207224</ele>
        <time>2023-05-07T13:25:00.532Z</time>
      </trkpt>
      <trkpt lat="47.44072" lon="-1.54502">
        <ele>63.254793</ele>
        <time>2023-05-07T13:25:03.524Z</time>
      </trkpt>
      <trkpt lat="47.44073" lon="-1.54484">
        <ele>63.301774</ele>
        <time>2023-05-07T13:25:06.515Z</time>
      </trkpt>
      <trkpt lat="47.4407" lon="-1.54465">
        <ele>63.352892</ele>
        <time>2023-05-07T13:25:09.518Z</time>
      </trkpt>
      <trkpt lat="47.44069" lon="-1.54447">
        <ele>63.399812</ele>
        <time>2023-05-07T13:25:12.516Z</time>
      </trkpt>
      <trkpt lat="47.44065" lon="-1.5443">
        <ele>63.447644</ele>
        <time>2023-05-07T13:25:15.517Z</time>
      </trkpt>
      <trkpt lat="47.44063" lon="-1.54413">
        <ele>63.490552</ele>
        <time>2023-05-07T13:25:18.520Z</time>
      </trkpt>
      <trkpt lat="47.4406" lon="-1.54395">
        <ele>63.539523</ele>
        <time>2023-05-07T13:25:21.525Z</time>
      </trkpt>
      <trkpt lat="47.44055" lon="-1.54378">
        <ele>63.586718</ele>
        <time>2023-05-07T13:25:24.522Z</time>
      </trkpt>
      <trkpt lat="47.44052" lon="-1.54361">
        <ele>63.587921</ele>
        <time>2023-05-07T13:25:27.524Z</time>
      </trkpt>
      <trkpt lat="47.44048" lon="-1.54343">
        <ele>63.571985</ele>
        <time>2023-05-07T13:25:30.527Z</time>
      </trkpt>
      <trkpt lat="47.44047" lon="-1.54327">
        <ele>63.558128</ele>
        <time>2023-05-07T13:25:33.530Z</time>
      </trkpt>
      <trkpt lat="47.44045" lon="-1.54312">
        <ele>63.544239</ele>
        <time>2023-05-07T13:25:36.523Z</time>
      </trkpt>
      <trkpt lat="47.44041" lon="-1.54296">
        <ele>63.529295</ele>
        <time>2023-05-07T13:25:39.515Z</time>
      </trkpt>
      <trkpt lat="47.44036" lon="-1.5428">
        <ele>63.514331</ele>
        <time>2023-05-07T13:25:42.528Z</time>
      </trkpt>
      <trkpt lat="47.44032" lon="-1.54263">
        <ele>63.498711</ele>
        <time>2023-05-07T13:25:45.563Z</time>
      </trkpt>
      <trkpt lat="47.44029" lon="-1.54245">
        <ele>63.482507</ele>
        <time>2023-05-07T13:25:48.523Z</time>
      </trkpt>
      <trkpt lat="47.44025" lon="-1.54228">
        <ele>63.46674</ele>
        <time>2023-05-07T13:25:51.526Z</time>
      </trkpt>
      <trkpt lat="47.44023" lon="-1.5421">
        <ele>63.450952</ele>
        <time>2023-05-07T13:25:54.522Z</time>
      </trkpt>
      <trkpt lat="47.44019" lon="-1.54192">
        <ele>63.434639</ele>
        <time>2023-05-07T13:25:57.523Z</time>
      </trkpt>
      <trkpt lat="47.44016" lon="-1.54174">
        <ele>63.418282</ele>
        <time>2023-05-07T13:26:00.526Z</time>
      </trkpt>
      <trkpt lat="47.44012" lon="-1.54156">
        <ele>63.40148</ele>
        <time>2023-05-07T13:26:03.520Z</time>
      </trkpt>
      <trkpt lat="47.44008" lon="-1.54138">
        <ele>63.385009</ele>
        <time>2023-05-07T13:26:06.527Z</time>
      </trkpt>
      <trkpt lat="47.44003" lon="-1.54121">
        <ele>63.369353</ele>
        <time>2023-05-07T13:26:09.537Z</time>
      </trkpt>
      <trkpt lat="47.44001" lon="-1.54104">
        <ele>63.396129</ele>
        <time>2023-05-07T13:26:12.519Z</time>
      </trkpt>
      <trkpt lat="47.43997" lon="-1.54087">
        <ele>63.429762</ele>
        <time>2023-05-07T13:26:15.531Z</time>
      </trkpt>
      <trkpt lat="47.43993" lon="-1.5407">
        <ele>63.46264</ele>
        <time>2023-05-07T13:26:18.528Z</time>
      </trkpt>
      <trkpt lat="47.43989" lon="-1.54052">
        <ele>63.496272</ele>
        <time>2023-05-07T13:26:21.517Z</time>
      </trkpt>
      <trkpt lat="47.43985" lon="-1.54034">
        <ele>63.531034</ele>
        <time>2023-05-07T13:26:24.523Z</time>
      </trkpt>
      <trkpt lat="47.43981" lon="-1.54017">
        <ele>63.565728</ele>
        <time>2023-05-07T13:26:27.520Z</time>
      </trkpt>
      <trkpt lat="47.43976" lon="-1.54001">
        <ele>63.596845</ele>
        <time>2023-05-07T13:26:30.532Z</time>
      </trkpt>
      <trkpt lat="47.43972" lon="-1.53987">
        <ele>63.626346</ele>
        <time>2023-05-07T13:26:33.534Z</time>
      </trkpt>
      <trkpt lat="47.43967" lon="-1.53974">
        <ele>63.652814</ele>
        <time>2023-05-07T13:26:36.521Z</time>
      </trkpt>
      <trkpt lat="47.43962" lon="-1.53961">
        <ele>63.680195</ele>
        <time>2023-05-07T13:26:39.527Z</time>
      </trkpt>
      <trkpt lat="47.43956" lon="-1.53949">
        <ele>63.707703</ele>
        <time>2023-05-07T13:26:42.526Z</time>
      </trkpt>
      <trkpt lat="47.4395" lon="-1.53936">
        <ele>63.736896</ele>
        <time>2023-05-07T13:26:45.532Z</time>
      </trkpt>
      <trkpt lat="47.43942" lon="-1.53923">
        <ele>63.768419</ele>
        <time>2023-05-07T13:26:48.529Z</time>
      </trkpt>
      <trkpt lat="47.43934" lon="-1.5391">
        <ele>63.801213</ele>
        <time>2023-05-07T13:26:51.520Z</time>
      </trkpt>
      <trkpt lat="47.43926" lon="-1.53898">
        <ele>63.833222</ele>
        <time>2023-05-07T13:26:54.522Z</time>
      </trkpt>
      <trkpt lat="47.43916" lon="-1.53887">
        <ele>63.875002</ele>
        <time>2023-05-07T13:26:57.522Z</time>
      </trkpt>
      <trkpt lat="47.43906" lon="-1.53877">
        <ele>63.935763</ele>
        <time>2023-05-07T13:27:00.521Z</time>
      </trkpt>
      <trkpt lat="47.43896" lon="-1.53868">
        <ele>63.995728</ele>
        <time>2023-05-07T13:27:03.526Z</time>
      </trkpt>
      <trkpt lat="47.43886" lon="-1.5386">
        <ele>64.054996</ele>
        <time>2023-05-07T13:27:06.521Z</time>
      </trkpt>
      <trkpt lat="47.43876" lon="-1.53854">
        <ele>64.112019</ele>
        <time>2023-05-07T13:27:09.530Z</time>
      </trkpt>
      <trkpt lat="47.43866" lon="-1.5385">
        <ele>64.16492</ele>
        <time>2023-05-07T13:27:12.526Z</time>
      </trkpt>
      <trkpt lat="47.43855" lon="-1.53846">
        <ele>64.220516</ele>
        <time>2023-05-07T13:27:15.520Z</time>
      </trkpt>
      <trkpt lat="47.43844" lon="-1.53842">
        <ele>64.27929</ele>
        <time>2023-05-07T13:27:18.519Z</time>
      </trkpt>
      <trkpt lat="47.43832" lon="-1.5384">
        <ele>64.339785</ele>
        <time>2023-05-07T13:27:21.545Z</time>
      </trkpt>
      <trkpt lat="47.4382" lon="-1.53837">
        <ele>64.40231</ele>
        <time>2023-05-07T13:27:24.522Z</time>
      </trkpt>
      <trkpt lat="47.43808" lon="-1.53834">
        <ele>64.46646</ele>
        <time>2023-05-07T13:27:27.523Z</time>
      </trkpt>
      <trkpt lat="47.43795" lon="-1.53832">
        <ele>64.53089</ele>
        <time>2023-05-07T13:27:30.519Z</time>
      </trkpt>
      <trkpt lat="47.43783" lon="-1.53829">
        <ele>64.596418</ele>
        <time>2023-05-07T13:27:33.525Z</time>
      </trkpt>
      <trkpt lat="47.43771" lon="-1.53826">
        <ele>64.658748</ele>
        <time>2023-05-07T13:27:36.528Z</time>
      </trkpt>
      <trkpt lat="47.43759" lon="-1.53823">
        <ele>64.719247</ele>
        <time>2023-05-07T13:27:39.523Z</time>
      </trkpt>
      <trkpt lat="47.43749" lon="-1.53823">
        <ele>64.77304</ele>
        <time>2023-05-07T13:27:42.524Z</time>
      </trkpt>
      <trkpt lat="47.43739" lon="-1.53821">
        <ele>64.631737</ele>
        <time>2023-05-07T13:27:45.523Z</time>
      </trkpt>
      <trkpt lat="47.4373" lon="-1.53816">
        <ele>64.489103</ele>
        <time>2023-05-07T13:27:49.525Z</time>
      </trkpt>
      <trkpt lat="47.43716" lon="-1.53811">
        <ele>64.262472</ele>
        <time>2023-05-07T13:28:13.527Z</time>
      </trkpt>
      <trkpt lat="47.43705" lon="-1.53808">
        <ele>64.078591</ele>
        <time>2023-05-07T13:28:16.534Z</time>
      </trkpt>
      <trkpt lat="47.43692" lon="-1.53808">
        <ele>63.888439</ele>
        <time>2023-05-07T13:28:18.535Z</time>
      </trkpt>
      <trkpt lat="47.4368" lon="-1.53805">
        <ele>63.69618</ele>
        <time>2023-05-07T13:28:20.521Z</time>
      </trkpt>
      <trkpt lat="47.43668" lon="-1.53803">
        <ele>63.505632</ele>
        <time>2023-05-07T13:28:22.523Z</time>
      </trkpt>
      <trkpt lat="47.43657" lon="-1.53801">
        <ele>63.331975</ele>
        <time>2023-05-07T13:28:24.529Z</time>
      </trkpt>
      <trkpt lat="47.43648" lon="-1.53797">
        <ele>63.173324</ele>
        <time>2023-05-07T13:28:26.527Z</time>
      </trkpt>
      <trkpt lat="47.43638" lon="-1.53795">
        <ele>63.020174</ele>
        <time>2023-05-07T13:28:28.522Z</time>
      </trkpt>
      <trkpt lat="47.43625" lon="-1.53791">
        <ele>62.818776</ele>
        <time>2023-05-07T13:28:31.528Z</time>
      </trkpt>
      <trkpt lat="47.43614" lon="-1.53785">
        <ele>62.627056</ele>
        <time>2023-05-07T13:28:34.528Z</time>
      </trkpt>
      <trkpt lat="47.43602" lon="-1.53779">
        <ele>62.431056</ele>
        <time>2023-05-07T13:28:37.526Z</time>
      </trkpt>
      <trkpt lat="47.43591" lon="-1.53773">
        <ele>62.2391</ele>
        <time>2023-05-07T13:28:40.520Z</time>
      </trkpt>
      <trkpt lat="47.43581" lon="-1.53766">
        <ele>62.076948</ele>
        <time>2023-05-07T13:28:43.524Z</time>
      </trkpt>
      <trkpt lat="47.43571" lon="-1.5376">
        <ele>61.963213</ele>
        <time>2023-05-07T13:28:46.524Z</time>
      </trkpt>
      <trkpt lat="47.4356" lon="-1.53754">
        <ele>62.010052</ele>
        <time>2023-05-07T13:28:49.526Z</time>
      </trkpt>
      <trkpt lat="47.43549" lon="-1.53744">
        <ele>62.057938</ele>
        <time>2023-05-07T13:28:52.524Z</time>
      </trkpt>
      <trkpt lat="47.43539" lon="-1.53735">
        <ele>62.104478</ele>
        <time>2023-05-07T13:28:55.522Z</time>
      </trkpt>
      <trkpt lat="47.43529" lon="-1.53725">
        <ele>62.153171</ele>
        <time>2023-05-07T13:28:58.526Z</time>
      </trkpt>
      <trkpt lat="47.43519" lon="-1.53713">
        <ele>62.199911</ele>
        <time>2023-05-07T13:29:01.527Z</time>
      </trkpt>
      <trkpt lat="47.4351" lon="-1.53702">
        <ele>62.246775</ele>
        <time>2023-05-07T13:29:04.525Z</time>
      </trkpt>
      <trkpt lat="47.43502" lon="-1.5369">
        <ele>62.291849</ele>
        <time>2023-05-07T13:29:07.515Z</time>
      </trkpt>
      <trkpt lat="47.43494" lon="-1.53676">
        <ele>62.338619</ele>
        <time>2023-05-07T13:29:10.522Z</time>
      </trkpt>
      <trkpt lat="47.43486" lon="-1.53664">
        <ele>62.382909</ele>
        <time>2023-05-07T13:29:13.529Z</time>
      </trkpt>
      <trkpt lat="47.43478" lon="-1.53652">
        <ele>62.427348</ele>
        <time>2023-05-07T13:29:16.530Z</time>
      </trkpt>
      <trkpt lat="47.43471" lon="-1.53638">
        <ele>62.473967</ele>
        <time>2023-05-07T13:29:19.559Z</time>
      </trkpt>
      <trkpt lat="47.43465" lon="-1.53621">
        <ele>62.523077</ele>
        <time>2023-05-07T13:29:22.521Z</time>
      </trkpt>
      <trkpt lat="47.43459" lon="-1.53605">
        <ele>62.572387</ele>
        <time>2023-05-07T13:29:25.522Z</time>
      </trkpt>
      <trkpt lat="47.43452" lon="-1.53589">
        <ele>62.621721</ele>
        <time>2023-05-07T13:29:28.526Z</time>
      </trkpt>
      <trkpt lat="47.43446" lon="-1.53573">
        <ele>62.609532</ele>
        <time>2023-05-07T13:29:31.525Z</time>
      </trkpt>
      <trkpt lat="47.43439" lon="-1.53557">
        <ele>62.511658</ele>
        <time>2023-05-07T13:29:34.526Z</time>
      </trkpt>
      <trkpt lat="47.43432" lon="-1.53542">
        <ele>62.41115</ele>
        <time>2023-05-07T13:29:37.527Z</time>
      </trkpt>
      <trkpt lat="47.43426" lon="-1.53527">
        <ele>62.320738</ele>
        <time>2023-05-07T13:29:40.520Z</time>
      </trkpt>
      <trkpt lat="47.4342" lon="-1.53514">
        <ele>62.237632</ele>
        <time>2023-05-07T13:29:43.520Z</time>
      </trkpt>
      <trkpt lat="47.43415" lon="-1.53501">
        <ele>62.160792</ele>
        <time>2023-05-07T13:29:46.523Z</time>
      </trkpt>
      <trkpt lat="47.4341" lon="-1.53488">
        <ele>62.08128</ele>
        <time>2023-05-07T13:29:49.529Z</time>
      </trkpt>
      <trkpt lat="47.43405" lon="-1.53474">
        <ele>61.995039</ele>
        <time>2023-05-07T13:29:52.524Z</time>
      </trkpt>
      <trkpt lat="47.43401" lon="-1.53457">
        <ele>61.902683</ele>
        <time>2023-05-07T13:29:55.518Z</time>
      </trkpt>
      <trkpt lat="47.43398" lon="-1.5344">
        <ele>61.807621</ele>
        <time>2023-05-07T13:29:58.529Z</time>
      </trkpt>
      <trkpt lat="47.43395" lon="-1.53423">
        <ele>61.713953</ele>
        <time>2023-05-07T13:30:01.527Z</time>
      </trkpt>
      <trkpt lat="47.43392" lon="-1.53405">
        <ele>61.618566</ele>
        <time>2023-05-07T13:30:04.528Z</time>
      </trkpt>
      <trkpt lat="47.43391" lon="-1.53388">
        <ele>61.523682</ele>
        <time>2023-05-07T13:30:07.526Z</time>
      </trkpt>
      <trkpt lat="47.43391" lon="-1.5337">
        <ele>61.429959</ele>
        <time>2023-05-07T13:30:10.519Z</time>
      </trkpt>
      <trkpt lat="47.43392" lon="-1.53354">
        <ele>61.343954</ele>
        <time>2023-05-07T13:30:13.529Z</time>
      </trkpt>
      <trkpt lat="47.43392" lon="-1.53338">
        <ele>61.263285</ele>
        <time>2023-05-07T13:30:16.531Z</time>
      </trkpt>
      <trkpt lat="47.43393" lon="-1.53322">
        <ele>61.286101</ele>
        <time>2023-05-07T13:30:19.522Z</time>
      </trkpt>
      <trkpt lat="47.43393" lon="-1.53305">
        <ele>61.345081</ele>
        <time>2023-05-07T13:30:22.528Z</time>
      </trkpt>
      <trkpt lat="47.43395" lon="-1.53289">
        <ele>61.39791</ele>
        <time>2023-05-07T13:30:25.528Z</time>
      </trkpt>
      <trkpt lat="47.43396" lon="-1.53273">
        <ele>61.456075</ele>
        <time>2023-05-07T13:30:28.524Z</time>
      </trkpt>
      <trkpt lat="47.43398" lon="-1.53255">
        <ele>61.516477</ele>
        <time>2023-05-07T13:30:31.525Z</time>
      </trkpt>
      <trkpt lat="47.43399" lon="-1.53238">
        <ele>61.576056</ele>
        <time>2023-05-07T13:30:34.521Z</time>
      </trkpt>
      <trkpt lat="47.43401" lon="-1.53219">
        <ele>61.640696</ele>
        <time>2023-05-07T13:30:37.521Z</time>
      </trkpt>
      <trkpt lat="47.43402" lon="-1.53201">
        <ele>61.704619</ele>
        <time>2023-05-07T13:30:40.521Z</time>
      </trkpt>
      <trkpt lat="47.43404" lon="-1.53182">
        <ele>61.767901</ele>
        <time>2023-05-07T13:30:43.523Z</time>
      </trkpt>
      <trkpt lat="47.43405" lon="-1.53164">
        <ele>61.830238</ele>
        <time>2023-05-07T13:30:46.530Z</time>
      </trkpt>
      <trkpt lat="47.43408" lon="-1.53147">
        <ele>61.889733</ele>
        <time>2023-05-07T13:30:49.528Z</time>
      </trkpt>
      <trkpt lat="47.4341" lon="-1.53131">
        <ele>61.946676</ele>
        <time>2023-05-07T13:30:52.527Z</time>
      </trkpt>
      <trkpt lat="47.43412" lon="-1.53115">
        <ele>62.002162</ele>
        <time>2023-05-07T13:30:55.519Z</time>
      </trkpt>
      <trkpt lat="47.43413" lon="-1.531">
        <ele>62.05371</ele>
        <time>2023-05-07T13:30:58.523Z</time>
      </trkpt>
      <trkpt lat="47.43413" lon="-1.53083">
        <ele>62.110637</ele>
        <time>2023-05-07T13:31:01.531Z</time>
      </trkpt>
      <trkpt lat="47.43415" lon="-1.53066">
        <ele>62.1288</ele>
        <time>2023-05-07T13:31:04.525Z</time>
      </trkpt>
      <trkpt lat="47.43416" lon="-1.53049">
        <ele>62.044606</ele>
        <time>2023-05-07T13:31:07.523Z</time>
      </trkpt>
      <trkpt lat="47.43417" lon="-1.53032">
        <ele>61.961521</ele>
        <time>2023-05-07T13:31:10.521Z</time>
      </trkpt>
      <trkpt lat="47.43417" lon="-1.53014">
        <ele>61.869636</ele>
        <time>2023-05-07T13:31:13.526Z</time>
      </trkpt>
      <trkpt lat="47.43417" lon="-1.52996">
        <ele>61.781387</ele>
        <time>2023-05-07T13:31:16.527Z</time>
      </trkpt>
      <trkpt lat="47.43417" lon="-1.52979">
        <ele>61.699496</ele>
        <time>2023-05-07T13:31:19.525Z</time>
      </trkpt>
      <trkpt lat="47.43415" lon="-1.52962">
        <ele>61.616369</ele>
        <time>2023-05-07T13:31:22.525Z</time>
      </trkpt>
      <trkpt lat="47.43412" lon="-1.52945">
        <ele>61.526434</ele>
        <time>2023-05-07T13:31:25.522Z</time>
      </trkpt>
      <trkpt lat="47.43408" lon="-1.52928">
        <ele>61.436804</ele>
        <time>2023-05-07T13:31:28.525Z</time>
      </trkpt>
      <trkpt lat="47.43402" lon="-1.52912">
        <ele>61.347955</ele>
        <time>2023-05-07T13:31:31.526Z</time>
      </trkpt>
      <trkpt lat="47.43395" lon="-1.52896">
        <ele>61.25565</ele>
        <time>2023-05-07T13:31:34.527Z</time>
      </trkpt>
      <trkpt lat="47.43388" lon="-1.52884">
        <ele>61.174375</ele>
        <time>2023-05-07T13:31:37.527Z</time>
      </trkpt>
      <trkpt lat="47.4338" lon="-1.52874">
        <ele>61.096585</ele>
        <time>2023-05-07T13:31:40.522Z</time>
      </trkpt>
      <trkpt lat="47.43371" lon="-1.52865">
        <ele>61.018875</ele>
        <time>2023-05-07T13:31:43.525Z</time>
      </trkpt>
      <trkpt lat="47.43362" lon="-1.52855">
        <ele>60.937042</ele>
        <time>2023-05-07T13:31:46.534Z</time>
      </trkpt>
      <trkpt lat="47.43351" lon="-1.52846">
        <ele>60.846048</ele>
        <time>2023-05-07T13:31:49.530Z</time>
      </trkpt>
      <trkpt lat="47.4334" lon="-1.52839">
        <ele>60.969823</ele>
        <time>2023-05-07T13:31:52.523Z</time>
      </trkpt>
      <trkpt lat="47.43328" lon="-1.52833">
        <ele>61.102278</ele>
        <time>2023-05-07T13:31:55.519Z</time>
      </trkpt>
      <trkpt lat="47.43317" lon="-1.52829">
        <ele>61.230626</ele>
        <time>2023-05-07T13:31:58.525Z</time>
      </trkpt>
      <trkpt lat="47.43305" lon="-1.52826">
        <ele>61.356796</ele>
        <time>2023-05-07T13:32:01.532Z</time>
      </trkpt>
      <trkpt lat="47.43293" lon="-1.52824">
        <ele>61.48881</ele>
        <time>2023-05-07T13:32:04.528Z</time>
      </trkpt>
      <trkpt lat="47.43281" lon="-1.52821">
        <ele>61.621947</ele>
        <time>2023-05-07T13:32:07.528Z</time>
      </trkpt>
      <trkpt lat="47.43269" lon="-1.52819">
        <ele>61.752952</ele>
        <time>2023-05-07T13:32:10.518Z</time>
      </trkpt>
      <trkpt lat="47.43257" lon="-1.52817">
        <ele>61.882876</ele>
        <time>2023-05-07T13:32:13.526Z</time>
      </trkpt>
      <trkpt lat="47.43246" lon="-1.52817">
        <ele>62.006748</ele>
        <time>2023-05-07T13:32:16.528Z</time>
      </trkpt>
      <trkpt lat="47.43236" lon="-1.52816">
        <ele>62.114478</ele>
        <time>2023-05-07T13:32:19.523Z</time>
      </trkpt>
      <trkpt lat="47.43225" lon="-1.52817">
        <ele>62.236204</ele>
        <time>2023-05-07T13:32:23.523Z</time>
      </trkpt>
      <trkpt lat="47.43213" lon="-1.52816">
        <ele>62.365529</ele>
        <time>2023-05-07T13:32:27.525Z</time>
      </trkpt>
      <trkpt lat="47.432" lon="-1.52819">
        <ele>62.500697</ele>
        <time>2023-05-07T13:32:31.522Z</time>
      </trkpt>
      <trkpt lat="47.4319" lon="-1.52822">
        <ele>62.620332</ele>
        <time>2023-05-07T13:32:34.527Z</time>
      </trkpt>
      <trkpt lat="47.43179" lon="-1.52827">
        <ele>62.74574</ele>
        <time>2023-05-07T13:32:37.521Z</time>
      </trkpt>
      <trkpt lat="47.43169" lon="-1.5283">
        <ele>62.786236</ele>
        <time>2023-05-07T13:32:46.526Z</time>
      </trkpt>
      <trkpt lat="47.43161" lon="-1.52835">
        <ele>62.767734</ele>
        <time>2023-05-07T13:33:07.514Z</time>
      </trkpt>
      <trkpt lat="47.43152" lon="-1.52843">
        <ele>62.746</ele>
        <time>2023-05-07T13:33:15.517Z</time>
      </trkpt>
      <trkpt lat="47.4314" lon="-1.52853">
        <ele>62.718726</ele>
        <time>2023-05-07T13:33:18.526Z</time>
      </trkpt>
      <trkpt lat="47.43131" lon="-1.52865">
        <ele>62.692829</ele>
        <time>2023-05-07T13:33:20.526Z</time>
      </trkpt>
      <trkpt lat="47.4312" lon="-1.52878">
        <ele>62.664653</ele>
        <time>2023-05-07T13:33:22.526Z</time>
      </trkpt>
      <trkpt lat="47.43111" lon="-1.52893">
        <ele>62.637035</ele>
        <time>2023-05-07T13:33:24.530Z</time>
      </trkpt>
      <trkpt lat="47.43104" lon="-1.52908">
        <ele>62.611293</ele>
        <time>2023-05-07T13:33:26.523Z</time>
      </trkpt>
      <trkpt lat="47.43096" lon="-1.52924">
        <ele>62.584885</ele>
        <time>2023-05-07T13:33:28.528Z</time>
      </trkpt>
      <trkpt lat="47.4309" lon="-1.52937">
        <ele>62.562367</ele>
        <time>2023-05-07T13:33:30.522Z</time>
      </trkpt>
      <trkpt lat="47.43084" lon="-1.5295">
        <ele>62.5403</ele>
        <time>2023-05-07T13:33:32.526Z</time>
      </trkpt>
      <trkpt lat="47.43078" lon="-1.52962">
        <ele>62.519384</ele>
        <time>2023-05-07T13:33:34.516Z</time>
      </trkpt>
      <trkpt lat="47.43072" lon="-1.52974">
        <ele>62.499454</ele>
        <time>2023-05-07T13:33:36.519Z</time>
      </trkpt>
      <trkpt lat="47.43064" lon="-1.52986">
        <ele>62.474636</ele>
        <time>2023-05-07T13:33:39.520Z</time>
      </trkpt>
      <trkpt lat="47.43056" lon="-1.52998">
        <ele>62.452551</ele>
        <time>2023-05-07T13:33:42.524Z</time>
      </trkpt>
      <trkpt lat="47.43049" lon="-1.53006">
        <ele>62.433178</ele>
        <time>2023-05-07T13:33:44.523Z</time>
      </trkpt>
      <trkpt lat="47.4304" lon="-1.53018">
        <ele>62.326006</ele>
        <time>2023-05-07T13:33:47.524Z</time>
      </trkpt>
      <trkpt lat="47.4303" lon="-1.53027">
        <ele>62.19879</ele>
        <time>2023-05-07T13:33:50.525Z</time>
      </trkpt>
      <trkpt lat="47.4302" lon="-1.53035">
        <ele>62.068369</ele>
        <time>2023-05-07T13:33:53.534Z</time>
      </trkpt>
      <trkpt lat="47.43009" lon="-1.53043">
        <ele>61.936051</ele>
        <time>2023-05-07T13:33:56.521Z</time>
      </trkpt>
      <trkpt lat="47.42999" lon="-1.53049">
        <ele>61.812041</ele>
        <time>2023-05-07T13:33:59.522Z</time>
      </trkpt>
      <trkpt lat="47.42988" lon="-1.53054">
        <ele>61.683782</ele>
        <time>2023-05-07T13:34:02.525Z</time>
      </trkpt>
      <trkpt lat="47.42977" lon="-1.53057">
        <ele>61.560961</ele>
        <time>2023-05-07T13:34:05.528Z</time>
      </trkpt>
      <trkpt lat="47.42968" lon="-1.53059">
        <ele>61.45004</ele>
        <time>2023-05-07T13:34:08.528Z</time>
      </trkpt>
      <trkpt lat="47.42959" lon="-1.5306">
        <ele>61.348818</ele>
        <time>2023-05-07T13:34:11.519Z</time>
      </trkpt>
      <trkpt lat="47.42949" lon="-1.5306">
        <ele>61.243514</ele>
        <time>2023-05-07T13:34:14.525Z</time>
      </trkpt>
      <trkpt lat="47.42938" lon="-1.53058">
        <ele>61.122607</ele>
        <time>2023-05-07T13:34:18.527Z</time>
      </trkpt>
      <trkpt lat="47.42929" lon="-1.53058">
        <ele>61.020672</ele>
        <time>2023-05-07T13:34:21.522Z</time>
      </trkpt>
      <trkpt lat="47.42918" lon="-1.53056">
        <ele>60.895416</ele>
        <time>2023-05-07T13:34:25.526Z</time>
      </trkpt>
      <trkpt lat="47.42909" lon="-1.53056">
        <ele>60.793472</ele>
        <time>2023-05-07T13:34:29.527Z</time>
      </trkpt>
      <trkpt lat="47.429" lon="-1.53056">
        <ele>60.685928</ele>
        <time>2023-05-07T13:34:40.518Z</time>
      </trkpt>
      <trkpt lat="47.42888" lon="-1.53058">
        <ele>60.559268</ele>
        <time>2023-05-07T13:34:46.511Z</time>
      </trkpt>
      <trkpt lat="47.42878" lon="-1.53057">
        <ele>60.439327</ele>
        <time>2023-05-07T13:34:50.526Z</time>
      </trkpt>
      <trkpt lat="47.42868" lon="-1.53057">
        <ele>60.390532</ele>
        <time>2023-05-07T13:34:53.526Z</time>
      </trkpt>
      <trkpt lat="47.42857" lon="-1.53055">
        <ele>60.358148</ele>
        <time>2023-05-07T13:34:56.521Z</time>
      </trkpt>
      <trkpt lat="47.42847" lon="-1.53053">
        <ele>60.326492</ele>
        <time>2023-05-07T13:34:59.523Z</time>
      </trkpt>
      <trkpt lat="47.42837" lon="-1.53051">
        <ele>60.296862</ele>
        <time>2023-05-07T13:35:02.527Z</time>
      </trkpt>
      <trkpt lat="47.42827" lon="-1.5305">
        <ele>60.267395</ele>
        <time>2023-05-07T13:35:05.525Z</time>
      </trkpt>
      <trkpt lat="47.42815" lon="-1.53052">
        <ele>60.230812</ele>
        <time>2023-05-07T13:35:08.525Z</time>
      </trkpt>
      <trkpt lat="47.42805" lon="-1.53052">
        <ele>60.198743</ele>
        <time>2023-05-07T13:35:11.521Z</time>
      </trkpt>
      <trkpt lat="47.42794" lon="-1.53053">
        <ele>60.164784</ele>
        <time>2023-05-07T13:35:14.526Z</time>
      </trkpt>
      <trkpt lat="47.42782" lon="-1.53055">
        <ele>60.128448</ele>
        <time>2023-05-07T13:35:17.525Z</time>
      </trkpt>
      <trkpt lat="47.42771" lon="-1.53057">
        <ele>60.095243</ele>
        <time>2023-05-07T13:35:20.525Z</time>
      </trkpt>
      <trkpt lat="47.42759" lon="-1.53061">
        <ele>60.057051</ele>
        <time>2023-05-07T13:35:23.525Z</time>
      </trkpt>
      <trkpt lat="47.42747" lon="-1.53067">
        <ele>60.020088</ele>
        <time>2023-05-07T13:35:26.522Z</time>
      </trkpt>
      <trkpt lat="47.42737" lon="-1.5307">
        <ele>59.990313</ele>
        <time>2023-05-07T13:35:29.523Z</time>
      </trkpt>
      <trkpt lat="47.42728" lon="-1.53075">
        <ele>59.960511</ele>
        <time>2023-05-07T13:35:32.525Z</time>
      </trkpt>
      <trkpt lat="47.42718" lon="-1.5308">
        <ele>59.929754</ele>
        <time>2023-05-07T13:35:35.526Z</time>
      </trkpt>
      <trkpt lat="47.42707" lon="-1.53086">
        <ele>59.891584</ele>
        <time>2023-05-07T13:35:39.522Z</time>
      </trkpt>
      <trkpt lat="47.42698" lon="-1.53094">
        <ele>59.885329</ele>
        <time>2023-05-07T13:35:42.526Z</time>
      </trkpt>
      <trkpt lat="47.4269" lon="-1.531">
        <ele>59.94184</ele>
        <time>2023-05-07T13:35:45.526Z</time>
      </trkpt>
      <trkpt lat="47.42681" lon="-1.53108">
        <ele>60.005983</ele>
        <time>2023-05-07T13:35:48.526Z</time>
      </trkpt>
      <trkpt lat="47.42672" lon="-1.53117">
        <ele>60.074105</ele>
        <time>2023-05-07T13:35:51.520Z</time>
      </trkpt>
      <trkpt lat="47.42662" lon="-1.53127">
        <ele>60.148099</ele>
        <time>2023-05-07T13:35:54.524Z</time>
      </trkpt>
      <trkpt lat="47.42653" lon="-1.53138">
        <ele>60.219743</ele>
        <time>2023-05-07T13:35:57.526Z</time>
      </trkpt>
      <trkpt lat="47.42645" lon="-1.5315">
        <ele>60.29035</ele>
        <time>2023-05-07T13:36:00.520Z</time>
      </trkpt>
      <trkpt lat="47.42637" lon="-1.53161">
        <ele>60.358849</ele>
        <time>2023-05-07T13:36:03.522Z</time>
      </trkpt>
      <trkpt lat="47.42629" lon="-1.53173">
        <ele>60.432811</ele>
        <time>2023-05-07T13:36:06.522Z</time>
      </trkpt>
      <trkpt lat="47.4262" lon="-1.53185">
        <ele>60.504622</ele>
        <time>2023-05-07T13:36:09.527Z</time>
      </trkpt>
      <trkpt lat="47.42612" lon="-1.53196">
        <ele>60.574947</ele>
        <time>2023-05-07T13:36:12.531Z</time>
      </trkpt>
      <trkpt lat="47.42603" lon="-1.53209">
        <ele>60.651849</ele>
        <time>2023-05-07T13:36:16.521Z</time>
      </trkpt>
      <trkpt lat="47.42596" lon="-1.53221">
        <ele>60.719938</ele>
        <time>2023-05-07T13:36:20.526Z</time>
      </trkpt>
      <trkpt lat="47.42589" lon="-1.53241">
        <ele>60.812577</ele>
        <time>2023-05-07T13:39:39.515Z</time>
      </trkpt>
      <trkpt lat="47.42588" lon="-1.53226">
        <ele>60.871959</ele>
        <time>2023-05-07T13:40:05.517Z</time>
      </trkpt>
      <trkpt lat="47.42586" lon="-1.5321">
        <ele>60.940694</ele>
        <time>2023-05-07T13:40:09.520Z</time>
      </trkpt>
      <trkpt lat="47.42588" lon="-1.53191">
        <ele>61.009483</ele>
        <time>2023-05-07T13:40:12.527Z</time>
      </trkpt>
      <trkpt lat="47.42586" lon="-1.53173">
        <ele>61.062373</ele>
        <time>2023-05-07T13:40:15.518Z</time>
      </trkpt>
      <trkpt lat="47.42582" lon="-1.53155">
        <ele>61.114195</ele>
        <time>2023-05-07T13:40:18.526Z</time>
      </trkpt>
      <trkpt lat="47.42578" lon="-1.53139">
        <ele>61.16337</ele>
        <time>2023-05-07T13:40:21.527Z</time>
      </trkpt>
      <trkpt lat="47.42576" lon="-1.53122">
        <ele>61.211017</ele>
        <time>2023-05-07T13:40:24.524Z</time>
      </trkpt>
      <trkpt lat="47.42576" lon="-1.53106">
        <ele>61.255711</ele>
        <time>2023-05-07T13:40:28.521Z</time>
      </trkpt>
      <trkpt lat="47.42581" lon="-1.53093">
        <ele>61.295656</ele>
        <time>2023-05-07T13:40:33.522Z</time>
      </trkpt>
      <trkpt lat="47.42582" lon="-1.53079">
        <ele>61.336142</ele>
        <time>2023-05-07T13:40:49.528Z</time>
      </trkpt>
      <trkpt lat="47.42588" lon="-1.53066">
        <ele>61.381257</ele>
        <time>2023-05-07T13:40:56.523Z</time>
      </trkpt>
      <trkpt lat="47.42593" lon="-1.53052">
        <ele>61.424543</ele>
        <time>2023-05-07T13:41:01.526Z</time>
      </trkpt>
      <trkpt lat="47.42598" lon="-1.5304">
        <ele>61.463198</ele>
        <time>2023-05-07T13:41:06.524Z</time>
      </trkpt>
      <trkpt lat="47.42604" lon="-1.53029">
        <ele>61.500691</ele>
        <time>2023-05-07T13:41:10.524Z</time>
      </trkpt>
      <trkpt lat="47.42609" lon="-1.53019">
        <ele>61.537978</ele>
        <time>2023-05-07T13:41:14.526Z</time>
      </trkpt>
      <trkpt lat="47.42614" lon="-1.53005">
        <ele>61.582993</ele>
        <time>2023-05-07T13:41:19.524Z</time>
      </trkpt>
      <trkpt lat="47.42619" lon="-1.52993">
        <ele>61.622413</ele>
        <time>2023-05-07T13:41:23.524Z</time>
      </trkpt>
      <trkpt lat="47.42624" lon="-1.52978">
        <ele>61.665869</ele>
        <time>2023-05-07T13:41:27.528Z</time>
      </trkpt>
      <trkpt lat="47.42626" lon="-1.52962">
        <ele>61.713757</ele>
        <time>2023-05-07T13:41:31.522Z</time>
      </trkpt>
      <trkpt lat="47.42628" lon="-1.52947">
        <ele>61.637953</ele>
        <time>2023-05-07T13:41:34.524Z</time>
      </trkpt>
      <trkpt lat="47.42628" lon="-1.52934">
        <ele>61.501011</ele>
        <time>2023-05-07T13:41:37.523Z</time>
      </trkpt>
      <trkpt lat="47.42628" lon="-1.52919">
        <ele>61.349837</ele>
        <time>2023-05-07T13:41:40.515Z</time>
      </trkpt>
      <trkpt lat="47.42629" lon="-1.52903">
        <ele>61.191262</ele>
        <time>2023-05-07T13:41:43.531Z</time>
      </trkpt>
      <trkpt lat="47.42629" lon="-1.52888">
        <ele>61.031859</ele>
        <time>2023-05-07T13:41:46.523Z</time>
      </trkpt>
      <trkpt lat="47.4263" lon="-1.52874">
        <ele>60.886186</ele>
        <time>2023-05-07T13:41:49.527Z</time>
      </trkpt>
      <trkpt lat="47.42629" lon="-1.52857">
        <ele>60.711365</ele>
        <time>2023-05-07T13:41:53.523Z</time>
      </trkpt>
      <trkpt lat="47.42631" lon="-1.52841">
        <ele>60.555254</ele>
        <time>2023-05-07T13:41:56.521Z</time>
      </trkpt>
      <trkpt lat="47.42633" lon="-1.52826">
        <ele>60.399653</ele>
        <time>2023-05-07T13:42:00.518Z</time>
      </trkpt>
      <trkpt lat="47.42636" lon="-1.52813">
        <ele>60.250155</ele>
        <time>2023-05-07T13:42:04.524Z</time>
      </trkpt>
      <trkpt lat="47.4264" lon="-1.52801">
        <ele>60.113258</ele>
        <time>2023-05-07T13:42:07.527Z</time>
      </trkpt>
      <trkpt lat="47.42645" lon="-1.52788">
        <ele>59.966121</ele>
        <time>2023-05-07T13:42:10.518Z</time>
      </trkpt>
      <trkpt lat="47.4265" lon="-1.52775">
        <ele>59.818264</ele>
        <time>2023-05-07T13:42:13.527Z</time>
      </trkpt>
      <trkpt lat="47.42653" lon="-1.52761">
        <ele>59.662484</ele>
        <time>2023-05-07T13:42:16.527Z</time>
      </trkpt>
      <trkpt lat="47.42657" lon="-1.52746">
        <ele>59.496013</ele>
        <time>2023-05-07T13:42:19.522Z</time>
      </trkpt>
      <trkpt lat="47.4266" lon="-1.5273">
        <ele>59.328965</ele>
        <time>2023-05-07T13:42:22.519Z</time>
      </trkpt>
      <trkpt lat="47.42663" lon="-1.52714">
        <ele>59.155721</ele>
        <time>2023-05-07T13:42:25.518Z</time>
      </trkpt>
      <trkpt lat="47.42665" lon="-1.52699">
        <ele>59.01492</ele>
        <time>2023-05-07T13:42:28.526Z</time>
      </trkpt>
      <trkpt lat="47.42669" lon="-1.52684">
        <ele>59.02391</ele>
        <time>2023-05-07T13:42:31.516Z</time>
      </trkpt>
      <trkpt lat="47.42672" lon="-1.52669">
        <ele>59.032619</ele>
        <time>2023-05-07T13:42:34.523Z</time>
      </trkpt>
      <trkpt lat="47.42675" lon="-1.52654">
        <ele>59.041754</ele>
        <time>2023-05-07T13:42:37.531Z</time>
      </trkpt>
      <trkpt lat="47.42678" lon="-1.52637">
        <ele>59.051446</ele>
        <time>2023-05-07T13:42:40.523Z</time>
      </trkpt>
      <trkpt lat="47.42683" lon="-1.52623">
        <ele>59.060758</ele>
        <time>2023-05-07T13:42:43.524Z</time>
      </trkpt>
      <trkpt lat="47.42689" lon="-1.52607">
        <ele>59.070726</ele>
        <time>2023-05-07T13:42:46.523Z</time>
      </trkpt>
      <trkpt lat="47.42694" lon="-1.52593">
        <ele>59.080078</ele>
        <time>2023-05-07T13:42:49.521Z</time>
      </trkpt>
      <trkpt lat="47.42699" lon="-1.5258">
        <ele>59.08851</ele>
        <time>2023-05-07T13:42:52.523Z</time>
      </trkpt>
      <trkpt lat="47.42705" lon="-1.52567">
        <ele>59.097324</ele>
        <time>2023-05-07T13:42:56.524Z</time>
      </trkpt>
      <trkpt lat="47.42715" lon="-1.52558">
        <ele>59.106905</ele>
        <time>2023-05-07T13:43:00.530Z</time>
      </trkpt>
      <trkpt lat="47.42724" lon="-1.52551">
        <ele>59.115667</ele>
        <time>2023-05-07T13:43:03.528Z</time>
      </trkpt>
      <trkpt lat="47.42734" lon="-1.52543">
        <ele>59.125248</ele>
        <time>2023-05-07T13:43:06.524Z</time>
      </trkpt>
      <trkpt lat="47.42744" lon="-1.52539">
        <ele>59.134218</ele>
        <time>2023-05-07T13:43:09.527Z</time>
      </trkpt>
      <trkpt lat="47.42754" lon="-1.52535">
        <ele>59.142931</ele>
        <time>2023-05-07T13:43:12.520Z</time>
      </trkpt>
      <trkpt lat="47.42762" lon="-1.52528">
        <ele>59.150623</ele>
        <time>2023-05-07T13:43:15.526Z</time>
      </trkpt>
      <trkpt lat="47.42769" lon="-1.52515">
        <ele>59.159983</ele>
        <time>2023-05-07T13:43:19.526Z</time>
      </trkpt>
      <trkpt lat="47.42776" lon="-1.52504">
        <ele>59.194459</ele>
        <time>2023-05-07T13:43:22.524Z</time>
      </trkpt>
      <trkpt lat="47.42782" lon="-1.52493">
        <ele>59.264354</ele>
        <time>2023-05-07T13:43:25.526Z</time>
      </trkpt>
      <trkpt lat="47.42789" lon="-1.52479">
        <ele>59.3529</ele>
        <time>2023-05-07T13:43:29.527Z</time>
      </trkpt>
      <trkpt lat="47.42795" lon="-1.5247">
        <ele>59.418855</ele>
        <time>2023-05-07T13:43:32.526Z</time>
      </trkpt>
      <trkpt lat="47.42803" lon="-1.52458">
        <ele>59.500504</ele>
        <time>2023-05-07T13:43:36.517Z</time>
      </trkpt>
      <trkpt lat="47.42809" lon="-1.52447">
        <ele>59.569905</ele>
        <time>2023-05-07T13:43:39.523Z</time>
      </trkpt>
      <trkpt lat="47.42815" lon="-1.52436">
        <ele>59.640548</ele>
        <time>2023-05-07T13:43:42.524Z</time>
      </trkpt>
      <trkpt lat="47.42822" lon="-1.52426">
        <ele>59.714319</ele>
        <time>2023-05-07T13:43:45.523Z</time>
      </trkpt>
      <trkpt lat="47.42827" lon="-1.52413">
        <ele>59.786639</ele>
        <time>2023-05-07T13:43:48.524Z</time>
      </trkpt>
      <trkpt lat="47.4283" lon="-1.52397">
        <ele>59.871057</ele>
        <time>2023-05-07T13:43:51.522Z</time>
      </trkpt>
      <trkpt lat="47.42833" lon="-1.52379">
        <ele>59.962391</ele>
        <time>2023-05-07T13:43:54.524Z</time>
      </trkpt>
      <trkpt lat="47.42835" lon="-1.52359">
        <ele>60.060404</ele>
        <time>2023-05-07T13:43:57.527Z</time>
      </trkpt>
      <trkpt lat="47.42836" lon="-1.52346">
        <ele>60.129405</ele>
        <time>2023-05-07T13:43:59.526Z</time>
      </trkpt>
      <trkpt lat="47.42838" lon="-1.52326">
        <ele>60.229709</ele>
        <time>2023-05-07T13:44:02.524Z</time>
      </trkpt>
      <trkpt lat="47.42839" lon="-1.52312">
        <ele>60.297519</ele>
        <time>2023-05-07T13:44:04.524Z</time>
      </trkpt>
      <trkpt lat="47.4284" lon="-1.52292">
        <ele>60.39652</ele>
        <time>2023-05-07T13:44:07.523Z</time>
      </trkpt>
      <trkpt lat="47.42842" lon="-1.52275">
        <ele>60.483552</ele>
        <time>2023-05-07T13:44:10.532Z</time>
      </trkpt>
      <trkpt lat="47.42842" lon="-1.52257">
        <ele>60.796236</ele>
        <time>2023-05-07T13:44:13.524Z</time>
      </trkpt>
      <trkpt lat="47.42844" lon="-1.52239">
        <ele>61.142756</ele>
        <time>2023-05-07T13:44:16.518Z</time>
      </trkpt>
      <trkpt lat="47.42845" lon="-1.5222">
        <ele>61.490169</ele>
        <time>2023-05-07T13:44:19.521Z</time>
      </trkpt>
      <trkpt lat="47.42846" lon="-1.52202">
        <ele>61.830596</ele>
        <time>2023-05-07T13:44:22.526Z</time>
      </trkpt>
      <trkpt lat="47.42852" lon="-1.52188">
        <ele>62.147436</ele>
        <time>2023-05-07T13:44:25.528Z</time>
      </trkpt>
      <trkpt lat="47.42861" lon="-1.5218">
        <ele>62.435695</ele>
        <time>2023-05-07T13:44:28.527Z</time>
      </trkpt>
      <trkpt lat="47.42872" lon="-1.52172">
        <ele>62.777451</ele>
        <time>2023-05-07T13:44:33.523Z</time>
      </trkpt>
      <trkpt lat="47.42882" lon="-1.52162">
        <ele>63.100193</ele>
        <time>2023-05-07T13:44:37.523Z</time>
      </trkpt>
      <trkpt lat="47.42892" lon="-1.52155">
        <ele>63.413173</ele>
        <time>2023-05-07T13:44:40.520Z</time>
      </trkpt>
      <trkpt lat="47.42901" lon="-1.52149">
        <ele>63.696643</ele>
        <time>2023-05-07T13:44:43.523Z</time>
      </trkpt>
      <trkpt lat="47.42911" lon="-1.52142">
        <ele>63.98323</ele>
        <time>2023-05-07T13:44:46.519Z</time>
      </trkpt>
      <trkpt lat="47.42918" lon="-1.52134">
        <ele>64.243496</ele>
        <time>2023-05-07T13:44:49.520Z</time>
      </trkpt>
      <trkpt lat="47.42927" lon="-1.52126">
        <ele>64.528004</ele>
        <time>2023-05-07T13:44:52.524Z</time>
      </trkpt>
      <trkpt lat="47.42936" lon="-1.52119">
        <ele>64.803938</ele>
        <time>2023-05-07T13:44:55.528Z</time>
      </trkpt>
      <trkpt lat="47.42945" lon="-1.52111">
        <ele>65.084153</ele>
        <time>2023-05-07T13:44:58.525Z</time>
      </trkpt>
      <trkpt lat="47.42954" lon="-1.52102">
        <ele>65.386561</ele>
        <time>2023-05-07T13:45:01.519Z</time>
      </trkpt>
      <trkpt lat="47.42963" lon="-1.52093">
        <ele>65.491295</ele>
        <time>2023-05-07T13:45:04.527Z</time>
      </trkpt>
      <trkpt lat="47.4297" lon="-1.52085">
        <ele>65.541934</ele>
        <time>2023-05-07T13:45:07.525Z</time>
      </trkpt>
      <trkpt lat="47.4298" lon="-1.52076">
        <ele>65.603251</ele>
        <time>2023-05-07T13:45:10.528Z</time>
      </trkpt>
      <trkpt lat="47.42989" lon="-1.52069">
        <ele>65.660514</ele>
        <time>2023-05-07T13:45:13.524Z</time>
      </trkpt>
      <trkpt lat="47.42998" lon="-1.52062">
        <ele>65.71458</ele>
        <time>2023-05-07T13:45:16.520Z</time>
      </trkpt>
      <trkpt lat="47.43008" lon="-1.52052">
        <ele>65.779034</ele>
        <time>2023-05-07T13:45:20.526Z</time>
      </trkpt>
      <trkpt lat="47.43017" lon="-1.52049">
        <ele>65.832987</ele>
        <time>2023-05-07T13:45:24.524Z</time>
      </trkpt>
      <trkpt lat="47.43028" lon="-1.52056">
        <ele>65.895983</ele>
        <time>2023-05-07T13:45:28.521Z</time>
      </trkpt>
      <trkpt lat="47.43039" lon="-1.52059">
        <ele>65.955225</ele>
        <time>2023-05-07T13:45:32.524Z</time>
      </trkpt>
      <trkpt lat="47.4305" lon="-1.52063">
        <ele>66.017162</ele>
        <time>2023-05-07T13:45:36.519Z</time>
      </trkpt>
      <trkpt lat="47.43059" lon="-1.52062">
        <ele>66.066317</ele>
        <time>2023-05-07T13:45:39.516Z</time>
      </trkpt>
      <trkpt lat="47.43066" lon="-1.52052">
        <ele>66.117976</ele>
        <time>2023-05-07T13:45:42.528Z</time>
      </trkpt>
      <trkpt lat="47.43071" lon="-1.52041">
        <ele>66.170824</ele>
        <time>2023-05-07T13:45:45.524Z</time>
      </trkpt>
      <trkpt lat="47.43076" lon="-1.52028">
        <ele>66.224005</ele>
        <time>2023-05-07T13:45:48.526Z</time>
      </trkpt>
      <trkpt lat="47.43082" lon="-1.52016">
        <ele>66.277774</ele>
        <time>2023-05-07T13:45:52.526Z</time>
      </trkpt>
      <trkpt lat="47.43087" lon="-1.52002">
        <ele>66.336845</ele>
        <time>2023-05-07T13:45:57.527Z</time>
      </trkpt>
      <trkpt lat="47.43092" lon="-1.51987">
        <ele>66.397361</ele>
        <time>2023-05-07T13:46:02.527Z</time>
      </trkpt>
      <trkpt lat="47.43094" lon="-1.51972">
        <ele>66.60923</ele>
        <time>2023-05-07T13:46:06.520Z</time>
      </trkpt>
      <trkpt lat="47.43094" lon="-1.51957">
        <ele>66.916842</ele>
        <time>2023-05-07T13:46:10.524Z</time>
      </trkpt>
      <trkpt lat="47.43094" lon="-1.51943">
        <ele>67.203768</ele>
        <time>2023-05-07T13:46:14.525Z</time>
      </trkpt>
      <trkpt lat="47.43095" lon="-1.51929">
        <ele>67.503622</ele>
        <time>2023-05-07T13:46:18.523Z</time>
      </trkpt>
      <trkpt lat="47.43096" lon="-1.51912">
        <ele>67.855844</ele>
        <time>2023-05-07T13:46:22.525Z</time>
      </trkpt>
      <trkpt lat="47.43096" lon="-1.51898">
        <ele>68.142754</ele>
        <time>2023-05-07T13:46:25.527Z</time>
      </trkpt>
      <trkpt lat="47.43096" lon="-1.51883">
        <ele>68.442297</ele>
        <time>2023-05-07T13:46:28.527Z</time>
      </trkpt>
      <trkpt lat="47.43097" lon="-1.51869">
        <ele>68.744042</ele>
        <time>2023-05-07T13:46:31.542Z</time>
      </trkpt>
      <trkpt lat="47.43098" lon="-1.51854">
        <ele>69.041471</ele>
        <time>2023-05-07T13:46:34.518Z</time>
      </trkpt>
      <trkpt lat="47.43098" lon="-1.5184">
        <ele>69.328964</ele>
        <time>2023-05-07T13:46:37.527Z</time>
      </trkpt>
      <trkpt lat="47.43099" lon="-1.51826">
        <ele>69.638025</ele>
        <time>2023-05-07T13:46:40.524Z</time>
      </trkpt>
      <trkpt lat="47.431" lon="-1.5181">
        <ele>69.957357</ele>
        <time>2023-05-07T13:46:43.522Z</time>
      </trkpt>
      <trkpt lat="47.43101" lon="-1.51794">
        <ele>70.298275</ele>
        <time>2023-05-07T13:46:46.520Z</time>
      </trkpt>
      <trkpt lat="47.43102" lon="-1.51776">
        <ele>70.660124</ele>
        <time>2023-05-07T13:46:49.522Z</time>
      </trkpt>
      <trkpt lat="47.43101" lon="-1.51759">
        <ele>71.019601</ele>
        <time>2023-05-07T13:46:52.524Z</time>
      </trkpt>
      <trkpt lat="47.43101" lon="-1.51741">
        <ele>71.382934</ele>
        <time>2023-05-07T13:46:55.525Z</time>
      </trkpt>
      <trkpt lat="47.431" lon="-1.51728">
        <ele>71.661201</ele>
        <time>2023-05-07T13:46:57.525Z</time>
      </trkpt>
      <trkpt lat="47.43099" lon="-1.51709">
        <ele>71.799994</ele>
        <time>2023-05-07T13:47:00.527Z</time>
      </trkpt>
      <trkpt lat="47.43099" lon="-1.5169">
        <ele>71.477029</ele>
        <time>2023-05-07T13:47:03.526Z</time>
      </trkpt>
      <trkpt lat="47.43099" lon="-1.51671">
        <ele>71.160652</ele>
        <time>2023-05-07T13:47:06.519Z</time>
      </trkpt>
      <trkpt lat="47.43098" lon="-1.51652">
        <ele>70.852662</ele>
        <time>2023-05-07T13:47:09.526Z</time>
      </trkpt>
      <trkpt lat="47.43098" lon="-1.51634">
        <ele>70.542851</ele>
        <time>2023-05-07T13:47:12.526Z</time>
      </trkpt>
      <trkpt lat="47.43096" lon="-1.51616">
        <ele>70.243662</ele>
        <time>2023-05-07T13:47:15.521Z</time>
      </trkpt>
      <trkpt lat="47.43096" lon="-1.51598">
        <ele>69.953556</ele>
        <time>2023-05-07T13:47:18.527Z</time>
      </trkpt>
      <trkpt lat="47.43095" lon="-1.5158">
        <ele>69.652221</ele>
        <time>2023-05-07T13:47:21.518Z</time>
      </trkpt>
      <trkpt lat="47.43094" lon="-1.51562">
        <ele>69.350163</ele>
        <time>2023-05-07T13:47:24.522Z</time>
      </trkpt>
      <trkpt lat="47.43092" lon="-1.51544">
        <ele>69.049007</ele>
        <time>2023-05-07T13:47:27.531Z</time>
      </trkpt>
      <trkpt lat="47.4309" lon="-1.51525">
        <ele>68.719805</ele>
        <time>2023-05-07T13:47:30.521Z</time>
      </trkpt>
      <trkpt lat="47.43089" lon="-1.51511">
        <ele>68.488237</ele>
        <time>2023-05-07T13:47:32.532Z</time>
      </trkpt>
      <trkpt lat="47.43088" lon="-1.51497">
        <ele>68.252325</ele>
        <time>2023-05-07T13:47:34.523Z</time>
      </trkpt>
      <trkpt lat="47.43086" lon="-1.51482">
        <ele>68.000934</ele>
        <time>2023-05-07T13:47:36.520Z</time>
      </trkpt>
      <trkpt lat="47.43085" lon="-1.51467">
        <ele>67.756699</ele>
        <time>2023-05-07T13:47:38.524Z</time>
      </trkpt>
      <trkpt lat="47.43084" lon="-1.51453">
        <ele>67.517885</ele>
        <time>2023-05-07T13:47:40.522Z</time>
      </trkpt>
      <trkpt lat="47.43083" lon="-1.51438">
        <ele>67.448668</ele>
        <time>2023-05-07T13:47:42.528Z</time>
      </trkpt>
      <trkpt lat="47.43081" lon="-1.51422">
        <ele>67.401875</ele>
        <time>2023-05-07T13:47:44.525Z</time>
      </trkpt>
      <trkpt lat="47.4308" lon="-1.51407">
        <ele>67.35724</ele>
        <time>2023-05-07T13:47:46.519Z</time>
      </trkpt>
      <trkpt lat="47.43078" lon="-1.51392">
        <ele>67.314359</ele>
        <time>2023-05-07T13:47:48.524Z</time>
      </trkpt>
      <trkpt lat="47.43078" lon="-1.51378">
        <ele>67.273825</ele>
        <time>2023-05-07T13:47:50.525Z</time>
      </trkpt>
      <trkpt lat="47.43078" lon="-1.51363">
        <ele>67.232973</ele>
        <time>2023-05-07T13:47:52.527Z</time>
      </trkpt>
      <trkpt lat="47.43077" lon="-1.51345">
        <ele>67.181171</ele>
        <time>2023-05-07T13:47:55.524Z</time>
      </trkpt>
      <trkpt lat="47.43075" lon="-1.51328">
        <ele>67.129839</ele>
        <time>2023-05-07T13:47:58.522Z</time>
      </trkpt>
      <trkpt lat="47.43071" lon="-1.51309">
        <ele>67.074606</ele>
        <time>2023-05-07T13:48:01.522Z</time>
      </trkpt>
      <trkpt lat="47.43069" lon="-1.51296">
        <ele>67.035901</ele>
        <time>2023-05-07T13:48:03.520Z</time>
      </trkpt>
      <trkpt lat="47.43067" lon="-1.51281">
        <ele>66.993191</ele>
        <time>2023-05-07T13:48:05.527Z</time>
      </trkpt>
      <trkpt lat="47.43064" lon="-1.51267">
        <ele>66.952796</ele>
        <time>2023-05-07T13:48:07.530Z</time>
      </trkpt>
      <trkpt lat="47.43063" lon="-1.51253">
        <ele>66.91176</ele>
        <time>2023-05-07T13:48:09.525Z</time>
      </trkpt>
      <trkpt lat="47.4306" lon="-1.51239">
        <ele>66.870321</ele>
        <time>2023-05-07T13:48:11.517Z</time>
      </trkpt>
      <trkpt lat="47.43057" lon="-1.51225">
        <ele>66.828163</ele>
        <time>2023-05-07T13:48:13.526Z</time>
      </trkpt>
      <trkpt lat="47.43054" lon="-1.5121">
        <ele>66.784336</ele>
        <time>2023-05-07T13:48:15.529Z</time>
      </trkpt>
      <trkpt lat="47.43052" lon="-1.51195">
        <ele>66.739878</ele>
        <time>2023-05-07T13:48:17.532Z</time>
      </trkpt>
      <trkpt lat="47.4305" lon="-1.51181">
        <ele>66.730389</ele>
        <time>2023-05-07T13:48:19.521Z</time>
      </trkpt>
      <trkpt lat="47.43048" lon="-1.51167">
        <ele>66.735776</ele>
        <time>2023-05-07T13:48:21.511Z</time>
      </trkpt>
      <trkpt lat="47.43047" lon="-1.51148">
        <ele>66.743028</ele>
        <time>2023-05-07T13:48:24.525Z</time>
      </trkpt>
      <trkpt lat="47.43045" lon="-1.5113">
        <ele>66.749886</ele>
        <time>2023-05-07T13:48:27.522Z</time>
      </trkpt>
      <trkpt lat="47.43045" lon="-1.51112">
        <ele>66.756668</ele>
        <time>2023-05-07T13:48:30.527Z</time>
      </trkpt>
      <trkpt lat="47.43045" lon="-1.51094">
        <ele>66.7633</ele>
        <time>2023-05-07T13:48:33.518Z</time>
      </trkpt>
      <trkpt lat="47.43046" lon="-1.51077">
        <ele>66.769955</ele>
        <time>2023-05-07T13:48:36.518Z</time>
      </trkpt>
      <trkpt lat="47.43047" lon="-1.51059">
        <ele>66.776517</ele>
        <time>2023-05-07T13:48:39.524Z</time>
      </trkpt>
      <trkpt lat="47.43048" lon="-1.5104">
        <ele>66.783882</ele>
        <time>2023-05-07T13:48:42.518Z</time>
      </trkpt>
      <trkpt lat="47.43049" lon="-1.51026">
        <ele>66.788988</ele>
        <time>2023-05-07T13:48:44.524Z</time>
      </trkpt>
      <trkpt lat="47.43049" lon="-1.51012">
        <ele>66.794302</ele>
        <time>2023-05-07T13:48:46.527Z</time>
      </trkpt>
      <trkpt lat="47.43049" lon="-1.50993">
        <ele>66.801575</ele>
        <time>2023-05-07T13:48:49.526Z</time>
      </trkpt>
      <trkpt lat="47.43048" lon="-1.50973">
        <ele>66.809001</ele>
        <time>2023-05-07T13:48:52.522Z</time>
      </trkpt>
      <trkpt lat="47.43048" lon="-1.50955">
        <ele>66.815784</ele>
        <time>2023-05-07T13:48:55.526Z</time>
      </trkpt>
      <trkpt lat="47.43048" lon="-1.50937">
        <ele>66.822605</ele>
        <time>2023-05-07T13:48:58.520Z</time>
      </trkpt>
      <trkpt lat="47.43047" lon="-1.50917">
        <ele>66.829725</ele>
        <time>2023-05-07T13:49:01.526Z</time>
      </trkpt>
      <trkpt lat="47.43047" lon="-1.50904">
        <ele>66.834412</ele>
        <time>2023-05-07T13:49:03.524Z</time>
      </trkpt>
      <trkpt lat="47.43047" lon="-1.5089">
        <ele>66.839058</ele>
        <time>2023-05-07T13:49:05.524Z</time>
      </trkpt>
      <trkpt lat="47.43047" lon="-1.50877">
        <ele>66.843704</ele>
        <time>2023-05-07T13:49:07.514Z</time>
      </trkpt>
      <trkpt lat="47.43046" lon="-1.50858">
        <ele>66.85021</ele>
        <time>2023-05-07T13:49:10.521Z</time>
      </trkpt>
      <trkpt lat="47.43047" lon="-1.50839">
        <ele>66.85687</ele>
        <time>2023-05-07T13:49:13.525Z</time>
      </trkpt>
      <trkpt lat="47.43047" lon="-1.50821">
        <ele>66.862791</ele>
        <time>2023-05-07T13:49:16.524Z</time>
      </trkpt>
      <trkpt lat="47.43047" lon="-1.50805">
        <ele>66.868575</ele>
        <time>2023-05-07T13:49:19.527Z</time>
      </trkpt>
      <trkpt lat="47.43048" lon="-1.50787">
        <ele>66.874496</ele>
        <time>2023-05-07T13:49:22.524Z</time>
      </trkpt>
      <trkpt lat="47.43047" lon="-1.50768">
        <ele>66.881138</ele>
        <time>2023-05-07T13:49:25.527Z</time>
      </trkpt>
      <trkpt lat="47.43046" lon="-1.50754">
        <ele>66.88613</ele>
        <time>2023-05-07T13:49:27.521Z</time>
      </trkpt>
      <trkpt lat="47.43043" lon="-1.50735">
        <ele>66.892756</ele>
        <time>2023-05-07T13:49:30.527Z</time>
      </trkpt>
      <trkpt lat="47.43042" lon="-1.50717">
        <ele>66.898968</ele>
        <time>2023-05-07T13:49:33.523Z</time>
      </trkpt>
      <trkpt lat="47.43042" lon="-1.507">
        <ele>66.904753</ele>
        <time>2023-05-07T13:49:36.524Z</time>
      </trkpt>
      <trkpt lat="47.43043" lon="-1.50684">
        <ele>66.910449</ele>
        <time>2023-05-07T13:49:39.522Z</time>
      </trkpt>
      <trkpt lat="47.43044" lon="-1.50665">
        <ele>66.916969</ele>
        <time>2023-05-07T13:49:42.514Z</time>
      </trkpt>
      <trkpt lat="47.43044" lon="-1.50647">
        <ele>66.940482</ele>
        <time>2023-05-07T13:49:45.522Z</time>
      </trkpt>
      <trkpt lat="47.43044" lon="-1.50629">
        <ele>66.968134</ele>
        <time>2023-05-07T13:49:48.526Z</time>
      </trkpt>
      <trkpt lat="47.43044" lon="-1.50611">
        <ele>66.996094</ele>
        <time>2023-05-07T13:49:51.526Z</time>
      </trkpt>
      <trkpt lat="47.43044" lon="-1.50593">
        <ele>67.023112</ele>
        <time>2023-05-07T13:49:54.527Z</time>
      </trkpt>
      <trkpt lat="47.43044" lon="-1.50575">
        <ele>67.051091</ele>
        <time>2023-05-07T13:49:57.523Z</time>
      </trkpt>
      <trkpt lat="47.43044" lon="-1.50556">
        <ele>67.079816</ele>
        <time>2023-05-07T13:50:00.527Z</time>
      </trkpt>
      <trkpt lat="47.43043" lon="-1.50537">
        <ele>67.110119</ele>
        <time>2023-05-07T13:50:03.523Z</time>
      </trkpt>
      <trkpt lat="47.43045" lon="-1.50518">
        <ele>67.13912</ele>
        <time>2023-05-07T13:50:06.529Z</time>
      </trkpt>
      <trkpt lat="47.43048" lon="-1.505">
        <ele>67.168545</ele>
        <time>2023-05-07T13:50:09.529Z</time>
      </trkpt>
      <trkpt lat="47.43052" lon="-1.50481">
        <ele>67.1981</ele>
        <time>2023-05-07T13:50:12.522Z</time>
      </trkpt>
      <trkpt lat="47.43054" lon="-1.50469">
        <ele>67.218818</ele>
        <time>2023-05-07T13:50:14.532Z</time>
      </trkpt>
      <trkpt lat="47.43058" lon="-1.50449">
        <ele>67.249798</ele>
        <time>2023-05-07T13:50:17.522Z</time>
      </trkpt>
      <trkpt lat="47.43061" lon="-1.50436">
        <ele>67.271256</ele>
        <time>2023-05-07T13:50:19.528Z</time>
      </trkpt>
      <trkpt lat="47.43065" lon="-1.50424">
        <ele>67.292</ele>
        <time>2023-05-07T13:50:21.530Z</time>
      </trkpt>
      <trkpt lat="47.4307" lon="-1.50406">
        <ele>67.322685</ele>
        <time>2023-05-07T13:50:24.530Z</time>
      </trkpt>
      <trkpt lat="47.43076" lon="-1.50389">
        <ele>67.363343</ele>
        <time>2023-05-07T13:50:27.522Z</time>
      </trkpt>
      <trkpt lat="47.43078" lon="-1.50373">
        <ele>67.403776</ele>
        <time>2023-05-07T13:50:30.532Z</time>
      </trkpt>
      <trkpt lat="47.4308" lon="-1.50357">
        <ele>67.444786</ele>
        <time>2023-05-07T13:50:34.513Z</time>
      </trkpt>
      <trkpt lat="47.43086" lon="-1.50341">
        <ele>67.489111</ele>
        <time>2023-05-07T13:50:38.528Z</time>
      </trkpt>
      <trkpt lat="47.43091" lon="-1.50328">
        <ele>67.525763</ele>
        <time>2023-05-07T13:50:41.530Z</time>
      </trkpt>
      <trkpt lat="47.44072" lon="-1.48397">
        <ele>73.053475</ele>
        <time>2023-05-07T14:10:18.516Z</time>
      </trkpt>
      <trkpt lat="47.42267" lon="-1.29964">
        <ele>57.364186</ele>
        <time>2023-05-07T15:14:20.516Z</time>
      </trkpt>
      <trkpt lat="47.42263" lon="-1.29952">
        <ele>58.093717</ele>
        <time>2023-05-07T15:14:33.524Z</time>
      </trkpt>
      <trkpt lat="47.42252" lon="-1.29935">
        <ele>59.36336</ele>
        <time>2023-05-07T15:19:09.533Z</time>
      </trkpt>
      <trkpt lat="47.42245" lon="-1.29922">
        <ele>60.218137</ele>
        <time>2023-05-07T15:19:12.525Z</time>
      </trkpt>
      <trkpt lat="47.42238" lon="-1.29907">
        <ele>61.239632</ele>
        <time>2023-05-07T15:19:15.528Z</time>
      </trkpt>
      <trkpt lat="47.42233" lon="-1.29893">
        <ele>62.046446</ele>
        <time>2023-05-07T15:19:17.527Z</time>
      </trkpt>
      <trkpt lat="47.42227" lon="-1.29877">
        <ele>63.027558</ele>
        <time>2023-05-07T15:19:19.525Z</time>
      </trkpt>
      <trkpt lat="47.42221" lon="-1.29859">
        <ele>64.085562</ele>
        <time>2023-05-07T15:19:21.529Z</time>
      </trkpt>
      <trkpt lat="47.42214" lon="-1.2984">
        <ele>65.247203</ele>
        <time>2023-05-07T15:19:23.526Z</time>
      </trkpt>
      <trkpt lat="47.42207" lon="-1.2982">
        <ele>65.227987</ele>
        <time>2023-05-07T15:19:25.528Z</time>
      </trkpt>
      <trkpt lat="47.42198" lon="-1.29798">
        <ele>64.989349</ele>
        <time>2023-05-07T15:19:27.531Z</time>
      </trkpt>
      <trkpt lat="47.42193" lon="-1.29787">
        <ele>64.862574</ele>
        <time>2023-05-07T15:19:28.524Z</time>
      </trkpt>
      <trkpt lat="47.42189" lon="-1.29775">
        <ele>64.735799</ele>
        <time>2023-05-07T15:19:29.537Z</time>
      </trkpt>
      <trkpt lat="47.42185" lon="-1.29763">
        <ele>64.604236</ele>
        <time>2023-05-07T15:19:30.529Z</time>
      </trkpt>
      <trkpt lat="47.4218" lon="-1.2975">
        <ele>64.469052</ele>
        <time>2023-05-07T15:19:31.526Z</time>
      </trkpt>
      <trkpt lat="47.42172" lon="-1.29726">
        <ele>64.217229</ele>
        <time>2023-05-07T15:19:33.525Z</time>
      </trkpt>
      <trkpt lat="47.42168" lon="-1.29714">
        <ele>64.08713</ele>
        <time>2023-05-07T15:19:34.533Z</time>
      </trkpt>
      <trkpt lat="47.42163" lon="-1.29702">
        <ele>63.949695</ele>
        <time>2023-05-07T15:19:35.532Z</time>
      </trkpt>
      <trkpt lat="47.42158" lon="-1.29689">
        <ele>63.813795</ele>
        <time>2023-05-07T15:19:36.527Z</time>
      </trkpt>
      <trkpt lat="47.42153" lon="-1.29678">
        <ele>63.686552</ele>
        <time>2023-05-07T15:19:37.532Z</time>
      </trkpt>
      <trkpt lat="47.42149" lon="-1.29666">
        <ele>63.558117</ele>
        <time>2023-05-07T15:19:38.525Z</time>
      </trkpt>
      <trkpt lat="47.4214" lon="-1.29643">
        <ele>63.313384</ele>
        <time>2023-05-07T15:19:40.530Z</time>
      </trkpt>
      <trkpt lat="47.42133" lon="-1.29622">
        <ele>63.086811</ele>
        <time>2023-05-07T15:19:42.537Z</time>
      </trkpt>
      <trkpt lat="47.42128" lon="-1.2961">
        <ele>62.955791</ele>
        <time>2023-05-07T15:19:43.527Z</time>
      </trkpt>
      <trkpt lat="47.42121" lon="-1.29592">
        <ele>63.116914</ele>
        <time>2023-05-07T15:19:45.561Z</time>
      </trkpt>
      <trkpt lat="47.42116" lon="-1.29576">
        <ele>63.375425</ele>
        <time>2023-05-07T15:19:47.525Z</time>
      </trkpt>
      <trkpt lat="47.42111" lon="-1.29564">
        <ele>63.588182</ele>
        <time>2023-05-07T15:19:49.529Z</time>
      </trkpt>
      <trkpt lat="47.42105" lon="-1.29548">
        <ele>63.849046</ele>
        <time>2023-05-07T15:19:52.530Z</time>
      </trkpt>
      <trkpt lat="47.42099" lon="-1.29534">
        <ele>64.098844</ele>
        <time>2023-05-07T15:19:55.522Z</time>
      </trkpt>
      <trkpt lat="47.42095" lon="-1.29521">
        <ele>64.314198</ele>
        <time>2023-05-07T15:19:58.529Z</time>
      </trkpt>
      <trkpt lat="47.42089" lon="-1.29508">
        <ele>64.535628</ele>
        <time>2023-05-07T15:20:02.528Z</time>
      </trkpt>
      <trkpt lat="47.42084" lon="-1.29492">
        <ele>64.787696</ele>
        <time>2023-05-07T15:20:06.528Z</time>
      </trkpt>
      <trkpt lat="47.42079" lon="-1.29478">
        <ele>65.03221</ele>
        <time>2023-05-07T15:20:10.524Z</time>
      </trkpt>
      <trkpt lat="47.42073" lon="-1.29465">
        <ele>65.264444</ele>
        <time>2023-05-07T15:20:14.530Z</time>
      </trkpt>
      <trkpt lat="47.42067" lon="-1.29452">
        <ele>65.484557</ele>
        <time>2023-05-07T15:20:18.525Z</time>
      </trkpt>
      <trkpt lat="47.42062" lon="-1.29437">
        <ele>65.726484</ele>
        <time>2023-05-07T15:20:23.525Z</time>
      </trkpt>
      <trkpt lat="47.42057" lon="-1.29425">
        <ele>65.948028</ele>
        <time>2023-05-07T15:20:27.526Z</time>
      </trkpt>
      <trkpt lat="47.42052" lon="-1.29412">
        <ele>66.154333</ele>
        <time>2023-05-07T15:20:31.527Z</time>
      </trkpt>
      <trkpt lat="47.42046" lon="-1.29399">
        <ele>66.390253</ele>
        <time>2023-05-07T15:20:35.525Z</time>
      </trkpt>
      <trkpt lat="47.4204" lon="-1.29387">
        <ele>66.618203</ele>
        <time>2023-05-07T15:20:39.533Z</time>
      </trkpt>
      <trkpt lat="47.42034" lon="-1.29374">
        <ele>66.879692</ele>
        <time>2023-05-07T15:20:43.531Z</time>
      </trkpt>
      <trkpt lat="47.42029" lon="-1.2936">
        <ele>67.375908</ele>
        <time>2023-05-07T15:20:48.524Z</time>
      </trkpt>
      <trkpt lat="47.42024" lon="-1.29347">
        <ele>67.793274</ele>
        <time>2023-05-07T15:20:52.530Z</time>
      </trkpt>
      <trkpt lat="47.42019" lon="-1.29335">
        <ele>68.212474</ele>
        <time>2023-05-07T15:20:56.529Z</time>
      </trkpt>
      <trkpt lat="47.42015" lon="-1.29322">
        <ele>68.667511</ele>
        <time>2023-05-07T15:21:01.534Z</time>
      </trkpt>
      <trkpt lat="47.42011" lon="-1.29309">
        <ele>69.084356</ele>
        <time>2023-05-07T15:21:05.532Z</time>
      </trkpt>
      <trkpt lat="47.42007" lon="-1.29296">
        <ele>69.525723</ele>
        <time>2023-05-07T15:21:09.531Z</time>
      </trkpt>
      <trkpt lat="47.42002" lon="-1.29281">
        <ele>70.01656</ele>
        <time>2023-05-07T15:21:13.523Z</time>
      </trkpt>
      <trkpt lat="47.41997" lon="-1.29266">
        <ele>70.517454</ele>
        <time>2023-05-07T15:21:17.534Z</time>
      </trkpt>
      <trkpt lat="47.41993" lon="-1.29254">
        <ele>70.931812</ele>
        <time>2023-05-07T15:21:20.529Z</time>
      </trkpt>
      <trkpt lat="47.41986" lon="-1.29241">
        <ele>71.423566</ele>
        <time>2023-05-07T15:21:24.532Z</time>
      </trkpt>
      <trkpt lat="47.41982" lon="-1.29228">
        <ele>71.854066</ele>
        <time>2023-05-07T15:21:28.522Z</time>
      </trkpt>
      <trkpt lat="47.41976" lon="-1.29215">
        <ele>72.327946</ele>
        <time>2023-05-07T15:21:32.536Z</time>
      </trkpt>
      <trkpt lat="47.41971" lon="-1.29199">
        <ele>72.852883</ele>
        <time>2023-05-07T15:21:36.522Z</time>
      </trkpt>
      <trkpt lat="47.41967" lon="-1.29186">
        <ele>73.288811</ele>
        <time>2023-05-07T15:21:39.538Z</time>
      </trkpt>
      <trkpt lat="47.41961" lon="-1.29174">
        <ele>73.709756</ele>
        <time>2023-05-07T15:21:42.536Z</time>
      </trkpt>
      <trkpt lat="47.41955" lon="-1.2916">
        <ele>74.223028</ele>
        <time>2023-05-07T15:21:46.528Z</time>
      </trkpt>
      <trkpt lat="47.41949" lon="-1.29145">
        <ele>74.745628</ele>
        <time>2023-05-07T15:21:50.534Z</time>
      </trkpt>
      <trkpt lat="47.41945" lon="-1.29132">
        <ele>74.886446</ele>
        <time>2023-05-07T15:21:53.524Z</time>
      </trkpt>
      <trkpt lat="47.41941" lon="-1.29119">
        <ele>74.99202</ele>
        <time>2023-05-07T15:21:56.528Z</time>
      </trkpt>
      <trkpt lat="47.41936" lon="-1.29105">
        <ele>75.110423</ele>
        <time>2023-05-07T15:22:00.523Z</time>
      </trkpt>
      <trkpt lat="47.41931" lon="-1.29092">
        <ele>75.220873</ele>
        <time>2023-05-07T15:22:04.524Z</time>
      </trkpt>
      <trkpt lat="47.41926" lon="-1.29078">
        <ele>75.338505</ele>
        <time>2023-05-07T15:22:08.524Z</time>
      </trkpt>
      <trkpt lat="47.41921" lon="-1.29063">
        <ele>75.459106</ele>
        <time>2023-05-07T15:22:12.532Z</time>
      </trkpt>
      <trkpt lat="47.41915" lon="-1.2905">
        <ele>75.572346</ele>
        <time>2023-05-07T15:22:17.532Z</time>
      </trkpt>
      <trkpt lat="47.41911" lon="-1.29037">
        <ele>75.674994</ele>
        <time>2023-05-07T15:22:21.528Z</time>
      </trkpt>
      <trkpt lat="47.41905" lon="-1.29024">
        <ele>75.791217</ele>
        <time>2023-05-07T15:22:25.528Z</time>
      </trkpt>
      <trkpt lat="47.41899" lon="-1.29011">
        <ele>75.906823</ele>
        <time>2023-05-07T15:22:29.529Z</time>
      </trkpt>
      <trkpt lat="47.41893" lon="-1.28997">
        <ele>76.024307</ele>
        <time>2023-05-07T15:22:33.525Z</time>
      </trkpt>
      <trkpt lat="47.41888" lon="-1.28985">
        <ele>76.12904</ele>
        <time>2023-05-07T15:22:37.527Z</time>
      </trkpt>
      <trkpt lat="47.41883" lon="-1.28971">
        <ele>76.247974</ele>
        <time>2023-05-07T15:22:41.526Z</time>
      </trkpt>
      <trkpt lat="47.41878" lon="-1.28957">
        <ele>76.357226</ele>
        <time>2023-05-07T15:22:44.524Z</time>
      </trkpt>
      <trkpt lat="47.41873" lon="-1.28944">
        <ele>76.469583</ele>
        <time>2023-05-07T15:22:47.526Z</time>
      </trkpt>
      <trkpt lat="47.41868" lon="-1.28931">
        <ele>76.57744</ele>
        <time>2023-05-07T15:22:50.532Z</time>
      </trkpt>
      <trkpt lat="47.41863" lon="-1.28917">
        <ele>76.692309</ele>
        <time>2023-05-07T15:22:53.524Z</time>
      </trkpt>
      <trkpt lat="47.41859" lon="-1.28902">
        <ele>76.983897</ele>
        <time>2023-05-07T15:22:56.529Z</time>
      </trkpt>
      <trkpt lat="47.41854" lon="-1.28889">
        <ele>77.370968</ele>
        <time>2023-05-07T15:22:59.534Z</time>
      </trkpt>
      <trkpt lat="47.41848" lon="-1.28875">
        <ele>77.762866</ele>
        <time>2023-05-07T15:23:02.532Z</time>
      </trkpt>
      <trkpt lat="47.41841" lon="-1.28861">
        <ele>78.185096</ele>
        <time>2023-05-07T15:23:05.538Z</time>
      </trkpt>
      <trkpt lat="47.41835" lon="-1.28847">
        <ele>78.605121</ele>
        <time>2023-05-07T15:23:08.522Z</time>
      </trkpt>
      <trkpt lat="47.41829" lon="-1.28836">
        <ele>78.960173</ele>
        <time>2023-05-07T15:23:11.529Z</time>
      </trkpt>
      <trkpt lat="47.41823" lon="-1.28824">
        <ele>79.317071</ele>
        <time>2023-05-07T15:23:14.524Z</time>
      </trkpt>
      <trkpt lat="47.41817" lon="-1.28813">
        <ele>79.666477</ele>
        <time>2023-05-07T15:23:17.532Z</time>
      </trkpt>
      <trkpt lat="47.4181" lon="-1.28802">
        <ele>80.024259</ele>
        <time>2023-05-07T15:23:20.535Z</time>
      </trkpt>
      <trkpt lat="47.41803" lon="-1.28791">
        <ele>80.419035</ele>
        <time>2023-05-07T15:23:23.532Z</time>
      </trkpt>
      <trkpt lat="47.41795" lon="-1.28778">
        <ele>80.841889</ele>
        <time>2023-05-07T15:23:26.527Z</time>
      </trkpt>
      <trkpt lat="47.41786" lon="-1.28766">
        <ele>81.265209</ele>
        <time>2023-05-07T15:23:29.528Z</time>
      </trkpt>
      <trkpt lat="47.41778" lon="-1.28755">
        <ele>81.674624</ele>
        <time>2023-05-07T15:23:32.529Z</time>
      </trkpt>
      <trkpt lat="47.41769" lon="-1.28745">
        <ele>82.075592</ele>
        <time>2023-05-07T15:23:35.530Z</time>
      </trkpt>
      <trkpt lat="47.41761" lon="-1.28735">
        <ele>82.475483</ele>
        <time>2023-05-07T15:23:38.530Z</time>
      </trkpt>
      <trkpt lat="47.41752" lon="-1.28725">
        <ele>82.879281</ele>
        <time>2023-05-07T15:23:41.528Z</time>
      </trkpt>
      <trkpt lat="47.41742" lon="-1.28717">
        <ele>83.283072</ele>
        <time>2023-05-07T15:23:44.526Z</time>
      </trkpt>
      <trkpt lat="47.41732" lon="-1.28707">
        <ele>83.310896</ele>
        <time>2023-05-07T15:23:47.530Z</time>
      </trkpt>
      <trkpt lat="47.41722" lon="-1.28698">
        <ele>83.339572</ele>
        <time>2023-05-07T15:23:50.526Z</time>
      </trkpt>
      <trkpt lat="47.41711" lon="-1.2869">
        <ele>83.36884</ele>
        <time>2023-05-07T15:23:53.529Z</time>
      </trkpt>
      <trkpt lat="47.417" lon="-1.28682">
        <ele>83.39729</ele>
        <time>2023-05-07T15:23:56.529Z</time>
      </trkpt>
      <trkpt lat="47.41689" lon="-1.28675">
        <ele>83.427361</ele>
        <time>2023-05-07T15:23:59.523Z</time>
      </trkpt>
      <trkpt lat="47.41677" lon="-1.28669">
        <ele>83.456823</ele>
        <time>2023-05-07T15:24:02.524Z</time>
      </trkpt>
      <trkpt lat="47.41667" lon="-1.28663">
        <ele>83.484085</ele>
        <time>2023-05-07T15:24:05.529Z</time>
      </trkpt>
      <trkpt lat="47.41657" lon="-1.28656">
        <ele>83.509853</ele>
        <time>2023-05-07T15:24:08.521Z</time>
      </trkpt>
      <trkpt lat="47.41647" lon="-1.2865">
        <ele>83.534807</ele>
        <time>2023-05-07T15:24:11.521Z</time>
      </trkpt>
      <trkpt lat="47.41638" lon="-1.28644">
        <ele>83.559245</ele>
        <time>2023-05-07T15:24:14.523Z</time>
      </trkpt>
      <trkpt lat="47.41628" lon="-1.28638">
        <ele>83.584667</ele>
        <time>2023-05-07T15:24:17.530Z</time>
      </trkpt>
      <trkpt lat="47.41618" lon="-1.28632">
        <ele>83.61187</ele>
        <time>2023-05-07T15:24:20.531Z</time>
      </trkpt>
      <trkpt lat="47.41607" lon="-1.28625">
        <ele>83.638585</ele>
        <time>2023-05-07T15:24:23.534Z</time>
      </trkpt>
      <trkpt lat="47.41595" lon="-1.28618">
        <ele>83.669937</ele>
        <time>2023-05-07T15:24:26.529Z</time>
      </trkpt>
      <trkpt lat="47.41584" lon="-1.2861">
        <ele>83.700281</ele>
        <time>2023-05-07T15:24:29.524Z</time>
      </trkpt>
      <trkpt lat="47.41573" lon="-1.28603">
        <ele>83.617363</ele>
        <time>2023-05-07T15:24:32.528Z</time>
      </trkpt>
      <trkpt lat="47.41563" lon="-1.28597">
        <ele>83.459008</ele>
        <time>2023-05-07T15:24:35.527Z</time>
      </trkpt>
      <trkpt lat="47.41554" lon="-1.2859">
        <ele>83.302668</ele>
        <time>2023-05-07T15:24:38.528Z</time>
      </trkpt>
      <trkpt lat="47.41545" lon="-1.28583">
        <ele>83.156777</ele>
        <time>2023-05-07T15:24:41.529Z</time>
      </trkpt>
      <trkpt lat="47.41536" lon="-1.28576">
        <ele>83.006594</ele>
        <time>2023-05-07T15:24:44.522Z</time>
      </trkpt>
      <trkpt lat="47.41527" lon="-1.28569">
        <ele>82.863578</ele>
        <time>2023-05-07T15:24:47.531Z</time>
      </trkpt>
      <trkpt lat="47.4152" lon="-1.28562">
        <ele>82.727758</ele>
        <time>2023-05-07T15:24:50.529Z</time>
      </trkpt>
      <trkpt lat="47.4151" lon="-1.28552">
        <ele>82.557758</ele>
        <time>2023-05-07T15:24:54.527Z</time>
      </trkpt>
      <trkpt lat="47.41503" lon="-1.28544">
        <ele>82.425687</ele>
        <time>2023-05-07T15:24:57.533Z</time>
      </trkpt>
      <trkpt lat="47.41496" lon="-1.28536">
        <ele>82.291838</ele>
        <time>2023-05-07T15:25:00.528Z</time>
      </trkpt>
      <trkpt lat="47.41487" lon="-1.28525">
        <ele>82.127545</ele>
        <time>2023-05-07T15:25:04.520Z</time>
      </trkpt>
      <trkpt lat="47.41479" lon="-1.28515">
        <ele>81.970124</ele>
        <time>2023-05-07T15:25:08.527Z</time>
      </trkpt>
      <trkpt lat="47.41471" lon="-1.28503">
        <ele>81.800501</ele>
        <time>2023-05-07T15:25:12.525Z</time>
      </trkpt>
      <trkpt lat="47.41464" lon="-1.28492">
        <ele>81.65146</ele>
        <time>2023-05-07T15:25:15.521Z</time>
      </trkpt>
      <trkpt lat="47.41457" lon="-1.28482">
        <ele>81.503499</ele>
        <time>2023-05-07T15:25:18.530Z</time>
      </trkpt>
      <trkpt lat="47.41449" lon="-1.28471">
        <ele>81.354162</ele>
        <time>2023-05-07T15:25:21.527Z</time>
      </trkpt>
      <trkpt lat="47.41442" lon="-1.2846">
        <ele>81.196797</ele>
        <time>2023-05-07T15:25:24.524Z</time>
      </trkpt>
      <trkpt lat="47.41435" lon="-1.28447">
        <ele>81.06422</ele>
        <time>2023-05-07T15:25:27.532Z</time>
      </trkpt>
      <trkpt lat="47.41429" lon="-1.28433">
        <ele>81.066864</ele>
        <time>2023-05-07T15:25:30.528Z</time>
      </trkpt>
      <trkpt lat="47.41423" lon="-1.28421">
        <ele>81.069283</ele>
        <time>2023-05-07T15:25:33.523Z</time>
      </trkpt>
      <trkpt lat="47.41416" lon="-1.28407">
        <ele>81.071995</ele>
        <time>2023-05-07T15:25:37.530Z</time>
      </trkpt>
      <trkpt lat="47.4141" lon="-1.28393">
        <ele>81.074692</ele>
        <time>2023-05-07T15:25:41.528Z</time>
      </trkpt>
      <trkpt lat="47.41405" lon="-1.28381">
        <ele>81.076934</ele>
        <time>2023-05-07T15:25:44.523Z</time>
      </trkpt>
      <trkpt lat="47.41401" lon="-1.28368">
        <ele>81.079156</ele>
        <time>2023-05-07T15:25:47.526Z</time>
      </trkpt>
      <trkpt lat="47.41396" lon="-1.28353">
        <ele>81.081747</ele>
        <time>2023-05-07T15:25:50.525Z</time>
      </trkpt>
      <trkpt lat="47.41392" lon="-1.28338">
        <ele>81.084402</ele>
        <time>2023-05-07T15:25:53.532Z</time>
      </trkpt>
      <trkpt lat="47.41388" lon="-1.28322">
        <ele>81.087173</ele>
        <time>2023-05-07T15:25:56.532Z</time>
      </trkpt>
      <trkpt lat="47.41383" lon="-1.28306">
        <ele>81.089898</ele>
        <time>2023-05-07T15:25:59.524Z</time>
      </trkpt>
      <trkpt lat="47.41378" lon="-1.28292">
        <ele>81.092396</ele>
        <time>2023-05-07T15:26:02.528Z</time>
      </trkpt>
      <trkpt lat="47.41374" lon="-1.28278">
        <ele>81.094809</ele>
        <time>2023-05-07T15:26:05.528Z</time>
      </trkpt>
      <trkpt lat="47.41371" lon="-1.28263">
        <ele>81.09729</ele>
        <time>2023-05-07T15:26:08.529Z</time>
      </trkpt>
      <trkpt lat="47.41367" lon="-1.28248">
        <ele>81.099906</ele>
        <time>2023-05-07T15:26:11.526Z</time>
      </trkpt>
      <trkpt lat="47.41363" lon="-1.28233">
        <ele>81.102445</ele>
        <time>2023-05-07T15:26:14.518Z</time>
      </trkpt>
      <trkpt lat="47.41359" lon="-1.28219">
        <ele>81.104822</ele>
        <time>2023-05-07T15:26:17.529Z</time>
      </trkpt>
      <trkpt lat="47.41354" lon="-1.28203">
        <ele>81.110669</ele>
        <time>2023-05-07T15:26:21.531Z</time>
      </trkpt>
      <trkpt lat="47.4135" lon="-1.28187">
        <ele>81.118127</ele>
        <time>2023-05-07T15:26:24.522Z</time>
      </trkpt>
      <trkpt lat="47.41346" lon="-1.28172">
        <ele>81.125482</ele>
        <time>2023-05-07T15:26:27.525Z</time>
      </trkpt>
      <trkpt lat="47.41341" lon="-1.28156">
        <ele>81.13311</ele>
        <time>2023-05-07T15:26:30.528Z</time>
      </trkpt>
      <trkpt lat="47.41337" lon="-1.28142">
        <ele>81.1402</ele>
        <time>2023-05-07T15:26:33.525Z</time>
      </trkpt>
      <trkpt lat="47.41333" lon="-1.28128">
        <ele>81.14672</ele>
        <time>2023-05-07T15:26:36.529Z</time>
      </trkpt>
      <trkpt lat="47.41329" lon="-1.28115">
        <ele>81.153213</ele>
        <time>2023-05-07T15:26:39.523Z</time>
      </trkpt>
      <trkpt lat="47.41325" lon="-1.28102">
        <ele>81.159824</ele>
        <time>2023-05-07T15:26:42.528Z</time>
      </trkpt>
      <trkpt lat="47.4132" lon="-1.28088">
        <ele>81.166744</ele>
        <time>2023-05-07T15:26:45.528Z</time>
      </trkpt>
      <trkpt lat="47.41315" lon="-1.28074">
        <ele>81.173844</ele>
        <time>2023-05-07T15:26:48.526Z</time>
      </trkpt>
      <trkpt lat="47.4131" lon="-1.2806">
        <ele>81.180815</ele>
        <time>2023-05-07T15:26:51.524Z</time>
      </trkpt>
      <trkpt lat="47.41307" lon="-1.28046">
        <ele>81.187555</ele>
        <time>2023-05-07T15:26:54.522Z</time>
      </trkpt>
      <trkpt lat="47.41303" lon="-1.28031">
        <ele>81.194795</ele>
        <time>2023-05-07T15:26:57.532Z</time>
      </trkpt>
      <trkpt lat="47.41299" lon="-1.28016">
        <ele>81.202035</ele>
        <time>2023-05-07T15:27:00.521Z</time>
      </trkpt>
      <trkpt lat="47.41295" lon="-1.28001">
        <ele>81.209531</ele>
        <time>2023-05-07T15:27:03.527Z</time>
      </trkpt>
      <trkpt lat="47.4129" lon="-1.27986">
        <ele>81.216842</ele>
        <time>2023-05-07T15:27:06.528Z</time>
      </trkpt>
      <trkpt lat="47.41285" lon="-1.27972">
        <ele>81.223866</ele>
        <time>2023-05-07T15:27:09.524Z</time>
      </trkpt>
      <trkpt lat="47.41281" lon="-1.27957">
        <ele>81.238807</ele>
        <time>2023-05-07T15:27:12.522Z</time>
      </trkpt>
      <trkpt lat="47.41277" lon="-1.27943">
        <ele>81.254947</ele>
        <time>2023-05-07T15:27:15.525Z</time>
      </trkpt>
      <trkpt lat="47.41273" lon="-1.27927">
        <ele>81.272642</ele>
        <time>2023-05-07T15:27:18.530Z</time>
      </trkpt>
      <trkpt lat="47.41269" lon="-1.27911">
        <ele>81.290555</ele>
        <time>2023-05-07T15:27:21.528Z</time>
      </trkpt>
      <trkpt lat="47.41264" lon="-1.27894">
        <ele>81.310122</ele>
        <time>2023-05-07T15:27:24.520Z</time>
      </trkpt>
      <trkpt lat="47.41258" lon="-1.27878">
        <ele>81.329139</ele>
        <time>2023-05-07T15:27:27.527Z</time>
      </trkpt>
      <trkpt lat="47.41254" lon="-1.27865">
        <ele>81.345275</ele>
        <time>2023-05-07T15:27:30.528Z</time>
      </trkpt>
      <trkpt lat="47.41248" lon="-1.2785">
        <ele>81.36318</ele>
        <time>2023-05-07T15:27:34.523Z</time>
      </trkpt>
      <trkpt lat="47.41243" lon="-1.27838">
        <ele>81.377635</ele>
        <time>2023-05-07T15:27:37.531Z</time>
      </trkpt>
      <trkpt lat="47.41239" lon="-1.27824">
        <ele>81.393468</ele>
        <time>2023-05-07T15:27:41.529Z</time>
      </trkpt>
      <trkpt lat="47.41235" lon="-1.27808">
        <ele>81.411584</ele>
        <time>2023-05-07T15:27:45.529Z</time>
      </trkpt>
      <trkpt lat="47.41232" lon="-1.27795">
        <ele>81.426072</ele>
        <time>2023-05-07T15:27:48.529Z</time>
      </trkpt>
      <trkpt lat="47.41228" lon="-1.27781">
        <ele>81.442244</ele>
        <time>2023-05-07T15:27:51.529Z</time>
      </trkpt>
      <trkpt lat="47.41224" lon="-1.27767">
        <ele>81.458077</ele>
        <time>2023-05-07T15:27:54.524Z</time>
      </trkpt>
      <trkpt lat="47.4122" lon="-1.27754">
        <ele>81.473417</ele>
        <time>2023-05-07T15:27:57.533Z</time>
      </trkpt>
      <trkpt lat="47.41215" lon="-1.27742">
        <ele>81.487704</ele>
        <time>2023-05-07T15:28:00.532Z</time>
      </trkpt>
      <trkpt lat="47.41211" lon="-1.27728">
        <ele>81.503569</ele>
        <time>2023-05-07T15:28:03.525Z</time>
      </trkpt>
      <trkpt lat="47.41207" lon="-1.27715">
        <ele>81.688231</ele>
        <time>2023-05-07T15:28:06.529Z</time>
      </trkpt>
      <trkpt lat="47.41203" lon="-1.27701">
        <ele>81.886245</ele>
        <time>2023-05-07T15:28:09.525Z</time>
      </trkpt>
      <trkpt lat="47.41199" lon="-1.27687">
        <ele>82.096216</ele>
        <time>2023-05-07T15:28:12.538Z</time>
      </trkpt>
      <trkpt lat="47.41194" lon="-1.27672">
        <ele>82.311157</ele>
        <time>2023-05-07T15:28:15.534Z</time>
      </trkpt>
      <trkpt lat="47.41189" lon="-1.27658">
        <ele>82.531071</ele>
        <time>2023-05-07T15:28:18.529Z</time>
      </trkpt>
      <trkpt lat="47.41183" lon="-1.27644">
        <ele>82.746576</ele>
        <time>2023-05-07T15:28:21.536Z</time>
      </trkpt>
      <trkpt lat="47.41177" lon="-1.2763">
        <ele>82.968243</ele>
        <time>2023-05-07T15:28:24.524Z</time>
      </trkpt>
      <trkpt lat="47.41171" lon="-1.27615">
        <ele>83.195371</ele>
        <time>2023-05-07T15:28:27.527Z</time>
      </trkpt>
      <trkpt lat="47.41164" lon="-1.27602">
        <ele>83.416006</ele>
        <time>2023-05-07T15:28:30.532Z</time>
      </trkpt>
      <trkpt lat="47.41158" lon="-1.27589">
        <ele>83.625525</ele>
        <time>2023-05-07T15:28:33.518Z</time>
      </trkpt>
      <trkpt lat="47.41152" lon="-1.27575">
        <ele>83.841626</ele>
        <time>2023-05-07T15:28:36.521Z</time>
      </trkpt>
      <trkpt lat="47.41146" lon="-1.27562">
        <ele>84.057809</ele>
        <time>2023-05-07T15:28:39.524Z</time>
      </trkpt>
      <trkpt lat="47.4114" lon="-1.27548">
        <ele>84.269497</ele>
        <time>2023-05-07T15:28:42.526Z</time>
      </trkpt>
      <trkpt lat="47.41135" lon="-1.27536">
        <ele>84.468246</ele>
        <time>2023-05-07T15:28:45.525Z</time>
      </trkpt>
      <trkpt lat="47.41129" lon="-1.27524">
        <ele>84.671489</ele>
        <time>2023-05-07T15:28:48.532Z</time>
      </trkpt>
      <trkpt lat="47.41123" lon="-1.27511">
        <ele>84.876566</ele>
        <time>2023-05-07T15:28:51.527Z</time>
      </trkpt>
      <trkpt lat="47.41117" lon="-1.27497">
        <ele>85.072527</ele>
        <time>2023-05-07T15:28:54.528Z</time>
      </trkpt>
      <trkpt lat="47.4111" lon="-1.27482">
        <ele>85.183008</ele>
        <time>2023-05-07T15:28:57.532Z</time>
      </trkpt>
      <trkpt lat="47.41103" lon="-1.27468">
        <ele>85.295162</ele>
        <time>2023-05-07T15:29:00.533Z</time>
      </trkpt>
      <trkpt lat="47.41096" lon="-1.27455">
        <ele>85.4029</ele>
        <time>2023-05-07T15:29:03.531Z</time>
      </trkpt>
      <trkpt lat="47.41088" lon="-1.27442">
        <ele>85.519576</ele>
        <time>2023-05-07T15:29:06.532Z</time>
      </trkpt>
      <trkpt lat="47.4108" lon="-1.27427">
        <ele>85.640657</ele>
        <time>2023-05-07T15:29:09.515Z</time>
      </trkpt>
      <trkpt lat="47.41071" lon="-1.27412">
        <ele>85.763934</ele>
        <time>2023-05-07T15:29:12.532Z</time>
      </trkpt>
      <trkpt lat="47.41064" lon="-1.27397">
        <ele>85.885658</ele>
        <time>2023-05-07T15:29:15.535Z</time>
      </trkpt>
      <trkpt lat="47.41056" lon="-1.27381">
        <ele>86.010056</ele>
        <time>2023-05-07T15:29:18.538Z</time>
      </trkpt>
      <trkpt lat="47.41049" lon="-1.27366">
        <ele>86.127455</ele>
        <time>2023-05-07T15:29:21.532Z</time>
      </trkpt>
      <trkpt lat="47.41042" lon="-1.27352">
        <ele>86.24285</ele>
        <time>2023-05-07T15:29:24.535Z</time>
      </trkpt>
      <trkpt lat="47.41034" lon="-1.27338">
        <ele>86.353678</ele>
        <time>2023-05-07T15:29:27.536Z</time>
      </trkpt>
      <trkpt lat="47.41028" lon="-1.27326">
        <ele>86.450507</ele>
        <time>2023-05-07T15:29:30.516Z</time>
      </trkpt>
      <trkpt lat="47.41022" lon="-1.27314">
        <ele>86.545119</ele>
        <time>2023-05-07T15:29:33.538Z</time>
      </trkpt>
      <trkpt lat="47.36119" lon="-1.18629">
        <ele>66.102735</ele>
        <time>2023-05-07T16:14:16.530Z</time>
      </trkpt>
      <trkpt lat="47.3668" lon="-1.01228">
        <ele>113.595968</ele>
        <time>2023-05-07T19:54:29.922Z</time>
      </trkpt>
    </trkseg>
  </trk>
</gpx>